GFSSW_850_thetae_000.txt.gz
Theta_e
319 319 320 320 320 320 320 320 321 322 322 323 326 322 318 321 322 322 321 320 320 321 322 323 323 323 331 335 341 343 342 344 343 342 342 338 343 347 348 353 349 350 349 352 353
319 319 319 319 320 320 320 320 320 321 322 323 326 324 316 318 321 321 320 320 319 321 323 323 323 325 329 332 336 341 342 342 340 341 341 339 341 344 349 350 349 350 350 354 354
318 318 319 319 319 319 320 320 320 321 321 322 325 326 319 317 320 321 325 320 320 321 323 323 323 325 328 330 332 338 341 341 341 343 343 345 346 346 347 350 349 349 351 354 354
316 317 318 318 318 318 319 320 320 320 321 321 324 326 321 319 317 325 325 322 320 321 322 322 323 328 329 330 332 341 340 341 340 344 344 344 343 340 346 348 348 349 351 354 354
314 315 316 317 318 318 318 319 319 320 320 320 322 325 321 318 319 324 324 324 320 322 322 322 324 330 330 329 331 338 340 341 342 341 342 342 340 344 347 348 348 348 350 351 352
310 312 313 314 316 317 318 318 319 320 319 320 321 325 319 316 320 322 325 325 322 321 322 321 326 332 331 327 329 340 341 342 342 343 343 339 340 342 349 348 347 347 348 351 351
309 309 310 312 313 316 318 319 318 319 320 319 321 324 319 322 322 325 326 325 323 321 321 322 325 327 330 326 332 339 340 338 341 343 344 346 347 345 347 348 348 347 348 347 348
308 309 310 310 312 314 316 318 319 319 320 321 323 324 321 323 321 327 327 324 322 322 321 322 325 328 328 329 330 333 332 335 338 342 344 345 350 344 348 348 347 348 348 348 348
307 308 309 310 310 312 316 317 320 320 322 328 324 323 324 326 327 327 328 325 320 321 322 325 326 326 327 329 325 328 332 337 337 339 342 344 348 344 345 346 346 347 348 348 348
308 308 309 310 310 311 315 316 320 322 330 327 322 326 324 327 330 327 328 327 323 322 324 323 324 327 325 324 327 331 335 337 337 336 339 345 346 345 345 345 345 346 346 347 347
306 308 309 310 310 311 314 316 320 325 323 325 326 327 327 328 331 327 328 327 325 322 319 323 323 324 328 326 327 330 335 338 337 334 345 346 347 347 346 347 347 347 347 347 347
305 306 308 310 310 311 312 313 320 320 320 323 324 325 325 326 330 331 328 327 323 319 320 322 324 326 329 330 329 328 332 337 338 335 335 346 348 346 346 348 348 348 349 348 349
305 306 307 310 311 312 313 319 318 319 320 322 324 324 324 326 329 329 326 326 320 320 321 321 324 329 331 331 331 327 335 335 337 338 337 345 346 345 346 347 347 348 350 351 351
305 305 306 308 311 312 312 316 315 321 319 322 324 324 324 326 327 329 328 327 320 320 321 322 324 328 331 331 329 325 327 336 339 340 341 339 348 342 344 342 341 346 348 350 350
304 304 305 305 308 310 310 313 317 322 328 326 327 325 323 327 327 327 327 326 322 321 320 322 325 326 328 331 327 327 326 327 339 339 336 341 342 344 338 337 337 343 346 348 349
303 304 305 306 308 310 314 316 320 321 328 330 326 324 325 326 327 326 325 325 325 322 322 322 326 326 327 329 327 328 329 324 326 326 334 337 336 338 342 340 338 338 346 346 347
303 304 304 305 309 309 310 311 319 323 324 327 323 324 323 325 326 324 322 321 321 321 321 324 325 326 327 326 325 327 322 323 325 325 325 323 339 337 340 339 336 337 345 346 346
303 305 307 307 309 308 308 312 323 324 322 323 323 323 324 324 324 326 322 321 319 321 320 322 324 326 325 324 324 323 322 323 328 332 329 326 328 329 338 340 338 338 344 346 345
303 306 307 311 309 308 316 313 318 321 324 324 323 323 324 324 325 326 322 322 323 319 322 320 323 325 325 326 324 325 325 324 327 328 329 328 330 336 336 338 337 338 340 343 344
303 305 309 316 310 311 312 312 315 320 321 322 322 322 323 322 323 325 324 323 323 321 318 320 322 323 327 325 325 326 324 327 322 329 331 329 333 333 341 340 338 337 336 339 343
304 308 310 316 313 315 309 311 315 317 318 321 321 321 322 322 323 324 325 324 324 324 318 320 321 324 326 325 325 328 327 324 323 324 327 328 329 330 339 340 339 338 339 338 341
304 307 316 314 317 315 313 314 316 315 317 317 320 321 322 323 323 325 325 324 325 325 322 319 318 323 323 325 324 326 326 324 325 327 324 325 330 333 333 334 339 340 341 341 339
304 308 312 316 316 316 316 319 317 316 315 317 319 321 322 323 325 327 328 329 326 325 324 322 319 324 323 324 325 327 326 326 322 322 326 329 331 331 331 332 334 335 340 341 340
307 310 317 316 316 317 315 318 320 322 320 321 321 321 322 323 325 326 327 328 329 326 327 325 318 322 325 324 325 327 327 327 325 325 325 327 331 333 333 332 332 334 337 339 339
309 313 312 311 312 308 312 318 322 323 324 324 321 326 327 324 326 330 333 333 331 328 331 322 321 324 323 326 328 328 328 327 327 325 328 326 329 330 332 333 334 336 336 338 341
313 313 314 310 309 312 312 319 317 319 323 323 328 328 327 328 332 333 331 331 331 328 326 319 323 324 326 327 327 328 329 330 330 328 330 328 331 330 333 336 336 337 337 338 338
307 310 313 310 309 311 313 315 315 315 324 327 327 327 329 327 326 327 330 328 329 329 327 322 323 324 325 327 329 330 331 329 330 332 329 327 327 328 332 332 333 334 335 335 335

GFSSW_850_thetae_003.txt.gz
Theta_e
318 318 318 318 319 319 319 319 319 319 320 321 322 325 325 320 319 320 321 321 320 319 320 320 322 323 324 333 338 343 339 340 342 341 340 345 347 352 351 351 347 349 346 346 349
317 317 318 318 318 318 319 319 319 319 320 320 321 323 325 321 318 319 320 319 320 319 320 321 323 323 328 333 340 339 338 340 339 338 341 342 348 349 351 350 351 350 346 348 349
315 316 317 317 317 317 318 318 319 319 319 320 320 321 325 323 319 319 324 322 320 319 320 323 323 323 327 329 332 338 341 340 339 341 341 341 345 347 350 350 350 351 349 350 349
312 313 314 315 316 317 317 318 318 319 319 319 320 320 324 323 318 325 325 324 320 320 320 323 323 323 328 328 330 331 338 340 339 341 340 341 344 348 348 349 347 348 351 352 352
310 310 311 312 314 316 317 317 317 318 319 319 319 319 322 320 320 321 321 322 320 320 321 323 323 329 330 329 329 330 338 339 341 341 342 343 344 346 347 348 349 351 352 353 354
309 309 310 311 312 314 316 317 317 318 319 319 320 319 321 317 321 321 322 323 321 320 322 324 323 327 330 327 327 337 339 339 341 339 341 345 347 347 348 349 349 353 354 353 354
307 308 309 310 311 312 314 316 316 318 319 320 320 321 321 325 321 322 324 324 323 320 322 323 323 326 328 327 328 340 337 337 338 340 339 343 345 350 348 348 350 353 353 354 352
307 308 309 310 311 312 313 315 317 319 320 321 324 326 325 325 322 322 326 326 324 323 322 321 321 325 328 328 334 337 334 341 339 341 342 343 349 349 347 347 348 349 350 352 352
307 308 309 310 310 311 313 314 316 318 319 327 325 324 326 325 325 325 327 327 323 322 323 322 324 325 326 325 325 328 340 337 340 340 342 343 346 348 348 346 347 347 348 349 351
306 307 308 309 310 311 313 314 315 319 328 327 323 326 324 325 329 328 326 327 325 320 322 322 322 321 321 323 327 338 333 340 342 342 339 343 344 348 348 347 347 347 347 347 348
306 307 307 309 309 311 313 313 320 322 319 320 322 323 324 325 325 328 329 327 326 320 318 320 320 322 321 326 326 329 332 339 340 337 343 343 344 346 347 346 346 347 347 347 347
305 306 307 308 309 311 312 314 316 315 314 319 321 322 324 324 326 328 328 327 321 317 317 319 320 320 324 327 327 326 326 331 335 338 342 343 346 343 343 344 345 345 345 346 347
305 306 306 307 309 310 312 312 315 313 315 320 322 322 322 324 325 326 327 326 320 317 317 317 319 323 328 329 330 326 328 329 335 337 342 345 346 345 344 344 344 344 345 345 346
304 304 305 307 308 309 311 311 312 315 316 319 322 322 323 324 325 326 328 327 320 320 318 319 320 325 329 330 328 329 326 329 334 338 343 343 349 343 344 345 345 346 347 346 346
303 303 304 304 306 308 309 312 315 319 324 322 325 325 323 324 325 325 328 326 322 319 318 319 322 323 327 330 327 329 326 326 331 335 338 341 342 342 343 345 345 345 346 348 348
303 303 303 304 306 309 312 311 317 318 323 325 326 324 324 324 325 325 327 327 325 319 320 319 323 323 324 326 327 328 326 321 323 328 338 342 338 338 345 346 344 342 345 348 348
302 304 303 304 306 307 308 309 316 319 320 323 322 321 322 323 323 324 321 320 321 319 319 323 322 323 326 326 325 323 321 322 329 335 337 330 337 336 339 343 343 342 342 347 348
303 304 306 306 307 306 307 311 320 320 319 319 321 321 323 324 324 324 319 322 319 319 319 320 322 323 323 324 324 322 320 322 324 327 331 327 340 339 335 339 342 341 341 345 347
303 304 306 308 308 307 311 312 317 319 322 323 320 321 321 322 322 323 321 321 321 317 320 317 320 322 324 324 323 325 321 320 321 324 325 325 327 328 334 335 339 338 338 342 345
302 304 307 313 312 308 310 311 313 318 320 319 321 321 322 321 320 321 322 322 321 318 318 318 321 321 324 324 323 324 321 324 320 326 329 327 329 328 334 336 337 336 335 339 344
303 304 307 315 312 313 307 309 311 315 315 317 320 320 319 319 320 320 320 322 322 322 319 316 318 320 323 322 323 326 324 321 321 321 325 327 326 325 331 335 336 336 337 339 343
303 301 313 313 314 309 308 310 314 313 316 315 317 317 317 319 319 320 320 321 324 323 319 316 317 321 320 321 323 322 323 323 325 325 321 323 326 327 330 334 335 336 336 338 340
304 305 306 314 312 313 313 317 318 319 317 315 314 317 320 320 319 319 321 323 326 323 322 316 316 318 320 322 323 324 323 321 319 320 326 328 328 328 331 333 338 337 337 338 339
304 306 313 313 311 311 311 312 317 321 321 322 318 320 321 323 322 322 324 326 328 322 326 321 314 321 323 322 323 325 326 323 323 324 323 325 328 333 332 334 332 338 338 339 339
307 309 310 309 310 307 308 312 317 319 318 321 321 321 326 326 327 327 327 330 332 330 330 320 320 317 322 322 324 325 326 325 325 324 328 326 327 330 331 331 333 339 339 338 340
310 310 311 311 309 307 309 312 314 315 316 321 321 327 327 326 329 329 327 328 333 328 326 316 320 321 322 321 323 324 325 327 327 323 326 324 326 325 332 332 333 336 337 337 336
304 305 309 311 308 309 310 311 314 314 315 316 326 327 329 328 327 327 326 325 329 330 327 319 321 319 324 323 325 326 326 327 329 329 327 327 325 326 331 331 333 334 335 335 337

GFSSW_850_thetae_006.txt.gz
Theta_e
316 317 317 317 317 317 317 317 317 318 318 319 320 321 321 324 323 321 320 320 320 320 327 322 323 329 339 341 344 341 337 338 339 340 341 346 351 350 351 350 349 348 347 347 347
314 315 316 316 316 316 316 317 317 317 318 318 319 321 321 322 323 321 319 319 319 320 320 322 319 322 328 329 336 338 338 339 336 336 344 344 350 351 350 349 350 349 346 346 347
310 311 312 315 315 315 316 316 317 317 317 318 319 320 321 321 323 319 322 321 319 319 320 320 322 324 326 328 335 338 338 337 338 339 344 343 349 349 348 348 350 348 346 347 348
308 309 309 311 313 314 315 316 316 317 317 317 318 319 320 320 319 321 323 323 322 321 320 321 323 322 325 326 328 335 337 339 339 341 344 343 346 348 345 345 347 347 342 347 347
308 308 308 309 310 312 313 315 316 317 318 318 318 318 318 320 322 321 320 321 321 321 319 320 323 323 328 327 328 328 329 337 340 340 341 343 345 348 345 348 348 346 344 346 347
308 308 309 309 309 310 312 314 315 317 318 319 319 318 318 318 322 321 321 322 322 320 320 322 323 324 329 328 326 328 336 338 339 339 341 343 346 347 347 348 348 346 346 346 346
308 308 309 310 310 310 311 312 314 316 318 319 319 319 320 322 325 324 322 324 323 320 320 322 324 327 327 327 327 337 336 336 337 339 343 344 346 346 348 348 350 350 349 349 349
307 308 308 309 309 310 311 312 313 315 317 319 320 324 325 326 327 323 322 324 324 322 321 322 323 322 325 327 335 335 335 339 338 339 343 341 345 347 348 349 352 353 352 351 351
306 307 308 309 309 309 312 312 313 315 317 321 325 325 326 326 325 326 322 325 324 323 322 322 321 323 325 325 332 331 339 338 341 339 341 342 345 347 347 349 351 353 353 352 351
306 306 307 308 309 310 312 313 313 316 322 327 326 325 325 326 327 326 327 327 324 321 322 322 321 320 319 327 337 336 339 336 342 339 340 342 343 347 346 347 348 350 350 352 352
305 306 307 307 308 309 311 313 317 319 318 321 322 324 325 324 324 326 327 327 324 319 316 318 318 318 322 324 332 331 337 340 339 338 340 341 343 349 346 345 346 346 347 349 350
304 305 306 307 308 308 310 312 315 313 311 317 319 318 320 320 323 324 325 326 322 318 316 318 317 318 321 324 327 333 332 336 334 337 340 343 345 347 346 346 345 345 346 346 348
303 304 305 307 308 309 309 310 312 310 311 316 319 319 320 320 321 323 325 325 319 318 316 316 319 320 325 325 325 326 325 326 336 339 341 343 346 344 346 346 345 345 345 345 346
302 303 304 306 308 308 309 309 309 309 314 317 320 322 322 322 322 321 324 327 318 319 316 316 318 322 324 327 326 326 324 326 334 340 340 339 341 342 343 345 343 344 344 345 345
302 302 303 303 304 307 307 307 309 316 320 320 322 324 323 322 322 323 323 325 322 319 317 318 319 321 326 326 325 327 325 326 333 335 338 344 338 337 342 344 343 342 342 343 345
302 302 302 304 305 307 308 310 313 315 320 320 325 323 323 323 322 323 325 327 326 320 317 319 320 320 321 325 327 323 321 321 322 328 335 337 340 335 344 345 343 342 344 344 344
302 303 303 303 305 306 306 307 313 316 317 320 321 320 320 321 322 322 321 319 321 320 319 319 319 322 323 324 324 320 321 323 326 333 334 331 340 338 335 341 342 342 343 345 345
302 302 304 305 306 306 305 307 316 317 317 317 320 319 320 319 320 322 319 322 318 318 317 317 318 320 321 322 323 322 321 322 326 327 334 332 342 340 337 335 341 341 343 343 345
302 303 305 305 308 307 307 307 311 317 320 321 319 320 320 320 320 322 320 319 320 316 319 316 318 319 321 322 322 321 321 320 319 321 324 326 326 328 329 331 336 340 342 342 344
301 302 305 311 314 307 306 306 309 315 318 315 319 319 320 319 319 319 319 320 319 318 316 317 319 318 321 323 322 321 319 323 317 324 328 325 326 329 329 332 331 336 339 341 342
300 302 305 314 310 308 304 305 309 312 313 313 317 319 319 318 319 319 319 320 321 321 315 315 316 318 319 320 321 321 321 318 318 319 322 324 324 322 326 329 332 333 338 339 340
300 299 308 310 311 305 306 306 311 312 314 314 315 316 315 317 316 317 318 319 321 319 318 314 316 319 318 319 320 321 320 320 323 321 319 321 323 324 326 327 332 333 336 336 338
301 302 305 310 311 310 310 314 315 318 317 318 316 314 315 317 319 316 317 319 320 319 319 316 314 319 318 317 321 321 320 317 316 317 321 325 325 324 325 329 333 334 336 337 337
303 302 310 310 309 307 306 308 313 317 318 318 318 317 317 319 317 318 321 324 327 326 330 326 313 318 321 320 320 323 323 320 320 320 321 323 325 327 330 332 332 336 336 336 337
305 304 308 308 309 308 306 308 313 315 316 318 318 319 319 319 322 319 320 322 327 328 324 315 319 317 322 319 321 322 323 322 322 322 325 325 324 326 329 330 331 337 337 336 336
306 307 307 308 309 305 308 309 313 314 313 315 318 320 319 321 322 324 324 325 328 330 327 316 318 315 321 320 320 322 322 324 324 323 323 324 324 322 328 330 332 335 337 338 338
302 303 305 308 308 308 307 310 311 312 313 314 315 317 323 324 321 324 325 324 327 327 330 322 317 316 321 318 318 320 322 322 324 323 324 325 326 323 328 330 331 333 337 339 339

GFSSW_850_thetae_009.txt.gz
Theta_e
312 313 315 315 316 316 317 317 317 317 318 318 319 320 321 322 321 322 322 321 319 320 325 327 329 331 340 345 345 340 343 344 343 348 347 347 348 351 350 350 349 348 348 346 347
309 310 311 312 313 314 315 317 317 317 317 318 318 319 319 320 321 321 320 320 319 320 320 325 327 329 333 331 336 340 344 343 341 343 347 347 348 351 351 350 349 350 349 346 348
308 309 309 309 310 312 313 315 316 317 318 318 318 318 319 319 320 321 323 320 318 319 320 323 321 323 326 329 334 340 342 341 341 340 345 347 348 350 349 350 348 350 351 349 349
308 308 309 309 310 310 311 312 314 315 317 318 318 319 318 318 322 320 321 321 320 319 321 320 321 324 325 326 330 337 338 339 340 341 344 347 348 348 348 344 346 350 349 350 349
308 308 309 309 310 310 311 311 312 314 316 317 318 319 318 317 319 321 321 321 320 320 320 321 322 323 325 328 329 332 331 336 339 342 344 346 348 347 348 345 348 348 350 349 349
307 308 308 309 310 310 311 311 312 313 315 317 318 318 318 319 319 322 322 321 322 320 321 321 323 323 325 331 331 329 333 337 340 342 343 346 347 346 346 349 350 350 350 349 349
306 306 307 308 309 310 311 312 312 312 314 316 317 318 319 320 319 321 325 323 323 322 321 320 322 324 328 330 328 338 341 341 340 342 344 345 349 348 347 350 350 350 349 349 350
306 306 307 308 308 309 310 312 313 313 314 315 317 320 321 319 323 327 326 322 324 321 321 320 323 323 324 328 337 340 341 343 341 342 344 343 345 347 349 350 349 348 349 349 349
305 305 307 308 308 309 310 312 313 313 314 316 321 323 325 324 325 326 325 323 322 322 322 321 323 323 324 331 340 339 343 343 343 342 345 344 345 346 349 350 350 349 348 349 349
304 305 306 307 307 309 309 312 313 314 319 323 325 325 324 325 327 325 326 324 322 323 321 321 321 323 326 333 336 341 344 343 345 343 345 346 346 349 349 350 350 351 350 350 351
304 305 306 306 306 308 309 313 315 317 316 321 322 325 325 323 323 324 326 325 322 322 323 321 322 322 326 332 335 339 343 344 343 342 344 346 346 350 349 349 350 351 352 351 350
302 303 305 306 307 307 309 308 311 310 311 316 317 316 318 319 320 322 324 325 323 324 319 321 322 323 326 328 333 340 342 344 341 342 344 345 345 347 349 348 348 349 350 350 351
302 302 304 306 307 309 307 310 311 307 310 314 316 317 319 317 319 320 322 325 325 326 321 321 322 322 325 328 330 338 341 342 343 341 343 345 345 348 349 348 347 347 347 348 348
302 302 303 305 306 306 309 309 307 308 318 321 320 321 321 320 321 321 321 325 323 326 322 321 321 322 324 329 330 333 336 340 342 343 345 343 345 346 348 351 349 347 347 347 347
301 302 302 302 303 305 305 307 308 314 322 321 322 323 322 323 320 322 322 324 326 324 323 324 320 322 324 327 329 333 333 335 339 342 342 346 344 341 347 350 351 348 347 346 346
302 302 301 303 304 305 306 306 314 320 321 322 325 324 323 323 323 323 322 323 325 326 321 325 321 322 325 327 329 328 330 331 336 338 339 338 343 338 348 348 347 346 346 346 345
302 302 302 302 304 304 305 306 317 320 319 321 323 322 322 324 324 323 324 325 327 329 328 326 324 322 323 327 329 329 331 333 336 337 336 336 345 341 341 344 345 345 345 344 345
302 302 303 304 304 304 304 310 316 318 319 319 321 321 321 322 324 322 324 325 327 328 328 327 326 324 324 325 328 329 331 334 336 336 335 335 341 339 340 339 340 343 343 344 344
302 303 304 303 304 306 306 308 313 316 321 322 322 321 321 321 322 323 325 325 327 326 327 326 326 321 323 325 328 328 330 331 333 328 332 335 339 334 337 338 338 340 342 344 344
300 302 303 308 312 308 308 308 311 316 320 317 320 321 322 321 321 322 323 324 326 325 327 325 325 323 323 324 325 327 328 329 329 337 335 333 334 333 339 339 341 341 342 343 345
300 301 303 313 310 307 309 308 309 312 316 316 318 320 322 319 320 321 322 322 322 324 326 326 324 322 322 324 324 325 326 327 330 331 335 334 333 335 340 344 341 341 340 342 344
299 302 305 308 312 308 310 309 310 312 312 313 316 318 318 318 318 319 320 322 321 322 322 324 325 326 325 324 323 325 327 329 330 333 329 331 332 332 334 337 337 338 338 340 344
302 302 302 309 311 313 313 313 314 315 316 316 315 317 317 317 317 319 320 320 321 322 325 322 324 326 325 325 324 324 325 327 328 330 336 331 331 333 332 333 333 335 339 339 341
302 305 307 308 307 310 312 313 314 315 317 318 318 319 321 322 322 323 321 323 323 321 322 326 329 329 329 328 326 324 324 325 326 329 329 330 330 332 334 337 338 337 337 339 339
303 306 307 313 312 312 310 310 311 313 316 316 321 321 322 322 322 323 323 323 323 324 331 331 330 329 330 331 327 326 324 325 327 329 331 329 331 333 339 340 340 337 341 339 340
304 306 305 306 308 310 310 311 312 314 315 316 318 319 320 322 323 323 324 325 327 330 332 324 333 325 326 328 327 326 326 325 326 326 328 329 332 332 335 335 337 338 341 340 339
301 301 302 304 307 309 311 311 312 311 312 314 315 315 317 319 320 321 322 325 328 331 335 337 331 334 332 326 326 326 327 326 327 328 328 330 331 335 333 335 336 338 340 341 338

GFSSW_850_thetae_012.txt.gz
Theta_e
309 309 310 312 313 315 316 317 317 317 317 319 320 320 319 319 321 322 322 323 320 319 320 328 336 343 343 344 343 344 345 344 344 345 347 343 345 346 347 349 349 347 346 346 346
308 309 309 309 310 312 313 315 316 317 317 317 319 319 319 319 319 321 323 320 320 320 325 336 338 342 341 337 338 342 345 343 341 341 346 344 344 347 348 348 348 349 348 347 346
308 308 309 309 309 310 310 312 314 315 316 317 317 319 319 319 320 323 322 320 320 319 330 332 332 337 332 328 332 337 342 342 342 340 344 345 345 346 345 349 346 349 350 348 347
309 309 309 309 309 309 310 311 311 313 315 316 317 317 318 318 323 321 321 321 321 319 328 328 328 328 327 329 330 336 335 336 338 340 344 346 345 346 344 343 344 347 349 348 348
307 308 308 309 309 309 310 311 311 312 313 315 317 317 316 322 322 321 320 321 321 321 323 325 324 326 327 330 330 333 333 333 335 339 343 345 346 346 345 344 346 348 349 348 348
306 307 308 308 309 310 310 310 311 312 312 314 316 316 315 321 321 320 322 322 327 325 323 323 323 324 327 329 332 333 333 334 336 341 344 346 347 346 345 345 348 349 349 348 348
306 306 307 308 309 309 310 310 311 312 313 313 315 315 318 320 320 320 319 325 328 326 324 322 323 324 326 330 330 333 338 341 341 344 346 345 350 349 346 347 350 350 349 348 348
304 306 307 307 307 309 310 311 312 312 313 313 314 316 323 322 320 321 325 325 323 328 325 324 322 324 326 331 332 336 338 342 344 345 346 346 347 347 348 348 350 349 349 348 348
303 305 306 306 307 308 309 311 312 313 313 313 318 321 325 325 325 327 327 325 325 325 323 323 322 325 326 331 336 338 340 340 346 345 347 347 345 346 348 348 350 349 347 347 348
302 303 305 306 306 308 309 311 312 313 316 320 324 327 326 325 328 326 328 323 325 325 323 323 324 327 328 331 337 338 339 339 342 346 347 347 347 348 348 348 349 349 348 347 347
302 303 304 305 306 307 309 310 319 322 322 325 325 326 325 325 326 326 327 323 324 324 324 322 325 326 329 332 334 337 339 340 340 345 347 345 345 348 349 349 348 350 350 348 346
302 302 303 304 306 308 308 311 311 311 314 316 317 318 321 322 322 323 326 325 325 326 325 324 324 326 328 330 333 336 337 339 341 345 346 345 346 346 348 350 348 349 350 350 347
303 302 303 304 305 307 308 313 308 308 315 318 318 318 319 319 321 322 325 326 326 326 325 325 324 326 327 328 332 336 337 338 343 345 345 344 347 346 345 347 348 348 348 350 349
302 303 302 304 307 305 312 309 307 308 320 324 322 322 322 322 323 322 323 325 327 326 326 324 325 325 325 327 331 336 335 337 341 344 347 345 346 343 344 347 349 349 348 346 349
302 303 302 302 302 306 309 306 306 312 324 324 324 324 325 326 325 324 322 325 327 327 327 326 324 324 324 326 329 334 335 337 338 342 343 346 347 342 343 346 348 349 348 346 344
302 302 302 303 303 305 305 305 313 322 323 324 325 326 326 326 325 324 323 324 326 327 327 327 325 324 325 326 328 332 334 336 338 339 343 343 345 341 341 345 343 346 347 347 344
302 302 302 302 306 303 304 308 318 321 322 323 324 326 325 325 326 326 325 326 328 329 328 326 326 324 324 325 327 331 335 339 341 340 341 341 343 341 338 339 340 340 344 347 344
303 303 304 304 304 304 304 312 317 320 321 323 324 325 325 325 325 326 325 325 327 328 329 328 326 326 325 325 328 330 334 338 341 339 339 339 341 340 339 337 336 339 341 346 346
301 303 305 304 303 305 309 312 316 318 321 321 323 325 326 325 324 326 327 326 326 328 329 329 328 327 325 325 328 330 335 335 337 337 337 337 339 338 337 338 339 339 341 344 346
300 304 306 305 308 310 311 312 316 316 318 322 322 323 324 325 324 326 327 326 326 328 329 329 329 328 326 326 327 330 332 335 336 342 339 337 337 339 338 336 336 341 342 343 345
304 304 307 308 312 311 312 312 314 314 315 319 321 323 323 324 324 325 326 326 327 328 329 330 328 327 327 325 326 328 331 333 335 335 337 339 337 336 336 336 336 337 341 341 344
304 307 307 309 313 313 314 315 312 313 313 315 318 320 322 323 324 324 325 325 325 328 330 331 330 329 325 326 326 328 330 333 335 338 336 336 336 335 336 335 334 334 335 337 341
305 304 305 307 310 312 314 314 314 314 314 314 315 317 319 320 323 322 323 322 322 324 328 330 331 332 330 326 325 325 327 330 332 334 340 337 336 334 334 336 336 338 337 339 342
304 306 306 310 309 311 313 315 315 314 315 316 316 316 316 318 320 321 322 322 322 323 324 325 329 330 331 330 328 327 325 327 329 334 334 334 336 335 334 334 334 333 336 338 344
305 307 309 308 313 314 315 315 314 315 315 317 317 318 318 319 320 321 322 323 325 325 328 325 334 333 330 330 329 328 327 326 327 328 333 333 334 335 335 335 333 332 333 339 344
305 307 307 307 307 309 309 310 314 314 315 317 319 318 318 320 321 322 322 323 323 324 326 329 336 335 334 332 331 331 330 329 327 326 328 329 331 332 333 332 332 332 333 336 345
304 303 303 304 305 307 308 310 311 313 314 314 316 318 320 321 322 323 323 324 326 326 328 331 333 337 336 332 333 333 333 332 331 328 327 328 329 330 333 332 333 332 335 338 343

GFSSW_850_thetae_015.txt.gz
Theta_e
309 309 309 309 310 311 313 315 316 317 317 317 317 319 319 320 320 320 325 325 324 320 320 338 340 338 340 341 342 343 346 346 343 347 341 339 341 342 345 346 345 346 348 349 351
309 309 309 309 309 310 310 311 313 315 317 317 317 317 318 319 320 322 322 323 322 320 322 335 336 336 340 340 342 342 348 346 341 344 343 341 339 342 343 345 346 346 347 349 350
308 309 309 310 310 310 310 310 311 312 314 316 317 317 317 319 323 324 322 320 320 320 328 332 333 337 338 338 337 338 346 344 341 340 344 342 341 341 342 344 345 347 347 348 349
307 308 309 309 309 310 310 311 311 311 311 313 316 317 317 317 326 327 323 321 321 320 331 332 332 335 338 337 334 337 338 337 339 340 341 343 342 340 339 342 343 346 346 347 349
306 306 307 308 309 310 310 311 311 312 312 312 313 315 316 324 323 324 322 320 320 325 331 330 331 332 337 333 334 336 338 336 336 339 340 342 343 342 339 340 343 346 346 347 348
305 306 307 307 308 309 310 311 312 312 312 312 312 313 314 323 322 324 323 325 329 329 327 328 330 330 332 332 334 336 335 336 336 338 340 343 343 343 340 342 344 347 347 346 347
305 305 306 307 307 308 309 311 312 313 313 313 313 312 320 323 322 322 327 327 328 328 328 325 327 327 328 332 332 334 337 339 338 339 341 341 343 344 341 344 345 347 347 345 345
304 304 305 306 307 308 309 310 312 313 313 314 313 313 323 324 324 323 322 323 325 327 327 325 324 326 328 330 333 335 337 340 339 340 342 343 346 343 343 344 345 346 347 345 345
303 304 304 305 306 308 309 310 312 313 314 314 316 323 326 326 325 323 323 324 326 325 328 326 326 325 327 330 334 337 338 339 340 340 344 344 348 344 344 343 343 345 345 346 346
302 303 304 305 305 307 309 310 312 314 318 317 325 329 326 328 327 327 327 326 325 326 326 326 325 328 328 332 335 339 339 340 344 341 345 344 347 346 346 344 343 344 344 345 345
302 304 304 304 305 307 309 314 322 327 327 327 329 327 327 326 328 326 327 326 325 326 327 325 326 327 329 332 334 337 339 338 341 340 343 344 345 346 347 347 345 345 343 344 344
303 303 305 305 305 307 310 316 316 313 316 318 320 322 324 326 326 326 327 325 325 328 327 326 326 327 330 332 334 336 338 340 340 340 343 344 345 346 349 347 347 346 345 344 344
304 302 304 306 306 311 311 316 313 313 317 319 321 321 322 322 323 325 326 327 326 328 327 327 326 327 329 332 334 335 337 339 340 345 344 344 346 345 345 347 347 346 347 346 344
305 303 303 305 310 308 314 314 312 312 320 324 324 323 322 322 324 322 324 327 328 327 328 327 328 327 328 330 333 335 336 337 339 343 347 342 346 346 344 345 348 348 347 347 345
306 305 303 302 304 310 311 310 311 314 324 327 326 325 325 325 328 326 324 325 329 329 328 328 327 327 327 329 331 333 335 337 338 342 347 342 343 342 343 344 345 347 348 348 346
304 305 303 306 308 310 310 310 313 321 325 327 327 327 328 327 328 327 325 325 326 329 329 328 328 328 328 328 330 332 334 337 337 339 343 345 344 346 344 344 344 343 346 348 348
302 303 304 303 308 311 309 311 318 322 326 327 327 327 328 328 328 328 327 327 328 329 330 329 329 328 327 327 328 330 333 337 340 339 340 342 343 348 343 342 342 341 342 345 348
301 302 306 308 310 309 309 313 318 323 324 326 327 328 328 328 328 328 328 327 327 329 330 331 330 329 328 327 327 329 332 335 341 340 340 339 342 342 343 340 339 338 338 341 346
302 306 308 309 311 309 311 314 318 321 325 325 326 327 328 328 328 328 329 328 328 328 331 331 331 330 328 327 327 328 331 333 336 338 340 340 340 340 341 341 340 338 337 338 345
304 308 309 310 311 310 313 315 318 320 323 323 325 326 328 328 327 328 329 329 328 328 330 331 332 331 329 328 327 327 330 333 338 344 344 339 340 340 341 340 339 339 337 338 342
308 308 311 311 312 313 316 315 316 316 318 320 322 325 326 327 329 328 327 328 329 329 328 329 331 332 331 329 328 327 328 332 334 337 340 341 341 339 341 340 339 339 336 337 340
307 312 309 310 313 314 316 317 316 318 317 318 319 322 325 326 326 328 328 328 328 329 329 329 331 333 331 331 329 328 328 329 337 340 337 340 339 338 338 338 337 337 336 337 337
308 309 309 308 311 312 314 316 317 317 318 318 318 318 322 324 326 326 327 327 326 328 330 330 331 333 334 330 329 329 328 329 330 335 343 340 338 337 338 338 337 336 335 335 338
306 311 310 309 310 311 312 314 316 316 317 318 317 318 318 320 323 325 326 326 326 326 326 329 332 333 335 333 330 329 327 328 329 333 335 336 337 338 337 337 336 335 336 336 336
306 309 309 312 313 312 313 316 315 317 317 317 318 318 318 319 320 322 323 325 325 325 326 328 332 333 332 332 332 329 327 327 328 330 334 334 335 337 338 338 337 334 334 334 334
306 308 307 308 309 310 311 312 310 311 314 315 317 318 319 319 319 320 322 324 325 325 326 327 331 332 332 331 330 331 331 329 328 327 329 330 332 334 335 336 336 334 334 334 334
305 306 306 306 308 309 308 310 311 312 311 313 315 317 321 320 320 321 323 322 324 327 328 329 331 332 334 333 334 333 331 331 331 331 329 330 330 331 334 336 336 335 334 334 334

GFSSW_850_thetae_018.txt.gz
Theta_e
310 309 310 310 310 310 311 311 312 313 315 316 317 316 316 318 320 320 320 325 326 324 322 337 339 341 341 339 342 346 345 348 347 343 340 340 339 344 346 345 345 349 348 349 349
309 310 310 310 310 310 311 311 311 312 312 314 316 317 317 316 318 320 319 323 324 324 320 330 336 339 337 339 341 343 350 345 345 343 341 340 339 340 342 343 345 349 349 349 348
307 308 309 310 310 311 311 311 311 312 312 312 314 316 316 317 318 325 325 323 322 322 322 327 332 336 335 339 341 341 343 342 343 342 341 342 340 339 342 343 344 349 350 349 348
306 307 308 308 309 310 311 311 311 312 312 312 313 313 315 316 325 327 323 321 320 320 325 327 330 334 336 340 339 341 341 341 342 342 343 342 339 339 341 342 344 349 350 350 348
305 306 307 307 308 308 309 311 312 312 312 313 313 313 313 323 324 323 323 322 322 320 327 329 331 333 336 339 338 336 336 340 336 336 339 342 341 339 340 342 343 346 348 349 349
304 305 305 306 307 308 309 310 311 313 313 313 313 312 312 321 322 324 323 325 323 325 327 329 331 333 334 337 337 335 336 337 336 337 338 343 342 340 339 341 342 345 346 348 348
304 304 305 306 306 307 309 309 310 312 313 314 313 312 317 320 324 326 325 326 326 329 327 328 330 331 332 334 335 334 335 336 337 337 339 342 343 342 340 340 343 345 345 346 347
305 305 306 306 306 307 308 310 310 311 313 313 313 312 319 320 324 323 323 327 328 328 328 328 327 328 331 331 332 333 334 336 338 338 340 340 346 341 341 340 342 345 344 345 346
306 306 307 307 307 307 309 310 311 312 312 313 314 318 325 325 326 326 325 324 324 326 328 328 328 326 329 330 331 333 335 336 339 339 341 341 347 345 342 341 342 343 344 344 345
307 307 307 307 307 308 309 311 312 315 317 319 320 330 330 328 328 326 325 324 324 326 326 328 327 328 327 330 332 333 336 337 341 341 341 347 348 342 341 342 342 342 343 344 344
309 309 309 308 308 307 310 314 322 326 327 329 329 325 327 328 328 328 327 325 326 327 328 329 328 328 329 329 332 333 337 338 341 341 340 349 347 344 343 344 342 342 342 343 345
310 309 310 310 308 307 311 318 318 315 316 317 320 327 329 328 329 329 327 328 327 328 328 328 328 328 329 331 331 333 335 339 341 343 343 344 351 347 347 345 343 343 342 342 342
309 309 309 311 309 315 312 313 317 314 316 318 319 319 324 328 328 328 328 328 327 327 329 327 327 327 328 330 332 333 335 337 339 341 342 341 342 346 345 345 345 344 344 342 342
307 306 305 309 311 313 314 316 313 314 318 322 324 322 321 322 324 324 327 328 329 327 328 329 328 327 327 329 332 333 334 335 337 342 344 342 346 349 346 349 347 346 346 346 343
304 305 305 304 307 309 314 313 313 315 323 329 327 325 324 324 326 325 324 326 329 328 327 328 328 327 327 327 331 334 335 336 336 339 345 347 346 347 347 349 350 348 346 346 347
302 303 303 306 308 312 311 312 314 319 323 328 328 327 326 325 325 329 325 325 326 329 329 328 329 329 328 328 329 332 333 335 336 337 341 344 345 346 348 346 343 346 346 346 347
303 303 303 303 310 311 312 312 316 320 327 328 329 329 328 327 326 329 327 325 327 328 330 330 329 329 329 328 328 329 330 336 338 340 340 341 347 347 346 345 344 343 345 346 347
305 305 306 308 311 310 311 314 318 323 323 328 329 329 328 329 328 328 329 328 327 328 329 330 330 329 329 328 328 328 329 335 339 339 339 340 341 346 346 344 342 343 344 344 347
305 307 310 310 311 312 312 316 319 322 325 326 327 328 329 329 329 329 329 329 328 328 330 330 330 331 329 330 328 328 328 330 333 335 338 339 339 338 342 345 342 341 341 341 346
305 308 312 312 312 313 314 316 319 319 321 323 324 327 328 329 329 329 330 329 329 328 329 330 332 331 331 330 330 328 329 328 330 337 340 339 342 343 344 347 345 343 341 339 338
308 310 311 312 312 314 317 317 317 317 318 319 319 321 324 328 329 329 329 330 330 330 329 328 331 331 332 331 330 328 328 328 329 332 337 341 342 343 346 348 347 344 340 339 338
307 310 312 312 313 314 316 317 317 318 318 319 320 320 321 322 326 329 330 329 330 330 329 329 329 333 332 332 331 330 329 328 329 335 333 336 341 339 342 342 344 342 340 338 338
307 308 308 309 313 313 313 314 314 316 318 320 320 320 321 321 324 325 328 330 329 329 330 331 330 333 331 332 333 331 329 330 328 330 335 336 338 338 342 339 341 341 339 339 339
306 309 308 310 310 312 313 314 314 314 316 318 320 320 321 321 322 324 325 326 328 330 327 332 330 332 333 334 332 332 331 330 329 329 331 334 337 339 343 343 341 340 337 338 336
305 308 308 310 311 312 311 314 315 316 316 317 319 319 320 321 320 320 322 324 327 330 330 329 332 332 331 331 333 333 331 330 331 332 332 332 336 339 339 345 342 339 336 336 338
305 307 308 308 308 310 309 310 310 312 314 313 315 317 318 320 321 320 321 323 327 328 328 328 333 332 332 332 332 333 332 331 330 330 331 331 331 334 337 337 342 336 336 339 337
304 305 306 308 308 308 308 308 310 310 311 313 313 315 316 315 315 315 316 319 323 327 331 330 329 334 333 332 333 334 334 333 330 329 329 330 333 335 335 336 340 340 336 339 337

GFSSW_850_thetae_024.txt.gz
Theta_e
307 307 308 309 309 309 310 311 311 311 311 312 312 312 312 315 317 316 316 317 318 319 320 334 342 347 354 355 345 340 345 350 345 345 348 348 350 351 350 350 349 351 348 346 346
306 306 307 307 308 308 309 309 310 311 311 312 312 312 312 312 315 318 317 317 316 318 322 330 334 347 353 353 351 343 343 346 341 341 345 346 349 349 351 351 352 350 348 348 347
307 306 307 307 307 307 308 309 309 310 311 312 312 312 311 312 313 320 323 322 318 318 325 326 325 338 339 343 348 345 344 341 343 342 345 347 349 349 351 352 351 351 350 349 348
310 309 307 307 307 308 308 308 309 310 310 311 312 312 311 311 314 326 323 323 318 324 324 324 326 325 325 333 343 342 343 341 341 342 342 344 349 349 348 348 346 348 350 350 349
311 311 311 310 309 309 309 308 308 308 309 310 311 311 311 311 315 321 322 321 322 323 322 323 325 323 324 325 328 335 335 341 341 341 341 341 341 349 348 348 348 350 351 350 350
315 313 312 312 311 310 310 310 310 309 309 310 310 310 310 310 319 319 320 320 321 321 320 321 323 323 325 327 328 331 332 333 337 340 340 338 339 343 347 349 351 351 352 351 351
316 316 316 314 312 312 312 311 311 310 310 310 310 309 310 317 319 322 321 323 322 322 323 322 320 325 326 327 330 331 330 330 329 333 339 339 343 349 349 348 349 352 352 352 352
312 313 316 316 316 314 314 313 312 311 311 311 310 309 312 318 320 320 319 323 323 322 325 324 323 324 326 328 327 327 326 327 329 339 340 337 341 349 349 348 347 350 353 352 351
310 310 312 314 315 316 315 314 311 313 315 312 311 312 315 318 321 323 321 324 325 325 327 327 326 326 326 324 322 323 326 326 326 336 340 338 340 340 349 349 348 347 348 350 350
307 307 310 312 314 315 318 312 315 321 322 320 321 321 319 321 325 325 323 325 323 324 327 327 327 322 320 319 323 325 325 325 326 330 340 339 340 339 349 349 349 349 348 348 346
303 303 305 310 312 315 318 314 315 318 317 316 321 318 318 323 322 326 323 324 323 325 322 323 323 325 322 321 323 325 325 325 326 329 339 340 339 338 347 348 348 348 348 348 347
305 304 304 307 310 314 312 313 313 312 310 313 314 317 318 320 325 329 325 323 323 321 319 320 321 322 323 323 322 323 324 325 325 327 339 340 341 337 341 344 346 346 346 347 347
305 306 306 305 310 312 313 314 313 313 310 312 314 315 315 317 321 325 328 325 321 319 319 320 321 323 325 325 324 323 323 324 325 327 343 341 342 342 338 337 341 344 345 345 346
305 305 305 306 310 310 313 313 313 313 309 312 314 316 315 317 317 322 327 325 321 322 320 320 323 324 324 326 324 321 324 325 326 327 334 339 341 343 340 335 337 341 343 344 344
304 304 305 305 306 307 311 312 312 313 318 322 319 319 317 317 320 323 327 324 323 322 321 323 324 324 325 326 325 324 324 325 327 326 327 331 339 339 341 341 337 337 342 342 344
304 303 304 305 305 309 310 312 312 311 316 319 321 317 316 317 320 325 325 327 326 324 323 323 325 324 324 325 325 325 322 323 326 326 328 329 338 338 340 341 338 339 340 342 343
304 303 303 303 305 307 308 311 309 312 317 323 317 316 316 316 318 320 327 326 325 322 326 326 325 323 325 323 323 322 319 320 323 325 327 326 335 338 338 340 339 341 341 340 342
304 303 303 303 303 304 310 308 311 315 316 317 316 318 320 318 317 319 318 327 325 319 319 325 326 325 323 322 324 320 319 320 322 324 326 325 333 336 336 340 341 342 342 341 340
303 302 302 306 311 307 310 311 310 313 315 315 315 316 317 318 317 317 318 319 325 321 320 319 323 324 326 324 323 322 319 319 318 321 323 325 328 328 333 336 340 342 342 341 340
302 303 303 308 306 311 308 311 311 313 314 315 315 316 316 317 317 317 316 319 320 321 321 320 320 321 324 325 326 322 320 320 315 320 322 322 327 330 329 334 336 340 342 342 342
302 305 303 305 304 311 309 309 313 313 314 313 314 314 315 316 317 317 318 318 320 321 321 321 319 321 323 323 325 325 322 318 318 319 321 321 324 323 326 328 334 341 343 343 343
303 302 302 306 303 305 310 309 311 312 313 313 313 313 313 314 314 316 318 318 319 319 318 319 319 320 321 322 325 325 324 319 322 319 319 322 324 327 325 326 332 337 341 343 344
302 304 304 306 303 303 306 309 309 311 311 312 312 311 313 314 316 316 318 319 315 318 318 322 318 321 320 320 320 323 324 323 314 316 321 322 322 322 322 326 338 338 339 339 340
303 302 304 305 306 305 306 309 309 309 310 310 311 313 313 314 314 316 317 316 314 316 319 316 321 321 324 324 322 322 324 323 322 323 322 322 322 323 322 326 328 330 331 340 339
302 302 304 302 304 305 305 307 308 308 308 309 310 312 312 314 315 316 316 315 314 317 314 314 316 320 320 322 324 325 325 325 323 324 323 324 319 319 320 320 323 327 334 339 339
303 303 303 304 304 303 304 307 308 308 308 309 310 310 310 311 312 313 313 312 312 313 312 312 316 317 323 325 324 325 325 326 325 325 323 321 321 319 321 322 327 329 329 336 339
303 303 304 303 302 301 302 303 304 306 308 309 309 309 309 308 310 309 310 310 310 312 312 313 314 316 320 323 324 325 326 326 326 325 324 322 322 321 322 325 328 331 334 336 336

GFSSW_850_thetae_027.txt.gz
Theta_e
307 306 306 306 307 307 308 308 309 309 310 311 311 312 312 312 313 314 316 316 316 321 328 329 339 343 349 354 349 341 341 346 346 346 348 350 350 349 350 348 345 347 343 343 345
310 309 308 307 307 307 307 308 308 309 309 310 311 312 312 312 313 315 319 318 317 316 320 332 342 353 354 353 352 342 340 341 340 340 347 349 350 349 350 347 350 349 344 345 347
311 310 311 311 309 308 308 308 308 308 308 309 310 311 312 312 313 319 322 322 317 316 318 322 345 352 353 347 350 343 346 341 341 343 347 349 349 350 349 348 350 346 345 347 348
315 315 313 312 311 311 310 309 309 309 308 308 309 310 311 311 313 324 321 322 320 316 322 330 340 345 336 341 345 346 343 344 343 341 343 348 349 349 348 347 348 343 344 346 348
314 314 315 316 314 313 312 312 310 310 309 309 309 309 310 311 315 320 321 320 318 315 323 324 327 337 323 323 338 346 343 340 341 342 341 347 348 349 348 348 347 347 346 347 347
313 313 314 315 316 317 315 313 313 311 310 310 309 309 309 308 319 319 318 319 319 317 320 323 324 325 323 322 325 327 333 332 333 334 341 347 348 348 349 349 349 348 348 347 347
310 310 311 313 314 316 318 316 315 314 312 311 309 308 309 315 319 319 318 319 320 322 322 322 322 323 323 322 325 328 329 328 328 331 337 344 347 349 347 349 350 350 349 348 347
305 305 307 310 311 314 319 320 317 314 312 312 310 309 309 315 317 318 319 320 320 320 321 322 322 322 323 325 325 325 325 327 329 334 335 339 343 346 347 349 351 351 350 349 348
306 305 305 306 308 310 318 319 314 314 317 318 311 310 312 315 316 318 320 320 321 322 321 322 325 323 323 323 321 321 326 326 326 335 337 336 339 347 348 349 350 351 351 350 350
306 306 307 307 307 309 317 315 315 320 320 320 320 318 317 318 325 326 323 320 320 323 323 325 325 320 317 318 324 324 324 324 326 329 338 337 339 348 348 349 351 351 351 351 351
307 306 306 307 308 310 314 314 314 315 313 316 321 320 319 320 322 325 325 320 323 322 320 323 323 321 322 319 321 324 325 324 325 329 338 337 337 349 347 346 347 350 351 352 351
304 305 306 307 308 311 310 311 310 309 308 314 317 314 318 318 318 323 324 321 319 318 320 319 323 323 322 321 322 322 323 323 323 328 336 335 338 340 348 347 346 347 348 350 351
303 303 304 305 308 310 310 310 310 310 307 312 315 315 314 316 318 321 322 322 320 319 318 322 320 321 323 323 322 321 321 323 323 325 336 337 339 338 347 348 348 347 347 347 347
302 302 303 304 307 307 310 310 310 311 308 312 312 314 314 316 317 319 323 322 320 321 318 317 319 321 322 323 322 321 321 323 324 324 324 336 342 339 344 348 347 347 347 347 347
302 302 302 302 303 304 308 309 311 311 319 321 316 315 314 316 318 318 320 325 321 320 318 319 319 320 322 323 322 324 323 323 324 323 324 328 336 334 339 344 342 343 345 346 346
303 302 302 303 302 305 304 308 312 311 316 318 318 315 314 315 316 319 322 325 324 320 319 321 322 320 321 322 322 324 323 320 322 320 323 325 326 327 340 339 338 336 342 344 344
303 302 302 302 303 302 303 308 308 311 315 319 315 315 316 315 316 320 321 322 322 322 321 321 321 321 322 322 322 322 318 320 319 321 324 321 326 327 330 338 338 337 337 342 343
303 303 302 308 308 306 303 306 309 314 313 314 315 314 317 316 316 316 323 323 323 320 322 323 324 322 320 322 322 319 319 317 319 320 323 322 326 327 330 335 338 339 339 338 341
303 302 303 306 305 308 309 308 309 311 314 314 315 315 315 315 315 316 314 324 325 319 321 321 323 322 324 321 323 321 320 319 317 319 319 322 323 325 329 332 334 337 337 338 339
303 302 303 305 305 306 306 308 309 312 313 313 314 313 313 314 315 315 316 316 317 322 319 318 320 319 323 323 320 321 316 320 311 321 322 318 322 323 327 329 330 336 337 339 339
303 303 303 304 306 308 307 307 310 311 312 312 312 312 313 313 314 314 316 317 318 318 317 316 316 320 320 320 324 322 320 317 315 314 320 319 321 320 324 327 329 332 338 340 340
303 300 303 304 302 301 304 305 310 310 311 311 312 311 312 314 314 313 314 316 316 317 318 317 312 320 322 319 322 322 323 317 318 318 316 321 320 323 322 324 324 328 334 338 341
303 302 303 305 303 303 304 307 309 309 308 309 310 310 312 313 314 316 316 316 315 315 319 318 316 316 317 318 318 320 321 322 320 316 322 320 320 318 321 324 329 329 337 337 338
302 301 304 304 304 304 304 306 308 308 308 308 310 312 312 312 312 314 315 316 313 314 318 314 313 317 319 318 319 318 321 322 321 322 323 322 321 321 320 320 321 330 330 336 340
302 302 301 301 302 302 303 305 308 308 308 308 308 309 311 312 313 314 313 313 312 314 311 311 315 315 317 318 320 321 320 321 320 323 323 324 318 318 319 319 319 326 325 326 332
303 303 303 302 303 301 301 305 307 305 306 308 309 307 308 309 310 309 310 310 311 311 309 309 315 314 317 319 320 322 321 322 322 323 321 322 318 317 320 321 320 324 326 326 328
303 302 303 304 303 303 302 303 303 304 306 307 306 306 307 308 307 307 308 309 308 310 309 311 314 315 317 317 319 322 322 322 322 322 322 322 321 318 318 318 318 322 324 325 326

GFSSW_850_thetae_030.txt.gz
Theta_e
310 310 310 310 309 308 308 308 308 308 309 310 311 311 312 312 313 313 315 317 316 315 325 335 339 342 348 352 352 343 339 343 346 347 347 350 349 348 348 347 345 346 344 343 342
314 314 312 311 311 311 310 309 308 308 308 309 309 310 311 311 313 315 319 318 316 315 325 334 343 345 350 353 352 342 340 342 339 340 345 349 349 348 348 346 349 347 343 343 342
315 314 315 315 314 313 312 311 310 309 309 309 309 309 310 310 312 318 321 321 318 316 324 331 345 349 350 350 350 343 347 340 341 345 345 349 349 349 347 346 348 347 343 342 342
312 312 311 312 315 316 315 313 312 311 310 310 309 309 309 309 313 322 320 322 319 316 320 333 349 352 347 346 349 346 343 344 343 341 348 348 349 348 345 344 344 348 340 343 345
309 310 309 309 310 313 314 316 315 313 312 311 310 309 308 309 314 319 320 319 320 316 318 327 349 349 331 335 344 346 342 341 341 341 341 347 348 349 348 345 347 345 342 344 346
307 307 307 307 309 310 311 313 316 316 314 313 311 310 307 305 316 317 318 318 320 317 319 323 339 346 327 327 334 333 339 339 337 335 336 343 348 348 349 347 347 344 346 346 345
306 306 307 307 307 308 310 313 315 319 317 315 311 309 307 312 316 317 316 319 317 315 321 324 328 331 326 322 323 324 325 326 327 328 331 340 348 349 348 348 346 346 347 347 345
307 307 307 307 307 308 311 315 318 320 316 313 312 309 308 314 314 314 316 316 318 316 318 323 324 324 322 323 323 323 324 325 326 328 329 344 347 347 348 349 348 347 346 346 346
304 305 305 307 307 308 310 315 317 316 316 318 314 309 311 313 314 316 317 318 318 319 319 321 322 322 322 321 319 320 324 324 326 327 336 340 338 343 347 349 349 348 347 347 346
303 303 304 304 305 311 310 313 316 320 321 318 318 314 316 317 321 317 316 316 316 317 322 323 323 319 316 317 319 322 322 323 325 329 335 336 336 342 347 349 349 349 348 348 347
302 302 303 304 304 310 311 313 313 313 312 320 322 317 318 318 323 323 323 316 318 320 319 322 321 322 320 318 320 322 323 325 324 326 336 335 337 346 347 348 349 349 349 349 348
302 302 302 303 303 308 311 310 306 306 307 313 316 315 319 319 318 323 322 317 319 318 317 317 322 322 321 319 321 321 322 322 322 323 333 333 335 345 347 347 348 349 349 349 348
301 302 302 302 303 305 308 308 306 308 306 311 313 313 314 316 316 318 320 318 317 317 319 321 320 322 323 321 321 320 322 322 324 323 329 334 334 338 347 346 347 349 349 349 349
300 301 302 302 303 303 306 307 305 310 306 311 311 313 313 315 314 318 322 320 319 321 316 318 320 323 321 323 320 319 319 322 322 321 323 330 332 336 340 347 345 345 348 349 349
300 301 302 302 302 302 304 304 307 309 318 319 312 313 315 316 317 316 320 320 318 318 317 319 317 320 322 323 320 323 321 320 321 320 321 325 330 331 335 348 348 346 346 346 348
300 300 301 302 305 306 304 303 310 311 317 318 314 313 313 314 314 318 319 322 321 319 319 318 319 320 319 320 321 321 322 317 317 317 321 321 326 322 339 341 346 346 347 347 346
300 300 302 307 304 306 307 305 308 311 314 316 314 314 314 315 314 316 318 321 320 319 319 320 320 319 318 320 320 321 318 320 321 321 324 319 322 326 328 337 341 343 344 346 347
300 301 302 306 304 305 304 305 309 312 312 313 314 313 315 314 315 315 317 321 320 320 319 320 320 320 319 319 319 318 317 318 322 320 323 318 322 323 324 332 337 339 340 341 343
300 301 304 303 305 303 308 306 308 310 313 313 313 314 314 313 315 315 314 320 322 318 320 318 320 321 320 320 320 318 320 316 316 316 316 318 320 322 324 325 333 335 337 338 337
301 302 303 304 305 305 305 306 307 310 310 311 312 312 312 312 313 312 314 315 317 317 315 319 321 320 321 320 320 318 316 320 312 321 320 318 319 324 325 327 327 332 335 337 337
302 303 303 303 305 307 303 305 307 309 310 310 311 311 311 312 313 312 313 316 315 317 316 314 316 319 319 321 322 318 317 315 317 314 319 318 320 317 323 325 326 328 334 335 337
302 299 303 305 301 300 302 303 306 308 308 309 309 311 313 313 313 313 316 316 314 315 319 318 310 318 319 319 321 323 321 314 318 317 312 315 320 319 319 323 324 326 328 331 333
302 302 303 303 301 300 302 304 306 308 307 307 308 311 311 312 312 314 315 315 313 315 318 316 314 315 316 318 318 319 321 316 319 314 320 319 321 321 318 320 323 324 327 331 332
302 299 303 303 302 302 301 302 306 307 309 307 307 309 309 311 311 312 314 314 312 315 316 313 312 314 318 319 317 317 318 319 320 322 322 320 319 320 319 320 320 324 326 328 335
302 301 302 299 300 303 301 302 306 305 306 307 309 307 307 309 310 311 311 310 310 312 310 310 315 315 316 316 317 318 319 319 319 321 322 323 322 321 319 318 320 325 326 330 329
302 303 302 302 302 303 302 301 303 303 304 306 309 306 306 307 308 308 307 309 309 309 308 307 314 314 316 317 317 318 319 320 320 319 319 321 320 317 320 321 320 322 323 324 326
302 302 302 303 302 303 302 303 303 302 304 307 306 306 305 307 306 306 306 307 307 308 308 308 312 313 316 316 317 319 319 319 319 319 319 320 320 319 318 318 319 321 324 324 326

GFSSW_850_thetae_033.txt.gz
Theta_e
318 317 317 315 312 311 311 310 309 309 309 309 309 310 311 312 312 313 315 317 316 315 319 325 334 342 351 352 350 345 345 350 346 349 348 351 351 349 348 347 345 347 346 345 346
317 317 318 317 317 316 314 312 311 310 310 309 309 309 310 311 312 315 320 318 317 315 316 329 343 347 349 351 351 343 350 348 343 345 343 350 350 349 349 346 346 347 346 344 346
313 314 314 313 315 316 317 316 315 313 312 310 310 309 309 309 311 318 320 320 318 316 315 335 345 347 348 351 352 350 351 347 342 344 346 350 350 349 349 348 346 348 346 346 346
308 308 308 308 308 311 313 314 316 316 314 312 311 310 309 308 316 318 320 320 320 316 320 345 346 345 347 351 352 350 348 347 345 344 348 350 350 350 348 345 344 347 346 346 346
307 307 307 307 307 308 309 311 314 317 317 314 313 311 309 308 312 318 318 317 319 319 329 344 345 346 347 348 349 352 347 343 344 343 341 348 350 350 349 346 346 347 346 346 345
306 306 306 307 307 308 308 309 312 317 319 317 314 313 309 308 313 316 317 317 320 330 335 341 344 346 342 338 344 338 343 339 332 334 336 342 344 349 349 347 348 347 346 346 345
303 304 304 304 304 306 308 310 314 316 319 319 316 313 309 312 313 315 316 317 318 321 333 333 335 339 335 327 330 327 327 328 328 329 331 334 341 349 348 349 348 347 346 346 345
302 302 303 303 303 305 310 311 315 317 319 319 314 311 309 313 312 315 316 316 318 323 329 328 327 338 324 323 324 326 327 330 329 329 330 335 336 342 348 349 348 347 346 347 346
302 302 302 303 303 304 310 312 315 319 317 316 315 311 312 312 312 313 314 316 318 323 323 325 326 326 323 325 324 324 327 329 330 329 334 338 336 339 348 349 349 348 347 347 347
300 300 301 302 303 304 310 312 313 313 320 318 316 312 314 315 314 313 312 316 322 325 324 323 323 325 324 324 325 324 325 326 329 331 336 338 340 341 347 349 350 348 347 347 347
300 300 300 301 302 304 310 312 311 312 310 322 322 316 319 318 323 315 314 320 319 321 321 322 323 324 324 323 323 323 324 328 328 328 336 337 339 341 347 349 350 350 348 347 347
299 300 300 300 301 303 308 308 304 304 308 313 315 315 320 318 319 321 314 316 318 319 321 323 323 323 323 323 323 322 323 326 327 327 329 332 338 339 347 349 349 350 350 349 348
299 300 300 300 302 302 304 306 304 303 308 311 312 312 314 317 317 319 316 316 319 320 320 322 322 322 323 324 324 324 323 324 326 327 328 332 333 337 344 347 348 350 350 349 349
300 300 300 301 302 303 305 306 303 306 312 316 312 313 313 316 317 317 318 318 319 320 321 321 323 323 323 324 324 324 323 323 324 326 330 332 335 337 339 349 349 348 350 350 349
300 300 301 301 304 304 304 306 303 307 318 318 313 312 313 317 317 317 319 320 321 321 322 322 323 323 324 324 325 324 324 323 324 327 328 329 332 334 339 347 349 348 349 349 349
300 300 301 304 304 304 305 306 308 313 318 319 314 314 315 316 316 317 318 320 321 322 322 322 320 323 325 325 325 325 325 325 325 326 328 329 330 333 335 339 344 347 347 348 349
300 301 302 304 304 304 305 304 312 315 316 318 317 316 316 317 316 319 320 321 323 323 324 323 322 322 324 325 325 325 325 327 327 327 327 330 330 332 333 335 336 343 346 347 347
300 301 303 303 304 303 305 307 313 313 314 314 315 316 317 316 317 317 320 322 324 323 324 324 324 323 323 325 324 325 325 324 326 326 326 328 330 331 330 330 334 336 341 346 347
301 301 303 303 302 303 306 306 310 312 311 312 314 317 317 315 315 317 320 322 324 323 324 324 324 322 322 323 324 324 327 325 324 322 324 327 328 328 329 331 333 336 338 342 344
301 302 303 303 305 305 306 308 309 309 310 311 313 313 315 315 317 317 320 318 321 320 320 324 325 324 323 323 324 324 324 323 325 324 325 326 327 329 333 332 332 334 336 338 340
302 302 303 304 304 305 306 306 306 308 309 311 312 313 313 314 315 315 318 317 315 319 321 321 323 323 324 324 324 322 325 324 325 324 324 324 325 328 332 336 335 334 333 335 337
302 303 303 302 304 303 304 304 305 307 309 309 310 313 314 314 315 317 318 317 313 318 322 320 321 326 325 325 325 324 325 325 325 327 325 325 325 326 328 330 333 332 332 334 337
302 301 302 302 304 304 304 304 305 308 309 309 310 311 312 314 315 316 317 314 314 318 319 319 322 327 326 325 322 325 325 325 326 326 328 325 325 327 326 326 328 329 330 328 328
302 304 302 302 301 302 302 304 305 306 307 308 309 308 310 313 313 314 314 313 312 315 316 316 319 324 327 326 322 324 324 325 326 328 327 327 326 327 327 327 329 328 327 328 328
302 303 302 303 303 303 303 303 305 305 304 306 308 308 307 311 311 312 311 311 312 312 313 316 319 318 319 318 319 321 321 322 324 327 329 327 328 327 327 328 328 328 329 327 328
302 303 302 301 303 304 303 304 304 304 303 304 308 308 307 309 309 310 308 311 311 312 312 312 316 316 317 316 318 320 321 321 322 323 323 325 327 327 326 327 328 327 328 327 327
302 302 302 302 303 304 304 304 304 304 304 305 304 305 305 307 305 306 306 306 308 309 310 312 313 315 316 317 318 320 321 321 322 322 323 324 325 325 326 327 327 326 327 328 326

GFSSW_850_thetae_036.txt.gz
Theta_e
318 318 318 317 317 318 318 316 313 312 311 310 309 309 309 310 310 312 314 317 316 315 318 338 345 348 350 352 352 349 350 350 348 350 349 352 352 350 348 348 347 348 349 348 348
314 313 312 312 312 313 316 317 317 316 314 312 310 310 309 309 310 312 318 317 316 315 328 338 344 347 348 348 351 350 350 348 345 344 345 350 351 351 349 347 347 349 348 348 347
308 308 308 309 309 309 310 312 314 315 317 315 313 311 310 309 312 317 318 318 317 316 327 337 339 344 343 346 350 348 349 347 343 343 348 349 351 350 349 348 347 349 348 348 347
306 306 306 307 307 308 309 310 311 312 315 317 316 313 311 309 320 320 319 319 318 319 328 333 338 341 342 347 348 351 347 347 344 343 345 350 350 351 349 346 346 349 348 349 348
303 303 303 304 304 305 306 308 310 313 314 315 318 315 312 315 314 315 318 317 319 327 330 334 340 339 341 343 346 349 347 343 343 343 342 343 347 347 350 346 346 348 348 349 349
302 302 303 303 303 304 305 306 312 313 315 315 318 317 313 315 314 314 317 316 321 331 331 335 338 337 337 342 345 343 344 342 338 337 337 339 343 345 346 348 348 348 348 348 348
301 301 301 302 303 303 304 306 312 315 317 317 318 317 315 316 313 313 321 325 332 332 331 334 336 337 339 340 336 340 335 334 334 333 334 335 338 340 344 349 350 349 348 348 347
300 301 301 301 302 303 304 308 312 315 317 318 318 315 318 316 315 316 324 327 334 332 330 333 335 338 335 331 329 334 331 334 335 334 332 334 339 339 343 348 351 350 349 348 347
300 301 301 301 302 303 305 309 312 313 316 316 315 317 320 315 313 315 325 326 334 333 331 331 332 336 335 331 331 330 336 337 337 334 335 335 339 340 342 348 350 350 349 348 347
300 300 301 301 302 303 306 310 312 312 318 318 318 317 317 318 317 313 319 323 334 329 329 330 329 333 336 335 334 334 333 335 338 336 335 338 339 338 343 347 349 350 350 349 348
300 300 301 301 302 303 304 311 316 320 313 323 326 321 321 319 319 315 314 327 331 326 326 324 326 328 328 329 331 332 333 334 335 335 334 336 338 338 343 347 348 350 350 350 349
300 300 301 301 302 303 307 309 306 305 309 311 313 318 322 321 323 317 317 323 326 329 325 324 325 325 326 327 327 329 329 332 334 333 332 336 338 338 343 347 348 349 349 350 350
300 300 300 301 301 305 308 307 307 306 311 314 315 315 316 318 321 320 319 321 325 326 324 324 324 325 325 326 327 327 329 331 332 333 332 333 336 337 338 344 346 348 349 349 350
300 300 300 301 306 306 307 306 307 307 316 319 317 317 317 319 321 322 317 321 323 325 325 325 325 324 325 325 326 328 327 328 329 331 333 335 339 339 338 341 343 344 349 349 350
301 300 300 302 304 307 305 306 306 309 317 321 317 315 317 321 324 321 320 320 322 323 325 324 324 324 325 325 325 325 326 327 328 328 331 333 335 337 338 339 341 343 345 349 350
300 301 301 305 307 305 305 305 309 315 316 322 316 317 318 319 322 322 322 318 320 323 324 325 324 324 325 325 325 325 326 326 327 327 331 333 335 337 338 339 339 341 344 347 349
300 301 302 302 305 304 303 308 312 315 318 321 320 320 320 320 322 322 323 324 326 326 325 324 325 325 325 326 326 325 327 328 327 328 329 332 334 336 336 337 338 339 341 346 349
301 301 303 304 304 304 306 311 310 315 317 316 317 318 320 321 320 322 323 325 325 326 328 327 326 325 326 326 327 326 327 327 329 328 328 330 333 335 335 334 334 335 336 342 347
302 304 305 304 304 306 308 309 310 314 313 313 316 320 322 320 320 321 322 325 325 327 329 329 328 326 326 326 327 328 328 327 327 328 329 329 330 331 333 334 335 334 335 337 345
303 305 305 304 304 308 308 307 310 309 310 313 316 317 320 320 321 322 322 322 325 326 327 328 330 327 325 326 327 328 327 327 327 329 329 328 330 332 333 333 334 335 336 336 340
306 306 305 304 305 306 307 306 307 306 308 311 313 315 317 318 319 321 323 320 320 325 324 327 329 330 327 326 327 327 328 328 328 328 329 329 329 331 332 334 334 335 335 336 339
305 307 304 305 307 306 307 306 305 307 307 310 311 311 315 317 319 320 323 321 317 321 325 326 328 331 328 327 326 327 327 328 328 330 328 329 329 329 330 331 334 333 334 335 336
305 305 304 304 306 306 306 306 306 307 308 309 311 312 313 315 318 318 320 316 315 320 325 326 327 331 330 329 327 327 327 328 328 329 331 329 328 330 330 331 331 332 333 334 335
305 307 305 305 305 306 306 306 306 305 306 306 309 310 313 313 314 316 317 315 314 315 316 319 327 330 332 330 329 328 328 328 328 331 329 331 330 329 328 330 330 329 330 332 334
305 306 305 306 306 306 305 306 306 306 305 305 308 307 309 313 313 314 314 314 315 314 317 320 327 326 329 326 325 329 328 328 329 329 330 330 331 331 330 330 330 330 329 329 331
305 305 305 305 304 304 305 306 305 305 305 306 308 306 306 310 311 312 312 313 314 315 315 316 324 323 325 323 323 325 326 327 328 329 330 330 331 331 330 329 329 329 329 329 330
305 305 305 304 305 305 305 304 304 304 305 305 306 306 306 307 307 308 308 309 311 312 314 315 318 321 326 324 323 325 326 327 327 328 329 331 330 330 330 330 329 329 329 329 330

GFSSW_850_thetae_039.txt.gz
Theta_e
310 310 310 310 310 311 311 315 317 317 317 315 312 311 310 310 310 311 313 318 317 316 317 331 341 348 349 350 352 353 355 352 346 347 348 346 346 346 348 349 349 350 351 350 350
307 308 308 307 308 308 309 310 311 313 315 317 316 313 311 310 310 315 317 318 317 316 326 333 338 345 347 347 349 351 355 350 345 345 346 347 344 345 347 348 348 350 351 350 350
303 304 304 304 305 305 306 308 309 311 312 315 318 316 313 311 318 320 320 319 317 316 324 334 338 344 345 344 346 348 351 349 344 345 345 345 346 344 345 348 348 351 351 349 350
302 302 303 303 303 304 304 305 306 307 311 313 315 318 315 312 323 327 318 318 318 317 323 333 337 343 345 345 344 348 346 347 344 344 347 347 346 346 344 343 347 349 350 349 349
301 301 302 302 302 303 304 305 305 306 312 313 315 315 315 319 318 319 318 319 319 320 323 331 335 340 344 342 343 346 347 346 346 344 344 346 347 350 346 343 345 348 349 349 349
301 301 301 302 302 303 303 305 306 308 313 316 316 314 315 321 319 319 320 319 320 325 324 328 333 337 340 341 343 344 345 346 343 343 342 343 344 344 348 346 348 348 350 349 349
301 301 302 302 302 303 303 304 306 309 314 317 317 314 320 322 319 316 317 325 324 326 325 328 330 337 339 340 341 343 344 346 345 342 339 340 342 345 347 348 349 349 348 349 349
301 301 302 302 303 303 303 304 306 310 314 316 316 314 323 323 322 318 319 325 327 329 328 329 330 336 338 340 338 343 343 344 341 340 338 338 341 340 343 350 350 350 349 348 348
301 301 302 302 302 303 303 304 309 311 313 316 318 321 326 323 320 321 320 325 328 331 332 330 333 336 337 340 340 337 343 344 340 339 339 338 340 340 341 347 351 351 350 348 347
301 302 302 302 302 303 304 310 312 315 321 321 323 323 323 323 322 319 320 326 331 332 332 331 333 336 339 341 339 336 340 340 340 339 338 338 339 341 341 345 348 351 351 350 348
301 302 302 302 302 303 309 313 315 323 323 325 326 324 326 324 320 318 324 326 331 332 335 332 336 339 335 340 338 335 338 339 341 339 339 339 340 340 341 345 347 350 351 351 349
302 302 302 301 304 307 310 310 310 309 311 312 313 315 323 324 324 318 325 325 333 335 333 334 336 333 332 333 337 338 338 340 339 338 339 339 340 339 341 345 347 349 350 350 350
302 302 302 301 307 309 310 308 308 309 312 313 315 315 318 324 325 324 320 323 333 334 330 330 331 330 328 331 336 335 336 337 338 338 338 338 339 340 340 343 347 348 349 350 350
301 301 301 302 307 309 309 307 308 310 315 318 319 319 317 321 325 325 318 323 333 335 330 328 328 327 327 328 329 331 332 334 334 337 340 337 339 339 339 342 345 348 348 349 350
302 301 301 305 308 310 307 306 308 311 318 322 320 319 320 321 326 325 322 321 327 328 332 329 326 327 327 327 327 328 329 331 332 334 336 338 340 339 339 340 343 344 346 348 348
302 301 301 306 308 307 306 307 310 316 318 323 320 321 321 322 324 326 324 320 324 327 329 329 326 328 327 327 327 328 328 329 331 332 335 336 337 339 338 340 341 341 341 345 348
302 302 303 307 307 306 307 309 312 313 319 322 321 322 323 324 324 327 326 322 326 326 328 328 329 327 327 328 327 327 328 328 329 332 333 334 336 337 338 338 339 340 341 341 346
302 306 308 307 306 306 308 312 311 312 317 316 316 318 320 323 324 327 327 328 324 326 328 328 329 328 328 328 328 327 327 328 330 330 330 332 336 336 336 337 337 338 339 341 343
304 308 308 306 306 306 309 310 311 314 312 312 314 321 322 324 324 326 326 328 328 325 327 330 330 329 328 328 328 329 330 328 329 331 330 330 332 333 335 336 337 338 338 339 342
308 308 309 305 306 308 311 310 309 309 309 310 312 317 320 323 324 325 326 326 328 326 327 331 333 331 328 328 328 330 330 328 329 333 332 331 333 333 334 336 337 338 338 337 340
309 309 308 305 308 309 310 309 309 307 307 309 310 312 315 317 320 325 326 325 325 327 328 330 333 333 332 329 329 329 331 329 329 330 331 333 333 333 335 336 335 337 336 336 337
309 312 308 306 309 309 309 308 307 308 307 309 310 311 312 315 318 321 324 325 319 323 328 329 331 333 333 329 329 329 330 331 331 333 330 332 333 332 333 334 335 335 336 336 337
309 309 308 307 309 309 309 308 308 308 307 308 309 311 312 315 318 320 322 320 318 322 327 329 331 334 335 332 330 330 330 330 331 331 333 331 332 333 332 332 334 335 335 336 338
309 311 309 308 308 308 308 308 308 307 307 307 309 309 311 313 314 318 319 319 317 318 317 322 329 333 336 335 331 330 330 330 331 334 332 333 332 332 332 334 334 334 335 336 337
309 309 308 309 309 308 308 307 308 308 307 306 309 310 309 312 313 314 316 318 318 318 321 324 330 331 332 333 332 331 330 330 331 331 332 332 333 333 333 333 333 332 333 334 335
307 307 306 307 307 307 307 308 307 307 306 307 308 307 308 311 311 312 313 315 317 318 319 322 326 330 333 332 331 330 332 331 330 330 331 332 333 333 333 331 331 331 331 331 332
305 304 305 306 307 308 308 307 307 306 307 307 308 308 307 308 308 309 310 311 312 315 317 319 324 329 332 331 330 331 331 332 331 331 331 332 333 333 333 333 332 332 332 332 332

GFSSW_850_thetae_042.txt.gz
Theta_e
304 304 304 304 305 306 306 307 309 311 313 315 317 316 313 311 311 310 313 317 318 318 316 329 328 342 348 351 348 349 359 361 351 348 347 346 349 349 348 353 352 353 352 352 350
302 302 303 303 303 304 304 304 305 306 309 310 314 316 316 313 312 313 318 318 317 318 317 327 330 342 348 348 348 350 353 353 348 345 347 345 344 347 347 348 352 352 353 351 350
302 302 302 302 302 303 303 304 305 305 305 307 312 313 315 314 315 319 321 320 318 318 319 327 331 341 346 346 347 348 351 347 348 345 346 346 344 345 346 348 352 353 352 352 350
302 302 302 302 303 303 303 304 304 305 305 307 312 313 313 314 325 328 321 321 319 317 321 327 332 337 345 346 345 348 344 345 346 346 347 347 346 345 344 346 352 352 351 351 350
302 303 303 303 303 303 304 304 305 305 306 308 313 314 312 319 318 321 320 319 319 317 323 326 333 337 344 344 344 345 345 346 345 346 346 344 346 343 344 346 350 351 351 350 350
302 302 303 303 303 304 304 305 305 305 307 310 315 316 312 323 324 322 323 319 320 319 324 323 332 335 341 343 344 344 344 346 347 344 347 348 347 344 344 344 348 350 350 350 349
302 302 303 303 303 304 304 305 305 306 308 311 315 316 317 322 324 320 322 324 323 321 321 324 328 334 338 342 342 342 344 345 346 343 343 341 350 349 344 345 346 349 350 348 348
302 302 302 303 303 304 304 304 305 311 313 311 316 314 320 326 324 321 318 320 324 323 323 325 325 331 335 339 341 342 344 347 345 345 342 340 343 349 345 347 348 348 349 349 347
302 302 303 303 303 304 305 310 312 313 316 315 319 320 326 327 326 325 321 319 326 326 326 327 326 329 332 340 343 343 345 347 346 344 343 340 340 340 348 347 349 349 348 348 349
302 302 303 303 304 308 310 312 314 316 325 320 324 325 325 326 326 325 325 321 326 328 329 329 329 330 333 339 346 344 342 344 345 342 341 341 339 342 341 349 350 350 349 348 348
302 302 302 302 305 309 311 311 311 321 314 320 326 323 327 328 325 324 324 322 326 329 333 332 332 335 334 337 340 341 340 339 342 343 340 340 340 342 341 343 350 350 351 349 348
302 302 302 303 306 310 312 311 309 309 311 312 313 315 319 325 325 323 322 323 328 331 333 334 335 333 334 336 338 340 339 336 339 340 341 340 340 339 343 344 350 351 352 351 349
302 302 302 303 308 311 311 309 308 310 311 311 313 314 314 318 323 327 321 324 329 332 334 335 334 333 334 336 336 339 339 337 338 341 341 341 341 341 341 340 345 349 350 351 350
302 302 302 303 308 311 310 308 308 310 312 316 318 318 315 316 322 327 321 327 329 331 335 334 334 333 334 335 333 338 339 338 338 340 342 340 342 344 340 342 346 347 349 351 351
302 302 302 307 307 311 308 308 309 311 316 322 321 320 320 317 324 325 326 326 328 331 335 336 333 333 334 333 332 332 333 337 337 337 338 339 340 340 340 341 346 347 348 349 351
303 302 303 308 310 309 307 308 310 314 314 322 321 321 322 320 320 324 327 325 326 329 334 335 331 330 329 330 329 329 332 333 333 335 338 336 339 342 341 342 341 344 348 348 350
304 304 306 308 309 307 308 310 312 313 315 317 316 316 317 321 323 322 328 329 325 326 336 335 335 330 329 328 328 328 328 330 331 334 334 335 336 340 339 341 341 345 343 348 348
307 307 309 310 308 307 308 312 312 312 313 313 312 313 317 321 323 324 324 329 325 325 330 332 333 333 328 328 329 328 328 329 333 332 331 333 336 337 337 338 338 341 341 343 346
308 310 312 310 308 308 310 313 312 311 311 310 310 312 314 317 320 324 326 328 328 324 331 332 331 331 330 329 330 328 329 328 328 330 330 331 332 333 337 337 338 337 340 342 344
309 311 312 310 308 310 312 312 311 311 310 309 308 310 310 312 315 319 323 327 328 325 326 329 331 330 330 330 329 329 329 328 329 332 334 331 336 335 336 339 338 339 339 341 343
311 313 311 310 309 311 313 311 311 309 308 308 309 309 310 312 314 316 322 323 324 327 328 327 330 331 331 331 330 329 330 329 328 329 331 333 334 337 339 338 339 339 338 339 343
310 315 312 309 311 311 311 311 309 310 308 309 309 309 312 313 315 317 321 323 323 322 326 329 328 331 331 332 330 330 329 331 333 335 332 334 333 334 336 338 338 338 338 337 340
310 312 312 310 311 311 310 310 308 309 310 309 309 308 309 310 313 317 318 318 318 320 322 324 330 332 332 334 332 331 330 330 331 330 336 334 332 335 336 338 337 338 336 338 339
311 313 311 309 310 310 310 309 308 307 309 308 310 309 309 310 311 314 314 316 316 319 319 321 328 332 335 335 335 333 330 331 330 334 332 333 334 333 333 333 339 337 336 338 340
309 310 309 310 310 310 310 309 309 310 309 307 308 310 311 309 310 312 313 314 316 319 321 325 330 331 332 333 334 331 330 330 332 334 334 333 334 335 336 336 337 336 337 338 340
308 307 305 306 308 309 310 310 310 309 308 308 308 309 310 310 310 310 311 312 316 316 317 321 327 330 333 333 333 334 331 331 331 330 332 333 333 335 336 334 336 336 335 336 337
306 305 304 305 308 309 309 309 309 309 308 307 308 308 308 308 308 308 308 309 312 314 315 319 324 328 332 332 334 335 334 332 332 332 331 334 336 336 337 337 337 334 333 333 333

GFSSW_850_thetae_045.txt.gz
Theta_e
302 303 303 303 303 303 303 303 304 305 305 306 311 314 317 316 313 312 313 317 316 317 321 327 320 328 346 352 353 353 355 358 355 349 348 347 351 352 352 352 352 351 350 349 349
303 303 303 303 303 303 303 304 304 304 305 305 306 311 314 317 316 314 316 317 316 317 317 318 329 327 338 350 352 348 352 354 348 347 346 344 346 353 353 353 352 351 350 348 345
303 303 303 303 303 304 304 304 304 304 305 305 306 310 312 315 316 317 320 319 317 317 318 317 326 328 338 346 348 348 353 347 347 346 347 345 345 345 352 355 352 352 349 348 350
303 303 303 303 304 304 304 304 305 305 305 305 307 310 312 313 321 326 322 322 319 317 317 318 324 329 337 345 347 348 348 345 345 344 347 346 344 345 352 354 352 352 349 348 350
302 303 303 303 304 304 304 304 304 305 305 306 308 311 314 313 319 326 321 320 321 318 317 319 322 329 333 342 344 344 345 345 345 343 346 344 343 346 353 354 351 350 349 349 348
302 303 303 303 304 304 304 304 305 305 307 309 309 314 315 317 324 324 320 321 319 318 318 319 324 329 333 336 342 343 345 345 344 342 345 342 344 344 353 352 352 351 349 350 348
303 303 303 304 304 305 306 308 311 311 311 312 311 313 317 317 324 324 322 322 320 319 318 319 325 327 333 336 340 342 344 346 346 346 347 345 346 345 352 351 351 351 350 350 348
303 303 303 304 304 305 311 312 313 312 313 314 314 315 318 317 324 324 323 323 323 321 318 320 323 324 325 335 338 340 342 343 344 344 345 346 349 346 349 351 351 351 351 350 349
303 303 303 303 304 308 311 311 310 311 317 320 318 318 321 324 325 323 323 324 325 323 323 320 323 324 324 330 335 337 342 341 344 342 344 346 347 346 345 350 351 351 351 350 349
303 303 303 303 303 309 311 312 309 321 320 322 323 321 319 324 327 326 320 320 321 325 323 323 324 324 323 327 334 338 340 340 343 344 344 341 338 345 345 346 349 350 349 349 351
303 304 304 304 304 310 312 311 309 312 312 309 310 319 315 325 327 327 325 323 320 326 325 326 326 326 324 327 330 338 341 341 340 343 342 341 337 347 344 348 349 349 349 349 348
304 304 305 305 305 310 312 309 308 308 309 309 309 311 312 320 316 324 326 325 322 325 326 328 329 327 328 328 329 336 339 341 339 338 340 338 338 339 345 349 349 349 349 349 348
305 304 304 305 306 310 312 308 308 308 308 310 311 311 312 312 314 318 323 325 322 324 326 329 331 331 331 329 330 333 337 338 338 335 336 339 339 339 346 347 343 346 348 349 349
307 305 305 305 306 309 309 308 308 309 309 313 316 316 316 313 315 319 323 324 324 324 326 329 331 332 332 331 331 333 335 338 339 337 340 340 341 338 339 347 348 351 351 347 348
308 308 306 305 306 310 308 308 308 309 313 319 315 316 313 315 316 318 325 322 323 324 327 329 332 332 332 332 332 334 333 335 337 338 337 340 340 339 336 339 349 351 349 346 349
309 309 306 307 308 309 308 308 309 311 314 314 313 312 311 313 317 320 319 322 323 323 328 328 333 332 332 331 332 333 332 331 335 336 338 334 340 340 338 338 349 349 349 348 350
309 309 308 309 308 309 308 308 310 311 313 312 310 309 309 312 314 314 317 322 325 323 328 328 329 333 332 332 331 331 329 329 330 333 336 330 332 332 336 336 339 345 348 348 349
307 311 310 311 310 310 308 309 312 313 311 310 309 309 309 310 312 313 313 319 325 324 326 328 330 332 333 330 329 331 329 327 331 332 332 328 330 331 331 334 337 344 348 348 348
305 312 312 313 311 310 309 311 312 310 310 309 308 307 308 309 310 312 312 316 323 327 325 324 326 333 333 329 327 327 327 324 323 326 326 327 327 328 329 331 331 336 347 347 347
304 313 313 311 311 310 310 312 312 310 309 308 307 308 308 309 311 311 313 315 317 321 317 324 322 330 333 333 328 325 324 324 323 324 326 327 328 329 328 328 330 331 340 346 348
306 313 312 311 311 311 311 312 311 310 309 309 308 307 307 309 311 311 313 314 318 318 317 319 322 322 327 331 331 325 325 324 322 322 325 328 329 328 329 329 330 331 335 341 347
307 311 313 312 312 312 311 311 309 309 309 310 309 309 308 308 308 309 311 312 314 314 315 318 321 323 323 327 330 327 325 324 325 324 323 323 327 330 331 330 330 332 334 340 345
308 311 311 310 310 311 310 310 309 309 308 309 309 309 308 309 311 313 313 313 313 313 315 318 321 326 325 324 326 328 326 325 323 324 325 325 326 332 330 331 331 334 334 338 344
309 310 309 309 308 308 309 310 310 310 310 309 308 308 309 309 309 311 310 313 312 312 313 318 320 322 328 326 327 329 328 326 324 326 326 328 328 331 332 332 333 336 338 336 341
308 309 308 308 307 307 309 309 311 310 309 309 309 308 309 308 309 310 310 310 310 311 313 314 318 323 327 328 330 330 329 328 326 325 329 327 330 331 336 335 336 336 337 338 339
308 308 305 306 306 307 308 309 309 308 309 309 308 308 307 309 309 308 308 308 310 311 311 311 318 323 331 330 330 332 331 329 328 327 327 328 327 331 333 337 335 336 338 340 341
307 306 305 306 306 307 309 309 309 309 309 309 309 307 307 308 308 308 308 308 308 311 310 311 315 320 329 331 332 334 333 330 328 328 327 327 328 333 334 335 333 334 333 333 333

GFSSW_850_thetae_048.txt.gz
Theta_e
303 303 303 303 303 303 303 303 304 304 305 305 306 306 309 315 319 316 314 317 316 316 320 317 323 336 346 350 354 346 352 353 354 352 351 348 352 352 351 351 350 350 346 345 342
303 303 303 303 303 303 304 304 304 304 304 305 305 306 308 313 317 320 319 316 315 314 318 319 320 334 344 348 352 353 352 351 348 347 347 348 351 352 351 352 350 348 344 342 345
303 303 303 303 303 304 304 304 304 304 304 305 305 306 309 312 316 322 322 317 315 315 316 323 324 325 328 337 350 352 351 349 347 347 347 345 352 353 352 352 349 348 346 340 338
303 303 304 304 304 304 304 305 305 306 306 305 307 307 309 311 322 322 320 321 316 315 316 317 325 325 327 336 343 348 348 347 345 344 345 346 345 353 353 351 350 347 346 340 339
304 304 304 304 304 304 306 309 310 310 310 308 309 309 313 312 316 324 321 319 317 316 317 317 318 320 327 334 339 345 346 347 347 345 345 342 345 351 353 351 349 347 346 340 342
304 304 305 305 305 305 308 310 311 312 311 311 311 312 314 314 320 322 322 320 320 316 317 318 320 324 327 329 338 343 344 344 347 343 345 345 344 348 352 351 348 347 347 347 345
304 304 304 305 305 306 310 311 310 309 310 310 312 314 314 311 320 324 323 322 320 319 317 317 320 323 326 330 332 334 339 343 345 344 345 345 345 356 352 351 349 348 349 349 347
304 305 305 305 305 306 311 311 309 311 318 319 320 319 314 312 316 320 322 322 323 320 319 318 319 322 322 325 323 334 336 343 346 345 346 344 347 354 352 351 350 348 348 348 348
307 306 306 306 306 306 311 311 308 313 316 312 321 323 318 317 322 324 322 323 324 320 319 318 318 320 323 321 321 330 334 339 345 345 347 345 345 353 352 350 350 349 348 349 347
308 307 307 306 306 306 311 311 308 308 321 310 320 320 317 319 321 324 324 323 324 321 319 319 319 317 319 318 324 329 336 337 339 345 346 347 344 351 351 351 350 349 349 349 347
308 309 308 308 306 307 312 309 307 307 307 307 307 310 310 309 311 321 322 323 325 322 319 320 318 319 320 320 322 329 333 336 338 340 347 345 346 345 351 350 351 350 349 349 348
307 309 309 310 307 309 311 308 308 308 307 312 311 309 309 310 309 319 321 323 322 323 321 322 321 320 323 322 322 325 328 334 337 337 340 344 345 345 350 350 350 350 350 350 349
308 309 309 310 308 307 308 307 308 308 306 309 313 312 312 312 310 312 317 321 322 320 323 323 326 325 325 325 324 325 326 328 336 337 336 340 342 346 345 349 350 350 350 350 349
306 308 309 309 307 308 307 307 309 308 304 310 313 312 311 312 312 315 315 317 323 321 319 324 325 327 327 327 326 325 326 328 333 336 337 338 344 340 345 348 348 349 349 349 348
305 305 309 308 307 307 307 308 309 309 308 314 309 310 309 309 312 314 314 317 320 321 319 322 325 326 327 328 328 327 327 328 331 334 335 336 340 340 345 352 348 345 344 343 348
305 304 309 309 309 308 308 309 309 307 312 311 308 308 308 308 309 311 312 314 319 320 321 322 324 326 328 329 329 328 329 330 330 330 336 335 337 338 348 351 348 344 344 342 347
304 305 312 311 310 310 309 309 306 308 309 309 306 306 306 308 309 310 311 312 314 321 321 322 322 325 329 329 329 329 328 332 331 332 333 331 331 335 344 348 346 345 346 346 348
304 310 312 312 311 310 310 305 310 310 308 307 306 305 307 310 309 310 311 311 316 317 318 320 321 323 326 329 331 329 328 329 334 330 330 326 332 333 330 335 347 346 347 349 345
304 312 312 312 312 311 311 306 308 309 308 307 305 305 306 307 309 310 310 313 315 316 317 317 321 326 327 328 329 329 329 324 322 322 324 326 327 326 326 327 344 348 349 349 346
303 310 312 312 312 311 305 308 308 310 308 307 307 305 304 305 308 309 310 311 311 314 313 316 318 322 327 326 328 327 325 326 318 327 323 323 324 329 326 325 325 346 349 349 347
304 309 312 310 312 311 305 307 308 308 309 308 308 307 306 306 307 307 309 309 312 314 313 313 314 321 322 322 329 325 327 324 324 318 324 322 325 322 324 324 324 333 347 348 347
305 305 311 309 307 307 306 308 309 309 309 308 308 308 307 306 309 309 311 311 311 313 313 313 316 320 322 322 322 331 322 321 323 320 318 320 325 326 324 324 324 326 345 346 347
306 309 310 308 304 305 306 308 309 310 309 308 308 307 307 306 308 311 310 310 311 312 314 313 319 319 321 320 321 322 327 320 318 317 319 323 324 322 324 325 328 328 328 345 347
308 304 308 307 305 305 306 308 309 309 309 308 308 306 307 307 307 309 310 311 310 309 311 313 316 317 321 321 320 322 323 322 322 322 321 322 324 324 324 325 329 328 328 336 345
308 305 306 303 304 304 305 306 309 309 308 308 308 307 307 307 306 308 309 309 308 309 310 311 314 312 314 316 319 321 327 325 322 322 323 323 324 324 323 326 328 330 331 337 345
307 307 306 305 305 305 306 308 309 309 309 309 309 308 308 305 306 306 307 307 308 308 308 308 311 310 312 320 323 326 330 329 324 324 324 322 323 323 327 332 334 337 334 339 345
306 306 306 306 305 306 306 307 308 308 309 309 308 308 307 307 306 307 307 307 308 309 308 309 309 310 317 324 329 330 325 330 326 323 323 324 322 330 332 336 337 329 335 340 344

GFSSW_850_thetae_051.txt.gz
Theta_e
303 303 303 303 303 303 303 304 304 304 304 305 305 305 306 307 312 317 317 315 315 316 321 317 319 325 344 350 353 345 349 352 350 352 351 349 351 352 351 349 349 347 344 344 341
303 303 303 303 304 304 304 305 306 306 306 306 305 305 306 307 311 318 324 321 315 315 320 318 325 338 347 349 352 351 350 349 348 348 348 351 350 352 350 350 347 346 344 342 344
303 304 304 304 304 304 305 308 310 310 311 310 307 307 307 307 311 321 320 321 317 315 315 318 328 340 338 345 350 351 351 350 347 347 346 348 348 352 351 350 347 344 342 344 347
304 304 304 304 305 305 306 310 310 310 309 310 311 308 308 309 319 320 320 321 319 314 314 319 325 327 326 333 341 350 350 350 345 347 347 345 350 352 351 351 349 345 342 345 347
305 305 305 305 305 305 307 310 310 309 309 311 309 311 310 310 311 319 321 320 317 313 315 324 323 324 326 329 335 346 346 348 349 347 344 345 345 352 351 351 346 342 342 345 346
308 307 306 306 305 306 308 311 310 309 314 313 311 311 311 311 313 321 320 321 316 314 316 323 326 324 325 326 338 340 342 344 345 346 345 343 348 351 352 349 343 342 342 343 345
308 308 308 307 306 306 307 311 310 308 315 311 312 315 315 311 313 322 322 321 317 315 316 316 317 324 323 327 329 331 335 335 337 344 344 345 344 350 351 348 344 340 340 338 342
307 309 309 309 307 307 306 309 310 308 316 316 310 317 315 312 311 316 317 322 320 315 317 317 317 322 322 324 323 330 330 334 335 344 344 344 346 353 350 347 345 342 339 337 341
307 308 309 309 309 307 307 309 308 308 313 309 314 320 318 319 316 319 317 319 322 319 317 317 317 318 321 321 319 322 331 335 336 343 346 344 345 352 350 348 347 346 345 344 343
307 307 308 308 310 307 309 308 308 308 308 310 314 315 313 311 311 314 319 320 323 324 319 317 317 314 315 317 328 322 331 333 334 344 346 345 344 352 351 349 348 347 348 348 346
305 305 307 308 309 307 308 307 307 308 308 308 308 307 311 311 312 313 317 321 323 321 316 317 314 316 316 319 321 326 332 335 335 336 346 347 345 354 350 350 349 348 347 348 348
305 305 306 308 308 307 308 307 308 307 306 309 312 310 310 310 310 313 315 321 322 319 317 316 317 316 317 319 320 321 322 327 330 333 344 346 347 352 351 350 349 348 347 348 347
304 304 305 308 307 307 306 308 308 308 305 308 311 310 309 311 311 313 314 316 319 321 319 319 320 318 320 320 321 320 321 323 328 334 338 339 347 346 352 351 350 349 348 348 348
304 304 305 309 307 309 309 308 309 309 303 308 308 309 309 312 311 312 313 314 318 321 321 320 320 321 319 322 321 320 321 323 326 331 337 335 342 347 351 352 350 350 349 348 348
304 304 306 311 309 310 310 309 309 309 308 310 307 308 308 308 308 311 311 314 315 315 317 321 322 322 322 323 323 324 322 324 325 327 332 333 335 341 348 354 351 349 349 349 349
304 307 312 311 310 310 310 310 309 306 309 308 307 306 307 308 309 309 312 316 315 319 317 318 320 322 323 324 324 325 325 325 326 326 332 331 333 333 348 347 350 349 349 349 349
304 311 312 311 311 311 311 310 305 306 308 308 306 304 306 308 308 309 313 315 317 320 319 320 321 320 323 324 324 325 323 326 328 329 332 328 331 334 340 342 344 347 349 348 348
303 310 312 312 311 311 311 305 309 310 307 307 306 305 306 307 308 309 309 312 314 315 317 318 322 321 321 324 325 325 324 325 330 330 333 326 330 332 337 340 342 345 347 347 345
303 309 312 312 311 311 310 305 307 309 308 306 306 304 304 306 308 308 308 308 315 313 317 318 319 316 318 322 326 326 328 325 324 320 326 329 325 327 333 339 341 344 345 345 344
303 310 312 311 310 311 304 307 307 308 307 307 307 305 306 305 306 306 308 311 313 313 313 315 317 315 318 320 324 327 324 327 321 327 325 322 325 333 326 328 340 344 345 345 344
304 310 311 308 310 309 305 304 308 309 309 307 307 307 307 306 306 307 308 310 310 312 313 313 314 317 318 320 322 324 328 326 326 323 332 323 324 321 326 325 333 338 342 344 345
304 305 310 309 305 303 305 306 308 308 309 307 307 307 307 306 308 308 310 310 310 312 313 313 316 319 319 319 318 318 324 320 330 327 318 327 330 322 322 321 330 339 342 344 345
306 308 309 308 303 303 304 307 308 308 309 308 307 306 306 306 307 309 310 310 311 311 312 313 316 316 320 318 318 318 321 325 320 318 322 330 329 320 319 321 322 325 333 342 346
307 303 307 305 305 304 304 306 308 308 309 307 307 306 306 306 306 307 310 310 309 308 313 312 315 315 318 317 315 316 316 316 317 325 320 323 326 321 321 320 320 323 327 333 341
307 303 305 302 303 303 303 304 308 309 308 308 308 309 308 306 305 306 307 308 309 310 311 311 312 313 312 312 313 313 314 315 318 320 323 323 318 318 319 320 323 331 332 329 330
306 306 305 305 305 304 304 306 307 308 308 308 309 309 308 306 304 304 305 305 307 308 308 308 311 310 312 312 312 314 315 317 318 323 319 319 319 318 330 337 338 337 330 327 332
306 306 305 307 306 307 307 308 307 307 307 309 308 308 307 307 306 306 306 305 305 306 307 309 309 311 312 313 317 321 322 323 323 320 324 321 325 329 337 337 336 338 337 330 339

GFSSW_850_thetae_054.txt.gz
Theta_e
303 303 304 304 304 304 304 307 309 310 310 310 308 306 306 306 307 309 318 319 315 315 314 324 326 327 340 347 352 348 346 349 351 352 352 349 350 352 351 346 347 345 344 343 341
304 304 304 304 304 304 305 308 310 310 310 309 310 309 307 307 308 310 317 321 315 314 320 317 319 331 346 349 352 348 346 347 346 348 349 351 352 350 349 348 345 345 344 343 339
306 305 305 305 305 305 305 309 310 310 309 308 310 309 309 307 309 319 319 321 317 316 320 317 318 337 345 348 350 350 350 348 347 348 346 349 349 351 350 350 345 344 344 342 340
308 308 307 306 306 306 305 309 310 310 308 312 312 309 310 309 317 320 320 320 319 315 319 318 330 339 332 335 347 350 349 350 346 347 346 347 349 351 350 350 349 346 343 340 339
307 308 309 308 307 307 306 307 308 310 308 313 311 310 310 310 309 312 319 320 319 314 319 323 336 329 332 332 338 348 346 347 349 348 346 345 350 352 350 350 349 344 343 342 340
306 307 308 309 309 308 307 307 308 309 308 312 313 309 312 310 311 319 319 319 319 315 318 320 333 332 329 329 336 339 343 343 344 344 345 342 345 349 349 348 345 343 343 343 342
306 306 307 308 308 310 308 307 308 308 308 310 309 312 313 313 314 315 319 320 318 314 315 319 321 324 323 325 329 336 331 332 334 339 343 343 345 351 347 346 342 342 343 343 343
305 306 306 307 307 309 308 308 308 307 308 309 312 314 315 317 316 316 315 318 318 314 316 323 324 321 322 323 321 326 328 335 335 338 343 344 347 351 346 343 342 342 342 343 343
305 305 306 306 308 308 307 307 307 307 308 310 313 314 314 315 315 315 315 318 320 314 314 317 318 317 320 320 320 319 333 334 338 337 344 344 346 350 346 342 342 342 342 342 341
304 305 305 306 308 307 307 307 308 308 308 312 311 312 312 310 310 312 316 319 322 318 317 317 316 313 313 317 325 323 326 332 336 337 343 344 346 350 347 344 341 340 340 339 340
304 304 305 306 307 306 307 308 308 308 308 308 308 309 310 309 312 312 315 321 324 321 316 315 313 315 315 318 321 323 328 332 332 333 344 345 346 353 348 346 344 341 339 338 338
304 304 305 305 307 308 307 308 309 308 307 308 310 309 309 308 311 312 314 321 319 317 314 314 315 315 314 315 319 320 321 326 329 332 342 343 345 352 349 347 346 346 345 343 342
304 304 306 306 307 310 309 309 310 309 305 308 309 308 309 309 311 311 312 314 319 318 315 315 316 316 316 317 317 318 319 321 328 329 335 342 344 351 351 349 348 347 346 346 346
303 304 310 309 307 310 309 310 310 308 302 307 308 308 309 309 310 309 311 312 315 320 319 317 318 317 316 317 317 316 320 322 322 326 330 337 340 341 353 351 349 348 347 346 346
303 305 311 311 309 310 310 310 309 307 306 308 307 308 308 308 308 308 312 315 313 315 317 321 320 319 317 317 317 317 319 320 321 325 326 327 334 332 347 354 351 348 348 347 346
303 304 311 311 311 311 310 310 308 305 307 307 307 306 306 307 309 309 314 314 316 318 316 315 318 319 321 320 318 321 322 320 322 321 327 325 330 332 346 350 351 349 349 348 347
302 304 311 311 310 311 310 309 305 306 307 307 306 304 305 307 307 307 314 313 314 317 317 318 318 318 319 320 320 321 320 322 324 326 328 325 327 331 331 342 347 349 349 349 348
303 305 310 310 311 311 310 304 308 310 306 306 306 304 305 305 307 307 310 311 313 313 315 318 321 319 318 319 320 322 320 320 325 326 329 324 329 330 329 335 344 345 348 348 349
303 310 311 310 310 311 310 304 306 307 307 305 305 304 304 306 307 306 307 310 313 312 316 315 318 315 316 318 320 322 323 320 322 321 324 329 326 327 328 331 336 340 342 347 348
303 310 310 309 309 310 305 306 306 308 308 306 307 305 306 305 306 306 307 311 312 311 311 314 315 315 316 318 319 320 322 325 321 329 325 324 325 332 329 331 334 338 340 344 347
303 310 309 309 310 309 304 305 307 308 309 307 307 306 306 306 306 305 306 310 309 312 312 312 312 315 316 319 319 319 322 323 323 322 326 326 327 322 329 330 331 336 340 342 345
304 303 308 310 305 301 303 304 307 308 308 307 306 306 306 305 307 307 308 309 312 311 313 313 314 316 316 316 316 317 319 321 328 326 322 323 327 322 325 325 328 329 336 340 343
305 306 306 308 303 300 302 305 306 308 308 307 307 306 305 305 306 308 308 311 310 311 311 312 315 313 317 315 315 317 314 313 313 318 326 329 327 323 320 320 323 325 331 335 337
306 302 305 305 304 303 304 304 306 308 308 307 306 306 306 306 305 305 308 310 309 308 312 312 309 313 316 315 313 314 314 314 313 315 325 327 327 323 325 320 319 323 325 327 336
305 303 304 301 302 304 303 304 306 308 308 307 307 308 308 308 306 306 306 308 309 311 310 308 308 309 311 312 313 313 313 314 314 314 318 323 323 322 322 322 319 322 327 329 327
306 306 305 304 305 305 305 305 307 307 307 308 308 308 308 309 308 306 305 305 307 307 307 306 308 311 311 311 312 314 314 315 316 316 316 318 318 321 335 335 335 336 337 338 336
305 305 305 307 307 307 308 308 308 307 307 307 309 308 308 307 307 307 306 304 303 305 306 306 307 312 311 311 312 317 316 320 319 317 320 320 320 323 334 333 331 332 335 338 339

GFSSW_850_thetae_057.txt.gz
Theta_e
307 306 306 306 305 305 305 307 309 309 309 309 308 309 309 307 307 307 312 319 315 314 315 329 337 337 345 348 352 348 351 354 350 351 353 349 351 352 349 347 347 346 346 345 342
308 308 308 307 306 306 306 307 309 310 309 308 311 313 309 308 308 308 311 314 316 314 313 327 338 341 343 348 352 349 354 352 345 348 351 351 352 351 350 348 347 346 345 344 345
306 308 308 309 309 307 306 306 308 308 309 308 310 309 309 309 308 319 321 321 318 313 315 333 333 338 341 347 350 349 356 349 347 347 352 352 352 351 351 352 348 346 346 345 345
306 306 307 308 308 309 307 307 307 308 309 308 311 311 309 310 317 319 319 320 319 313 320 329 332 335 336 342 347 353 351 351 350 348 347 348 350 352 351 351 349 346 345 344 344
305 306 306 307 307 309 309 308 307 308 308 309 312 310 309 310 309 312 316 319 318 314 325 326 329 330 330 335 342 349 349 348 349 349 348 347 349 353 352 351 348 346 345 344 343
305 305 306 306 307 308 309 309 308 308 308 309 309 312 311 312 311 316 320 318 317 319 325 327 328 329 329 335 337 343 345 347 346 346 346 347 346 351 350 348 347 346 344 343 343
304 305 306 306 307 307 308 308 308 308 308 308 312 313 313 313 314 314 316 318 316 323 325 329 326 327 324 327 331 335 340 337 340 342 346 344 348 349 348 347 346 345 344 343 343
304 305 305 306 307 307 307 308 308 308 308 311 312 314 316 316 315 313 314 319 317 321 323 322 323 326 322 323 323 327 332 344 343 341 341 344 351 350 347 347 346 345 344 343 342
304 305 305 305 307 307 307 307 307 308 310 313 311 313 311 311 311 312 316 316 318 327 317 319 320 320 320 325 325 328 327 336 344 339 345 346 350 351 347 347 346 345 345 344 342
303 304 305 305 307 307 307 307 308 308 310 312 310 313 310 309 311 313 315 317 321 320 317 317 320 320 320 323 322 326 327 335 343 343 342 347 348 352 346 347 346 345 345 344 343
303 304 305 306 308 309 308 308 309 309 308 308 309 308 309 311 312 312 318 321 321 316 316 317 318 321 319 320 322 327 329 329 340 342 344 346 345 353 349 346 346 345 345 344 343
303 304 307 309 309 309 309 309 310 309 309 308 309 308 308 309 310 310 316 321 323 322 317 317 317 318 318 317 320 323 327 332 332 335 342 345 345 349 351 349 346 345 344 344 343
302 303 307 310 308 309 309 310 310 309 307 308 308 308 308 309 310 309 312 313 322 322 320 319 319 317 317 317 319 321 323 327 331 333 336 343 345 347 352 350 349 345 344 343 342
302 302 306 310 307 310 310 310 310 309 309 310 309 308 309 309 310 309 312 312 315 324 321 322 320 318 318 318 318 319 320 324 326 328 339 339 349 346 349 354 351 349 346 343 342
304 302 305 310 310 310 310 310 309 307 309 309 309 307 308 309 309 310 313 315 316 317 321 324 322 321 320 319 318 319 319 318 323 328 329 332 343 345 346 355 354 350 349 348 346
308 303 305 311 310 310 310 310 308 310 309 309 309 307 309 309 309 309 314 314 316 319 320 319 321 323 322 320 319 319 321 320 320 322 330 333 335 341 344 350 352 351 350 349 348
308 303 309 310 310 311 310 308 310 310 309 308 309 307 308 309 309 311 315 315 317 318 320 320 320 320 322 323 321 320 321 324 325 322 328 332 334 335 337 342 346 350 350 350 349
306 308 309 310 310 311 311 310 310 310 308 307 308 307 308 308 308 310 312 313 313 317 320 321 319 320 321 323 324 322 323 323 326 323 321 327 333 334 333 332 339 344 347 349 350
306 310 309 309 309 310 311 312 310 309 309 309 308 308 307 308 308 308 310 313 314 312 314 321 321 318 319 319 322 324 324 323 323 326 326 323 329 331 333 335 334 336 345 348 350
305 309 309 309 309 309 311 309 310 309 309 308 309 308 309 308 308 308 308 313 314 311 312 314 314 317 318 319 321 323 324 325 325 324 326 325 326 330 335 335 336 336 342 346 348
304 310 307 310 310 309 311 309 309 308 309 309 308 308 308 308 308 308 308 311 310 311 312 314 312 313 316 322 323 323 324 325 326 326 326 325 327 329 332 337 337 337 337 340 345
304 309 307 310 309 305 308 306 306 308 309 309 308 308 308 307 308 308 308 309 310 311 312 313 313 313 314 318 318 319 323 325 328 329 329 328 326 329 332 334 335 335 337 338 342
305 305 307 309 310 308 306 306 307 308 309 309 308 308 307 307 308 308 309 311 311 311 312 314 313 313 310 314 318 320 319 321 323 326 331 329 327 328 330 329 332 333 334 339 343
305 308 306 306 304 307 305 307 308 307 309 308 308 308 308 308 308 308 309 310 310 310 311 312 312 312 313 312 313 317 317 317 319 326 329 331 330 329 328 330 331 329 329 331 337
305 306 304 308 308 306 306 306 307 308 308 308 309 308 309 309 309 308 308 307 309 310 311 311 310 309 309 309 310 312 313 316 317 322 326 328 330 331 332 332 331 331 330 330 330
306 307 305 305 305 306 307 307 308 308 308 308 308 308 309 310 310 309 308 308 309 310 311 311 309 310 309 309 311 312 313 314 316 318 320 322 325 325 330 335 335 337 339 340 340
305 306 306 306 306 308 309 308 309 309 307 307 308 308 307 308 308 308 308 307 307 308 310 310 310 309 308 313 314 316 315 316 318 320 320 325 326 328 333 337 333 332 332 335 338

GFSSW_850_thetae_060.txt.gz
Theta_e
306 307 308 309 309 308 307 306 308 309 309 309 309 311 312 309 307 307 310 316 315 313 326 344 345 344 344 348 352 350 354 356 353 353 356 352 355 353 353 352 351 350 350 349 347
306 306 306 307 308 309 309 308 307 308 308 308 309 310 310 309 309 309 308 312 316 313 336 342 343 342 342 346 352 351 356 354 348 351 352 352 354 354 353 352 351 350 349 348 347
305 305 306 306 307 307 309 309 308 308 308 308 310 311 311 309 314 319 316 317 316 313 333 338 338 340 339 343 349 350 355 350 349 351 352 351 354 353 353 354 351 351 349 347 348
305 305 306 306 306 307 308 309 308 308 309 308 310 310 310 310 321 318 319 318 319 315 332 333 334 336 337 342 344 349 348 351 350 349 352 353 353 353 352 353 352 350 349 347 347
304 305 306 306 307 307 308 308 309 309 308 308 309 312 312 317 314 314 316 319 321 319 331 332 332 332 332 334 336 344 347 350 350 349 349 349 351 353 353 353 351 350 348 347 347
304 305 305 306 307 307 307 308 308 308 308 308 311 312 315 317 314 315 321 320 321 321 330 328 328 328 328 330 333 337 338 344 348 349 348 350 349 351 353 352 351 349 348 347 346
304 305 305 305 306 307 307 307 308 308 308 311 313 314 318 317 315 315 324 325 326 324 327 325 326 326 325 329 331 332 339 339 343 348 350 348 351 351 352 351 351 350 348 347 346
303 304 305 306 306 307 307 307 308 308 310 312 315 318 317 313 315 316 319 324 329 328 325 327 324 326 324 325 324 328 331 337 343 347 347 347 352 350 351 351 351 350 348 347 346
303 304 304 307 306 307 308 308 308 309 312 311 316 319 315 312 313 312 315 323 326 322 324 323 322 325 326 325 324 325 329 333 350 346 348 348 351 352 350 351 352 350 348 347 346
303 303 304 309 307 308 309 308 308 309 310 312 311 318 313 313 312 312 316 322 325 324 319 320 321 324 324 325 326 326 328 332 345 347 348 350 351 352 351 351 351 350 348 347 347
303 303 304 310 308 309 309 311 315 313 313 311 312 312 312 312 313 315 320 323 323 325 322 319 323 323 324 324 325 327 329 330 339 346 348 350 350 354 350 351 351 351 350 348 347
305 304 304 310 309 309 311 312 311 310 313 310 309 310 310 311 314 314 319 324 322 324 322 321 321 323 323 323 323 324 329 332 332 341 347 349 349 348 353 350 350 351 350 348 348
309 305 303 310 308 310 310 310 310 309 313 312 310 311 310 311 313 312 317 322 325 324 322 322 323 321 321 322 322 323 324 329 332 335 340 347 350 348 349 351 350 350 350 349 348
308 308 303 310 309 310 311 310 310 309 314 313 312 310 311 311 313 312 315 317 322 326 324 323 323 322 321 321 322 323 322 323 329 333 339 343 352 349 348 353 352 350 350 349 348
308 307 303 310 310 312 310 310 309 308 313 312 312 309 311 313 312 313 315 317 319 321 326 325 324 324 322 322 322 322 322 322 323 330 333 338 346 346 347 351 354 351 349 349 348
308 304 305 310 311 311 311 310 308 314 313 312 311 311 313 312 312 313 315 316 318 320 322 324 325 325 325 324 323 322 322 322 322 322 329 334 340 345 346 347 349 351 350 349 348
307 306 309 310 311 311 311 310 315 314 312 312 312 312 312 313 312 314 315 316 317 318 319 321 322 324 324 325 325 323 323 326 325 323 321 328 335 339 341 345 345 348 349 350 350
306 308 309 309 310 311 311 315 316 314 313 311 311 312 312 312 312 312 314 315 316 316 317 320 321 321 324 326 326 324 325 326 328 326 324 323 329 335 337 338 341 344 348 350 351
305 309 311 310 310 310 313 318 316 314 312 312 312 312 313 311 312 312 313 314 315 315 316 319 319 322 322 323 326 327 326 326 326 327 328 325 324 329 334 336 337 340 344 346 348
304 310 310 311 310 310 316 314 314 312 312 312 313 312 313 312 312 312 312 314 315 313 313 316 316 318 322 322 323 326 327 327 327 328 330 329 328 325 333 336 337 339 338 343 345
307 314 309 310 311 314 317 315 313 311 311 313 313 313 313 312 312 313 312 312 313 313 312 314 314 315 315 322 323 324 326 327 327 327 329 330 329 328 328 331 336 338 338 339 345
309 314 309 310 314 313 315 311 308 311 311 311 312 312 312 312 312 312 312 312 311 312 312 313 314 315 315 317 323 323 325 327 329 330 328 330 329 328 329 329 332 335 336 338 339
310 310 310 312 315 314 311 311 310 311 312 311 311 311 310 311 311 311 311 311 311 311 312 314 312 314 314 314 316 319 323 326 326 329 331 331 330 329 330 333 330 332 334 337 338
311 315 311 310 310 311 311 311 311 309 311 310 311 311 311 312 311 311 311 310 311 310 312 311 311 312 314 314 314 319 323 323 325 329 330 331 332 331 330 331 333 335 335 335 338
310 311 309 313 310 311 311 311 311 310 310 309 311 311 311 311 311 311 310 310 310 310 310 313 312 312 312 311 311 312 314 317 320 325 328 329 330 332 331 330 331 331 335 334 332
312 311 310 308 309 309 310 310 310 310 308 310 310 310 311 312 311 312 311 311 311 310 312 312 313 311 311 310 310 310 312 314 316 321 323 325 328 330 332 332 336 335 339 339 339
308 308 310 308 310 311 311 310 310 310 309 309 309 310 309 309 309 309 309 309 310 311 312 311 312 311 311 310 311 313 315 317 318 320 322 325 327 329 331 333 337 336 336 336 337

GFSSW_850_thetae_063.txt.gz
Theta_e
306 306 306 306 307 307 309 309 307 307 308 308 308 310 309 311 309 307 314 319 317 314 325 336 337 342 344 346 348 353 357 358 355 355 359 353 355 354 353 353 352 352 353 351 349
305 305 306 306 307 307 307 309 309 308 308 309 308 310 311 309 309 319 318 316 317 313 331 337 339 343 343 344 346 353 358 356 350 353 358 353 354 354 353 353 352 352 352 350 348
305 305 306 306 307 307 307 308 309 309 309 309 308 310 311 310 321 322 318 311 317 314 337 339 340 341 341 343 345 350 357 353 351 353 352 353 354 353 353 353 352 352 351 349 348
305 305 305 306 306 307 307 308 308 309 309 309 309 310 313 312 327 323 316 316 317 314 338 338 338 339 339 342 343 348 347 350 351 353 351 353 352 352 353 352 351 352 351 349 349
304 304 305 306 306 307 307 307 308 308 308 308 310 312 313 322 319 319 317 319 318 315 334 337 337 337 337 338 340 345 346 350 351 350 352 352 351 352 352 352 352 351 351 349 349
304 304 305 305 306 307 307 307 308 308 308 309 313 312 320 323 317 318 325 320 325 320 330 334 333 334 333 334 336 338 341 347 350 350 350 349 349 350 352 352 352 351 351 350 349
304 304 304 305 306 307 308 308 308 308 309 312 314 318 322 320 318 319 325 327 327 322 328 332 331 332 329 330 330 334 339 341 345 350 350 349 352 350 352 352 353 352 351 349 348
304 305 304 305 307 307 308 308 308 309 312 312 317 325 321 316 318 318 324 326 325 324 326 331 328 327 329 328 328 333 335 341 343 347 350 350 355 348 352 353 353 351 351 350 348
304 305 305 305 308 308 309 309 308 309 312 312 320 325 319 315 316 316 323 326 329 329 327 328 327 327 328 328 328 328 334 337 339 341 347 352 353 345 351 352 353 351 350 349 348
306 307 305 305 309 308 309 310 309 309 311 316 320 322 316 316 316 316 317 324 330 325 327 327 327 328 330 330 328 328 330 333 338 348 348 352 354 352 352 351 353 352 350 350 349
309 309 306 305 309 309 313 315 320 319 317 316 316 315 315 315 316 320 322 325 327 325 325 325 327 326 328 329 328 328 329 332 336 348 349 350 352 354 351 351 353 352 350 350 349
309 308 307 306 308 310 313 315 313 314 317 313 313 314 313 315 317 319 324 324 326 330 326 324 325 326 326 327 326 326 328 330 333 340 348 349 351 351 352 351 352 353 351 349 349
309 307 307 306 308 313 313 313 313 313 316 315 314 314 314 314 317 317 320 325 325 328 329 327 326 325 326 326 326 326 327 329 333 334 345 348 352 351 355 351 351 352 352 349 349
307 307 305 308 310 313 315 313 313 313 318 316 314 313 313 314 316 315 318 321 325 327 325 326 326 325 325 325 326 327 326 326 329 335 339 344 354 354 349 353 352 352 352 351 348
307 307 304 307 312 315 313 313 312 312 319 315 315 312 313 315 316 316 316 319 321 323 326 326 325 325 325 325 325 326 326 326 325 327 335 338 344 353 351 356 352 352 351 351 350
307 305 308 313 314 313 313 313 312 316 316 315 314 314 315 315 315 315 316 316 318 321 322 325 326 326 325 326 325 326 325 326 326 325 327 334 340 347 348 348 351 351 350 351 351
305 307 309 312 314 313 313 314 318 317 317 316 316 315 316 316 316 316 318 318 318 320 319 320 322 325 326 326 326 326 327 327 327 327 326 327 335 340 345 346 347 350 350 350 350
304 307 313 312 312 313 314 319 319 318 317 315 315 315 315 316 316 316 317 317 319 318 319 320 322 322 323 326 328 327 327 329 331 329 328 327 327 334 338 342 344 342 348 349 350
305 311 313 313 313 312 316 321 321 319 316 316 316 316 316 315 314 315 316 317 318 318 318 318 319 323 323 323 326 328 328 327 329 330 331 329 327 327 333 337 343 342 347 349 349
309 312 313 313 313 314 319 318 320 316 316 316 317 317 317 317 315 316 317 317 317 316 315 317 319 322 321 323 325 326 328 328 328 331 332 331 331 328 328 333 337 341 343 345 349
312 317 314 314 314 317 321 320 317 315 314 316 317 317 317 317 317 316 317 316 315 316 315 316 317 318 318 321 324 324 327 329 330 329 331 333 332 332 330 330 334 338 340 343 348
314 319 314 314 319 317 320 316 311 315 314 315 315 316 316 316 317 316 316 316 314 314 315 317 316 317 318 319 319 320 323 323 330 332 330 330 332 332 332 330 332 336 337 338 340
315 316 314 315 321 318 315 315 313 315 315 315 315 314 315 314 314 315 315 314 313 314 314 316 316 317 317 317 318 318 322 325 326 327 332 331 331 332 331 331 330 331 333 337 339
316 320 316 314 314 316 316 315 315 312 313 313 314 313 314 314 314 314 314 313 312 312 312 312 316 317 317 318 317 319 318 322 325 328 328 330 331 331 332 332 333 332 332 335 337
315 315 314 317 315 315 315 314 314 314 312 312 313 313 313 314 314 313 313 313 312 311 312 313 314 314 314 315 315 315 317 321 323 327 330 329 331 332 332 332 333 334 334 336 337
316 316 313 314 312 313 313 313 311 311 312 313 313 313 312 314 313 315 313 313 313 313 313 313 313 314 316 315 314 314 315 316 320 323 325 327 330 331 330 330 331 333 335 340 340
312 312 314 311 312 313 313 313 312 311 311 311 311 312 312 312 311 312 311 311 311 311 313 314 316 314 315 314 314 314 314 314 316 319 321 324 328 329 330 332 335 335 338 339 339

GFSSW_850_thetae_066.txt.gz
Theta_e
305 305 306 306 306 307 307 307 309 309 308 308 309 308 310 310 310 308 311 320 317 319 317 326 332 339 345 345 347 351 359 362 358 360 358 351 355 353 353 353 353 354 352 350 349
305 305 305 306 306 306 307 307 308 309 309 309 309 309 311 311 309 315 317 318 320 317 320 332 334 338 342 345 347 349 360 359 354 353 350 352 354 353 353 353 353 355 352 350 349
305 305 305 305 306 306 307 307 307 308 309 309 309 309 312 312 320 324 320 318 318 315 320 335 335 339 341 343 344 347 352 356 353 352 351 350 354 352 353 353 353 353 351 350 349
304 304 305 305 306 307 307 307 307 307 308 309 309 310 313 312 331 325 322 319 316 315 326 338 337 340 342 344 343 346 347 348 349 353 354 355 354 355 351 352 353 353 351 350 348
304 304 305 305 305 307 307 308 308 308 308 309 309 311 312 324 323 320 320 314 317 315 327 340 339 339 340 340 341 344 346 346 350 353 352 347 352 354 346 345 353 352 350 349 348
304 305 306 305 305 307 307 308 308 308 308 309 313 313 314 327 319 320 326 327 321 318 331 339 338 338 337 337 339 341 342 345 349 352 353 350 352 352 352 352 354 352 350 349 348
304 306 306 306 305 307 307 308 308 308 309 312 316 320 328 324 320 319 325 328 326 320 324 335 336 336 335 336 333 333 338 340 343 351 352 350 352 353 353 352 352 353 350 349 348
305 307 307 307 305 307 308 309 308 309 312 313 316 323 329 317 319 319 323 328 329 326 322 330 334 332 333 333 329 331 333 339 339 344 350 351 357 350 352 353 352 353 350 350 349
308 309 309 307 305 308 308 310 308 309 312 313 321 327 327 317 318 319 323 327 327 325 326 329 333 332 328 332 330 330 332 336 338 343 347 352 356 352 351 353 352 352 351 350 350
310 310 309 308 305 308 311 313 313 309 314 314 320 323 321 318 317 317 319 326 329 327 329 328 330 330 329 330 331 329 331 333 337 339 344 349 354 351 345 350 351 351 351 349 349
310 309 308 308 306 311 314 316 321 323 316 323 321 321 318 317 317 320 320 324 329 330 331 329 331 331 331 329 330 329 329 331 332 335 343 345 351 348 346 346 346 350 352 350 349
309 308 307 306 307 312 315 317 315 315 317 318 316 315 315 316 318 321 324 326 328 330 326 330 331 330 327 329 330 330 330 329 330 333 345 352 349 345 344 343 344 350 350 351 349
308 306 307 305 309 315 315 316 315 315 316 317 315 315 315 315 318 319 324 325 327 327 329 326 327 327 327 327 328 328 328 328 329 332 342 344 352 349 343 345 348 351 348 349 350
306 306 306 308 313 315 317 315 315 315 318 318 316 315 314 315 317 317 319 322 326 327 327 329 328 327 326 327 327 328 328 327 328 329 334 337 352 351 350 351 344 343 349 348 350
305 306 304 305 313 317 316 315 314 314 321 318 316 314 315 316 317 317 317 319 323 325 327 327 328 327 327 327 327 327 328 328 327 327 329 333 337 351 352 349 348 343 349 347 348
304 305 311 316 316 317 315 316 314 317 318 316 317 316 315 316 317 317 318 317 319 321 323 324 325 327 326 326 326 326 326 328 328 327 328 328 333 339 354 348 343 343 349 348 347
306 305 310 314 316 315 315 317 319 319 319 317 317 316 317 318 317 317 318 319 318 319 319 319 321 325 327 326 326 327 326 327 328 328 328 327 327 334 341 346 343 344 349 350 349
308 305 313 313 315 315 316 320 321 321 319 318 316 316 316 317 317 317 317 318 319 320 319 321 322 321 324 328 327 327 327 328 330 329 328 329 328 329 331 346 346 346 348 348 351
309 313 315 316 315 315 317 323 323 320 319 318 318 317 317 317 316 317 317 318 319 320 320 320 319 322 323 323 325 327 329 327 328 329 330 330 330 329 330 332 349 345 340 343 348
310 316 316 316 316 316 320 322 321 318 318 318 318 318 318 319 318 318 317 319 318 319 318 318 318 320 321 323 324 324 326 328 328 331 333 330 333 332 332 331 336 347 347 347 349
315 320 317 316 316 319 323 322 320 317 316 317 319 319 319 319 319 319 318 318 317 317 317 317 317 318 319 321 323 324 325 327 328 330 331 331 332 334 337 333 333 347 344 339 341
319 321 316 317 320 320 321 317 314 317 316 317 317 317 317 318 318 319 319 318 316 316 316 317 317 318 318 319 320 320 324 325 329 332 331 331 331 332 334 333 333 332 342 341 343
320 319 317 318 321 320 318 317 315 316 316 316 317 317 316 316 316 317 317 316 316 315 316 316 317 318 318 318 319 319 319 321 323 325 332 334 331 331 333 333 333 331 331 340 345
320 321 319 317 317 318 318 317 317 314 315 314 315 315 315 315 315 316 315 315 314 314 314 313 314 316 319 320 319 319 319 319 320 324 324 326 330 334 333 332 333 332 332 333 342
318 317 316 318 317 317 317 317 316 316 314 314 315 314 314 315 315 315 315 315 314 315 313 313 314 314 315 316 316 316 318 318 319 321 326 326 327 331 335 335 333 334 337 333 333
317 318 316 314 315 316 315 315 314 314 314 315 315 314 314 315 314 314 314 315 315 315 315 315 314 313 314 314 316 317 317 317 317 319 321 322 326 329 330 331 331 335 339 341 342
316 316 317 314 315 316 315 315 314 313 313 312 312 313 313 313 312 312 312 312 313 314 314 315 317 317 317 314 314 316 316 317 317 318 320 323 325 328 328 333 331 334 337 340 341

GFSSW_850_thetae_069.txt.gz
Theta_e
305 305 305 305 305 306 306 307 307 308 309 309 309 309 309 310 310 310 310 319 317 320 320 322 319 337 343 350 350 350 355 360 360 351 349 347 352 353 353 352 352 352 350 349 346
305 305 305 305 305 306 306 307 307 307 308 309 309 309 309 312 312 310 311 317 319 318 317 326 325 332 338 345 348 347 355 357 349 350 351 349 351 354 354 355 353 351 350 349 346
305 305 305 305 305 306 307 307 307 307 307 308 308 309 309 312 319 324 315 316 319 319 316 329 329 333 337 342 345 346 350 351 352 350 353 354 355 353 354 356 352 351 350 349 347
305 305 306 306 306 306 306 307 308 308 307 308 308 309 310 312 329 325 323 321 318 319 315 328 332 333 338 340 342 344 345 347 351 352 354 355 354 351 351 352 352 350 349 349 349
305 305 306 307 307 306 306 307 308 308 308 308 308 311 312 322 320 322 319 317 319 317 315 328 336 337 338 340 341 342 343 344 347 351 354 354 352 344 349 352 352 350 349 349 348
304 305 307 307 308 306 307 307 308 308 308 309 312 312 312 323 320 320 323 323 315 318 315 328 339 339 339 339 338 339 340 341 347 351 350 351 352 350 350 351 352 350 349 349 348
305 307 309 309 308 306 307 308 309 308 309 310 315 320 325 327 320 320 322 326 322 320 317 337 339 340 338 336 337 336 331 332 340 351 352 353 356 355 351 350 351 350 349 348 347
307 309 310 309 309 306 307 308 309 308 311 312 315 319 327 320 318 320 321 326 329 325 320 331 332 335 336 334 333 331 327 329 332 341 351 352 361 355 351 353 351 350 349 348 348
310 310 310 309 309 306 307 309 312 308 312 312 317 329 330 319 318 319 320 326 329 327 323 322 324 331 333 328 328 330 327 329 330 333 342 349 356 354 347 348 351 350 349 349 349
310 309 309 309 308 306 310 313 314 311 311 315 316 324 324 320 318 317 321 325 328 327 325 323 326 329 329 325 328 329 326 326 328 333 336 352 356 348 345 350 352 351 349 348 349
308 307 307 307 307 308 315 317 319 321 314 325 324 324 319 317 318 319 318 325 328 326 325 328 326 329 329 326 326 327 329 328 327 330 333 350 353 347 342 346 353 351 349 348 349
306 306 306 306 306 311 315 316 315 315 315 317 318 319 316 316 318 321 322 321 328 330 329 329 328 328 329 328 328 327 327 328 328 327 341 354 353 348 343 349 350 347 350 349 349
305 305 306 306 310 314 315 316 315 315 315 316 317 316 316 315 317 322 324 324 326 329 327 324 328 329 330 329 326 325 326 326 327 326 338 349 352 350 347 345 347 349 349 349 349
304 305 305 309 315 317 317 316 316 316 314 318 316 315 315 315 315 319 320 320 324 325 326 326 325 325 328 328 326 322 325 326 326 324 324 336 352 350 346 347 349 350 346 348 348
306 305 304 306 312 316 315 315 315 315 319 317 315 315 315 315 317 317 317 318 321 323 324 325 326 327 327 326 324 324 325 325 326 324 323 324 324 351 346 349 349 346 347 345 348
310 305 309 316 317 317 315 315 316 315 319 316 316 315 315 315 316 317 318 317 318 318 318 320 322 322 324 326 325 325 324 323 323 323 323 322 323 350 350 349 344 344 342 346 348
311 305 309 314 316 315 315 316 317 317 318 316 315 315 314 315 316 317 317 316 315 316 317 318 317 318 321 324 324 324 323 321 322 323 324 323 322 321 349 347 342 343 345 346 347
309 308 315 314 315 315 316 317 322 320 318 317 316 316 316 316 316 317 317 316 317 317 317 317 318 317 320 323 326 324 321 321 325 324 324 323 324 324 339 347 344 344 342 345 348
310 314 316 316 316 316 316 322 319 319 318 318 318 316 316 316 316 316 317 316 318 317 318 316 318 318 319 320 323 325 324 323 322 323 324 325 325 325 325 343 344 342 342 349 349
313 316 317 317 317 316 318 321 318 317 317 318 318 318 318 318 317 316 316 317 318 317 316 316 315 317 318 318 320 322 323 321 321 324 325 326 326 327 329 332 343 342 348 345 348
318 320 317 316 318 318 320 320 318 317 317 317 317 318 317 318 318 318 318 316 317 316 316 316 316 315 316 317 317 318 319 321 321 322 324 324 325 325 327 328 333 344 345 340 340
319 320 317 318 320 321 317 316 316 316 316 317 317 317 317 316 317 317 318 316 316 315 315 315 314 314 315 316 317 316 316 316 321 323 325 327 328 327 325 326 335 343 347 343 344
319 320 318 318 318 318 318 317 314 315 315 315 316 315 315 315 316 316 316 316 315 315 315 313 313 314 315 314 316 317 317 315 314 317 319 322 325 327 329 330 334 338 344 345 344
320 319 318 316 317 317 318 317 316 315 314 314 315 315 314 314 314 315 315 315 315 315 315 314 312 312 313 314 313 315 316 316 315 314 316 318 321 322 329 329 330 332 341 343 345
319 317 315 315 316 315 315 315 315 314 314 314 316 315 314 315 314 314 314 314 315 317 314 312 311 311 311 312 313 313 315 316 316 315 316 317 318 319 329 329 331 333 339 342 345
316 318 315 315 315 315 315 315 314 313 314 313 314 313 313 313 313 313 312 312 313 314 315 314 314 313 315 314 313 313 314 315 316 316 316 316 317 319 320 328 329 331 334 335 340
317 317 317 315 315 314 314 314 313 313 313 313 312 312 313 313 312 312 311 311 311 311 312 312 313 314 314 314 314 314 313 314 314 315 316 315 315 317 318 320 332 337 334 336 336

GFSSW_850_thetae_072.txt.gz
Theta_e
305 305 305 305 305 305 306 307 307 307 307 308 309 309 309 309 311 311 310 316 316 320 317 320 317 331 336 348 350 350 353 359 358 350 350 349 352 352 352 351 351 351 348 342 347
304 305 305 305 306 306 306 307 307 307 307 307 308 308 309 309 312 312 312 312 317 319 321 322 317 334 334 343 350 350 350 356 351 349 352 350 350 353 353 351 350 350 345 346 348
305 305 305 306 306 306 306 306 307 308 308 307 308 308 308 310 317 324 318 312 317 317 318 321 320 333 332 337 345 347 351 349 350 351 353 353 354 353 353 353 351 350 348 347 347
304 305 306 306 307 307 306 306 307 308 308 307 308 308 309 311 329 325 320 316 319 319 318 323 327 329 332 336 340 341 344 346 347 353 355 354 350 349 352 353 350 348 345 347 348
304 305 306 308 308 308 306 307 307 308 308 308 308 311 312 315 315 321 319 319 320 318 318 320 325 331 332 335 338 339 340 343 343 352 355 351 347 350 350 352 351 349 347 347 347
304 306 307 309 309 309 307 307 307 308 308 308 310 314 312 320 320 320 320 322 317 319 318 317 332 333 337 334 336 339 338 337 336 355 354 352 349 347 350 352 350 349 348 347 347
306 308 309 310 310 309 308 307 308 309 308 310 313 319 323 322 320 320 319 324 323 318 317 320 333 331 338 334 337 336 332 328 349 352 351 349 353 354 349 352 350 349 348 348 347
310 310 310 310 309 309 308 307 308 311 308 311 314 320 322 322 320 320 319 322 327 326 317 326 329 332 332 334 331 328 326 326 335 351 351 351 359 352 351 351 350 349 348 348 348
309 309 309 308 308 309 307 308 311 313 309 312 313 327 326 322 318 317 319 320 324 328 323 319 322 321 323 329 324 324 329 329 327 348 352 351 358 350 346 350 350 349 347 347 347
307 307 306 307 307 307 308 314 314 316 310 316 316 322 321 319 317 318 318 320 327 328 326 323 321 321 323 324 326 328 328 324 325 326 349 352 356 351 353 352 351 350 348 347 347
305 305 305 305 306 306 315 316 316 318 314 315 323 319 320 317 318 317 322 322 327 328 322 323 322 324 326 326 325 325 325 325 326 327 326 351 355 353 350 349 352 350 349 347 347
304 304 305 306 306 308 313 316 315 314 314 315 316 316 319 317 316 318 320 323 325 323 323 325 325 324 326 327 327 326 325 324 324 327 345 354 355 348 349 351 351 351 349 348 348
309 305 305 306 311 314 316 315 315 315 313 315 315 317 318 315 315 322 321 321 325 327 326 326 327 327 327 327 328 326 325 325 324 339 346 349 352 347 344 349 351 351 349 349 348
310 307 305 312 316 316 315 315 315 315 309 314 315 315 315 315 315 320 322 320 323 326 327 324 324 324 326 327 326 325 322 324 324 322 322 339 355 350 346 349 351 351 347 348 349
311 307 305 311 315 315 315 315 315 314 316 316 313 314 315 314 316 316 317 317 319 320 319 320 324 325 325 324 324 326 325 322 323 321 321 322 322 335 345 348 351 350 346 348 348
312 306 307 315 316 315 314 315 316 311 317 314 314 314 313 314 315 317 317 317 317 316 316 315 318 321 322 324 323 324 322 319 318 318 320 320 320 332 345 346 346 350 350 349 348
311 306 309 314 315 315 315 316 313 314 315 314 313 312 312 313 314 315 316 315 313 313 315 316 317 316 318 319 321 322 317 318 321 319 319 318 320 320 340 343 342 347 349 348 348
309 314 315 316 316 315 316 313 318 318 316 316 315 313 312 313 314 315 315 312 315 313 312 315 316 315 316 316 320 323 317 318 322 321 321 319 322 322 328 341 342 342 346 348 345
314 315 316 317 316 316 316 316 315 315 315 315 314 314 314 314 314 315 314 313 315 313 314 313 316 316 317 316 316 322 322 318 318 318 319 320 321 322 323 335 343 341 343 345 345
316 317 317 316 316 316 313 314 315 315 315 314 315 315 315 315 315 313 314 314 315 314 313 314 314 314 317 315 315 313 315 319 315 322 323 321 323 322 323 331 338 342 342 345 347
320 319 317 317 318 317 311 315 314 315 315 314 314 313 313 313 314 313 313 314 314 314 312 310 311 313 314 312 314 313 313 312 315 317 321 321 321 325 327 334 336 340 343 342 346
319 312 317 318 314 312 310 313 314 313 314 313 313 312 313 313 313 313 314 314 315 314 314 311 308 311 313 313 314 314 312 309 312 314 317 321 323 323 327 329 337 341 340 342 346
319 318 316 317 311 310 312 313 313 312 313 312 313 312 311 310 313 313 313 314 315 313 312 312 308 310 311 311 310 312 311 311 310 308 314 317 317 319 326 333 338 341 342 344 344
317 311 315 315 314 311 313 312 313 313 313 313 312 312 310 311 309 312 313 313 315 316 316 312 306 309 310 311 310 311 311 311 310 310 311 313 314 314 318 325 330 339 341 343 342
316 312 314 311 311 310 310 311 313 312 312 312 312 312 310 311 310 311 310 310 312 314 313 308 308 310 310 312 313 313 313 312 311 312 314 313 312 313 315 317 332 336 341 342 344
317 317 315 313 313 310 309 310 312 312 311 311 311 312 309 310 311 311 309 308 310 309 310 309 311 311 312 313 312 312 312 313 313 313 313 313 314 323 325 333 335 336 338 338 338
317 318 316 312 310 309 310 312 312 312 312 312 312 310 310 311 311 311 311 310 309 308 307 308 309 310 311 312 311 310 310 312 312 312 319 324 321 321 322 326 324 327 333 336 337

GFSSW_850_thetae_075.txt.gz
Theta_e
305 305 305 305 306 306 305 306 307 307 307 307 307 308 308 309 309 310 311 312 317 318 318 323 320 320 344 347 349 349 354 358 355 354 352 349 353 352 351 350 348 350 345 345 347
305 305 305 306 306 307 306 306 306 307 307 307 307 307 308 309 310 312 313 311 318 320 319 320 318 328 336 344 349 349 351 355 350 347 351 350 352 348 353 350 350 347 344 348 346
309 306 305 306 307 308 308 306 306 307 308 308 307 308 308 309 313 323 318 311 317 319 320 320 318 331 332 336 346 348 352 349 350 352 347 350 351 349 352 352 350 345 346 347 347
307 307 306 306 308 309 309 307 306 307 308 308 307 308 309 311 323 323 317 311 317 318 318 323 324 330 331 335 338 343 343 348 347 352 353 351 347 350 350 353 351 344 347 347 347
305 306 307 307 309 309 309 308 306 307 308 307 308 310 312 312 313 321 319 317 316 317 317 321 324 329 330 332 335 339 339 339 340 343 354 348 347 346 347 350 350 345 347 346 346
308 309 309 309 309 310 309 309 306 307 308 307 308 314 312 312 320 320 320 320 318 318 318 319 327 331 332 333 334 338 337 337 337 351 350 349 349 347 351 350 351 348 347 346 345
309 309 309 309 309 309 309 308 306 307 309 309 311 316 320 318 321 320 319 325 316 319 318 317 329 332 335 335 335 335 336 329 351 353 352 346 347 352 350 352 352 349 347 347 345
307 307 307 307 308 308 308 307 306 309 310 310 313 317 320 324 323 322 320 322 324 317 318 316 324 327 329 332 329 327 324 326 350 350 348 349 356 351 350 350 351 349 347 347 347
304 305 305 305 306 307 308 307 309 312 312 310 313 321 325 324 321 317 319 320 324 324 319 317 317 324 322 324 323 322 329 329 328 349 350 350 354 350 352 345 350 349 348 347 347
304 304 304 305 305 306 307 313 316 314 313 311 315 321 318 319 318 319 320 319 320 325 323 321 320 318 320 323 329 328 328 325 325 348 351 353 353 351 351 350 350 349 348 347 347
308 307 305 305 306 307 314 315 315 316 314 313 318 316 320 318 317 317 317 318 326 326 322 321 320 322 323 324 326 326 325 325 325 325 325 350 352 351 350 349 350 349 347 347 347
309 308 305 305 306 313 315 315 315 314 313 314 315 315 318 318 317 318 317 324 326 323 321 322 322 322 324 326 326 327 326 325 324 331 335 351 354 350 351 349 351 349 347 347 347
311 308 305 310 314 315 315 315 315 314 312 314 314 315 317 316 315 318 318 321 323 324 322 324 327 326 326 326 327 326 325 325 325 330 347 349 356 353 349 349 349 351 350 347 346
312 307 307 314 315 315 314 315 315 314 308 313 314 315 316 315 314 318 320 322 322 325 325 325 325 326 325 326 325 326 323 325 324 320 321 341 356 352 346 347 348 351 351 349 347
312 307 306 313 315 314 314 315 315 314 314 316 313 314 315 314 316 316 318 319 319 320 320 324 322 323 322 322 324 325 324 322 322 320 320 324 326 338 345 348 349 350 351 350 349
311 306 309 314 315 314 314 316 315 311 315 314 313 313 312 313 314 316 317 317 316 315 315 315 317 321 322 323 322 323 323 317 314 315 318 319 319 323 345 347 345 349 350 351 349
307 310 311 314 314 315 316 316 312 314 314 316 312 312 311 312 313 315 315 312 313 312 314 315 316 314 315 317 318 317 316 318 319 318 319 317 319 320 337 341 342 345 349 350 350
314 315 315 316 316 316 316 311 315 316 314 314 315 311 313 312 313 313 312 311 313 310 311 314 316 314 315 315 316 321 316 317 321 319 320 316 320 322 320 325 334 342 346 348 349
316 316 317 316 316 316 316 311 313 314 314 314 314 314 314 314 312 313 312 312 313 311 313 314 315 314 316 314 314 318 318 317 315 315 319 318 320 321 327 333 336 340 343 348 348
318 317 316 317 317 317 312 313 313 313 313 312 313 313 313 313 314 311 312 313 314 312 311 313 314 313 314 314 313 312 312 316 313 320 323 319 320 326 329 332 336 339 341 345 348
317 317 316 317 317 315 310 312 313 313 314 313 312 312 312 312 312 312 312 314 313 313 311 310 310 312 311 312 312 311 311 309 311 314 318 320 321 321 327 329 338 340 341 341 345
317 311 315 316 314 307 307 310 313 312 313 312 311 311 311 310 310 312 313 312 314 313 313 309 306 310 312 309 311 310 310 307 310 313 311 317 321 314 315 325 336 339 341 342 343
317 315 314 317 310 308 311 312 312 311 311 311 311 310 309 310 312 311 313 313 315 313 311 311 308 311 310 308 308 309 309 309 306 305 310 313 315 314 318 318 330 338 341 342 342
315 309 314 314 312 309 311 310 312 312 311 311 310 310 309 309 308 311 311 312 312 316 315 311 304 308 310 311 309 312 312 309 308 309 310 311 311 316 322 326 332 336 339 342 343
314 311 311 309 310 309 308 310 312 312 311 311 311 310 309 309 309 310 309 309 310 310 311 305 308 310 309 311 312 312 312 312 310 311 312 312 311 322 322 326 326 331 336 338 338
317 316 312 310 310 309 307 310 312 311 310 311 310 310 309 309 310 311 309 309 309 308 307 306 309 311 310 311 310 311 310 311 311 311 312 314 317 319 320 323 323 325 329 332 335
317 315 314 310 308 308 309 311 312 311 311 311 311 309 310 310 310 310 310 310 309 309 307 306 307 307 310 310 309 307 309 310 311 316 315 319 320 318 318 321 321 321 323 325 330

GFSSW_850_thetae_078.txt.gz
Theta_e
311 308 305 305 306 307 307 307 306 306 307 307 307 307 308 308 309 309 310 311 316 317 324 324 320 322 345 348 349 349 352 357 355 354 353 349 354 352 351 349 348 348 345 345 340
312 310 308 306 306 307 308 308 307 306 306 307 307 307 308 308 309 310 313 311 318 316 320 322 320 322 345 346 348 349 352 353 349 349 351 351 348 350 347 349 346 347 345 344 340
308 308 307 307 307 308 309 308 308 307 306 307 307 307 308 308 311 323 318 311 317 318 317 322 320 326 336 339 346 349 352 349 350 350 351 350 347 349 351 352 347 347 346 344 342
305 306 307 308 308 308 309 309 308 306 307 307 307 307 308 311 322 321 315 311 317 319 320 319 322 331 333 334 339 346 344 347 349 351 350 350 350 350 350 351 349 345 344 346 345
308 309 309 309 309 309 309 309 308 306 307 308 307 308 312 311 312 320 312 315 319 319 320 319 327 330 332 333 335 340 342 341 341 344 352 347 348 348 351 350 345 347 346 347 345
309 308 308 308 309 309 309 309 308 306 307 308 308 310 313 311 321 320 319 315 318 319 320 320 327 333 332 332 334 337 338 337 336 340 349 346 345 348 346 350 345 347 346 346 345
305 305 305 306 307 308 308 308 308 306 308 308 310 313 317 316 321 319 321 318 316 317 317 321 326 330 333 335 335 333 335 334 351 350 350 347 348 350 348 352 346 346 346 346 346
304 304 304 304 305 306 307 308 307 307 309 309 311 314 318 321 322 320 321 322 318 317 317 318 326 328 329 330 326 325 324 327 351 349 349 346 353 353 352 353 350 347 346 346 346
308 307 306 305 305 305 306 307 309 310 311 309 312 314 323 324 324 321 320 323 319 318 317 317 319 323 321 323 325 322 329 328 332 349 348 348 352 350 350 352 350 347 347 346 345
309 309 307 306 305 306 307 314 315 313 313 309 314 319 319 321 319 318 319 322 323 320 319 318 318 316 319 323 333 328 327 324 326 350 350 349 350 349 352 348 350 349 346 346 346
311 310 307 305 305 308 312 315 314 316 313 312 315 314 318 317 316 317 318 322 324 323 320 319 317 319 320 323 326 326 324 325 324 324 326 343 349 351 351 350 350 349 347 346 346
312 310 305 306 308 314 315 314 314 313 313 314 314 315 317 317 316 316 317 322 325 323 319 319 319 320 321 324 326 326 326 326 325 331 333 350 352 349 348 349 350 349 348 347 346
313 309 308 313 315 315 314 314 315 313 311 313 314 314 316 316 315 316 317 324 323 321 320 321 324 322 324 325 326 326 325 325 326 326 346 347 351 353 350 348 349 349 348 347 346
313 308 311 314 315 314 314 314 315 314 307 313 313 315 316 315 313 318 318 324 323 323 320 323 325 326 326 327 324 326 323 325 325 319 320 340 341 349 348 348 347 348 350 348 346
311 306 309 314 314 314 314 313 315 314 313 315 313 314 314 313 316 317 319 319 319 322 324 326 322 324 323 322 323 325 322 323 323 319 318 324 330 337 343 345 345 346 347 350 347
307 307 309 313 315 314 314 315 315 309 315 314 312 312 311 312 313 316 316 317 316 313 315 317 315 320 322 322 322 322 318 313 312 313 318 319 321 319 344 345 343 343 346 348 350
314 314 314 314 314 315 316 316 311 314 313 315 313 310 311 311 312 313 312 311 312 313 314 314 315 313 314 316 318 317 316 316 318 317 319 314 318 322 319 325 334 337 345 348 350
315 316 316 316 316 316 316 310 314 315 314 313 313 313 313 312 312 312 311 311 311 309 310 312 315 313 313 314 317 317 316 316 320 318 319 316 319 324 327 333 337 339 339 347 350
317 316 316 316 317 316 315 310 313 312 312 312 313 313 313 313 311 312 311 311 312 310 313 312 314 313 314 312 313 318 315 314 313 314 317 317 323 322 321 328 336 339 340 344 348
317 317 316 316 317 316 310 311 313 312 312 311 313 311 313 312 313 311 312 313 312 311 309 311 313 312 312 312 312 311 311 316 314 320 322 318 323 321 316 316 324 337 338 339 341
317 316 315 317 315 314 309 311 312 313 312 311 311 311 310 311 311 312 313 313 314 312 310 309 308 312 310 309 309 309 309 308 310 312 318 322 320 315 314 319 319 334 338 341 341
315 310 315 317 312 305 307 309 312 311 311 311 311 309 310 309 310 312 314 313 313 311 312 309 306 309 311 309 308 308 308 306 312 314 310 315 315 311 320 326 330 335 338 341 342
315 314 314 316 309 307 309 310 311 310 309 310 311 309 308 308 311 311 312 312 312 315 312 311 307 308 311 309 308 310 309 306 304 305 310 317 316 313 323 326 326 329 336 337 342
314 308 314 313 310 308 310 309 311 311 310 310 310 309 309 308 307 310 311 311 310 315 313 309 306 308 308 309 308 312 311 309 306 309 309 310 312 318 322 324 323 325 330 336 336
314 309 309 307 308 307 307 309 311 310 310 310 310 309 309 309 309 309 309 309 310 310 310 304 309 309 309 310 311 311 311 311 311 310 311 309 314 321 319 322 321 321 325 329 332
317 313 311 309 309 307 306 309 310 310 309 310 310 309 308 309 309 310 309 308 308 308 306 304 310 310 310 310 310 310 309 310 310 311 310 312 317 317 319 321 321 321 322 325 327
315 314 313 308 307 307 308 310 311 310 311 310 310 308 309 310 310 310 309 308 308 308 306 305 306 306 309 309 308 308 309 309 311 314 312 312 316 316 316 319 318 319 321 322 324

GFSSW_850_thetae_081.txt.gz
Theta_e
315 314 313 311 308 306 307 308 308 307 306 307 308 307 307 308 309 309 310 311 315 317 323 324 321 337 342 348 348 350 356 358 355 354 354 351 353 349 349 349 348 347 346 344 342
307 307 308 309 309 308 308 308 308 307 307 306 307 307 307 308 309 310 311 311 315 318 324 323 322 340 345 347 348 350 353 355 349 350 352 349 350 351 348 349 348 347 346 344 342
306 307 308 308 308 309 308 309 309 308 306 307 307 307 307 308 310 321 318 312 315 317 324 324 321 338 342 344 348 350 354 350 349 350 351 349 347 349 350 352 348 347 347 344 343
309 309 309 309 309 309 309 309 309 309 306 307 307 307 308 310 321 322 316 312 316 317 321 322 325 328 340 344 343 350 347 348 349 352 351 350 348 350 348 352 348 347 346 344 343
307 307 307 307 308 308 309 309 309 308 307 307 307 307 310 311 312 319 314 311 317 316 319 322 324 330 337 341 339 346 346 343 343 350 352 350 350 350 350 350 347 346 345 344 344
304 304 304 304 305 307 308 308 309 308 306 307 308 308 312 313 318 318 311 314 319 319 321 320 325 330 336 336 340 338 340 338 337 337 349 349 348 348 351 349 347 346 345 345 345
307 306 305 305 305 305 306 307 308 308 306 308 309 311 315 314 321 318 313 318 319 319 320 320 326 331 335 337 336 333 335 346 350 348 349 346 350 350 350 348 348 347 346 346 346
309 308 308 307 306 305 305 307 308 306 307 310 309 312 318 319 321 318 315 317 319 318 320 320 328 330 331 331 328 330 329 334 353 351 349 349 355 352 350 347 348 347 346 346 345
309 310 309 307 306 305 305 307 309 308 310 310 311 314 323 323 322 319 319 317 316 317 317 318 323 326 323 332 334 329 339 332 351 351 351 350 351 353 352 349 347 346 346 345 345
312 312 309 306 305 305 309 315 313 312 312 309 313 317 321 323 323 320 322 320 317 317 317 317 318 326 328 333 342 337 333 329 341 352 350 352 351 352 353 353 349 347 346 345 345
312 312 307 305 306 312 312 314 314 316 313 313 314 314 317 317 316 321 322 323 319 319 320 318 324 326 332 331 330 330 330 331 328 332 337 339 342 349 352 348 350 348 347 346 345
312 311 307 310 314 314 314 314 314 314 314 314 314 314 316 316 315 321 321 324 322 321 320 319 323 325 328 327 329 331 332 331 328 339 332 349 351 349 349 349 349 349 347 348 346
312 308 311 314 314 314 314 314 314 313 314 313 314 314 316 316 316 318 322 325 325 323 321 320 324 325 327 328 331 331 334 331 330 327 348 349 353 352 351 350 351 351 349 348 347
310 306 313 314 314 314 314 314 314 313 314 315 314 316 315 315 315 316 319 325 326 327 323 323 326 327 326 329 330 334 328 330 329 328 328 346 338 353 350 352 349 351 351 349 348
306 305 312 314 314 314 314 315 314 313 315 315 315 314 314 313 317 316 318 320 326 326 325 326 328 331 332 330 328 331 327 329 328 328 325 335 339 331 349 351 350 347 349 350 348
313 312 311 313 314 314 315 315 314 316 315 316 313 313 314 313 314 315 316 317 317 322 323 320 319 325 328 327 327 325 323 322 322 324 327 328 334 337 338 338 340 341 346 348 350
315 315 316 315 315 316 315 315 317 318 316 316 315 313 313 313 315 316 316 316 318 324 327 317 317 316 316 324 324 325 326 327 328 327 328 322 331 338 335 336 340 341 340 342 348
316 316 316 316 316 315 316 316 319 316 316 315 314 315 315 315 315 315 316 317 315 315 318 323 320 317 316 317 323 326 327 327 329 328 327 322 332 332 322 325 330 339 341 343 346
317 317 316 316 315 315 315 317 315 314 314 315 315 317 316 315 316 316 315 316 315 314 321 319 317 315 315 315 316 321 324 320 323 320 327 325 327 327 325 331 334 340 342 343 343
317 317 315 316 315 315 316 314 315 313 313 313 316 315 317 315 316 316 316 315 316 314 312 315 318 314 314 314 315 319 316 324 324 327 327 328 327 326 331 336 338 337 339 343 344
316 316 315 317 315 313 315 314 314 312 312 313 313 314 313 315 315 316 315 315 315 315 313 314 317 316 315 314 314 317 319 319 322 322 327 330 326 324 333 335 333 334 339 342 346
314 316 314 316 315 310 314 313 312 312 312 313 313 313 313 313 315 316 315 314 313 314 315 313 315 316 314 312 312 312 314 316 326 325 322 326 322 328 331 331 330 332 337 339 341
314 314 313 315 316 314 312 313 311 312 312 313 313 312 311 312 316 315 314 312 313 315 315 314 314 317 315 315 314 315 314 313 314 317 324 326 321 326 330 331 329 330 334 334 335
313 314 313 312 309 313 312 313 313 311 310 311 312 311 313 313 313 314 314 312 311 315 313 312 313 315 317 316 314 315 313 313 315 321 320 320 318 324 329 330 328 330 331 331 330
313 311 309 313 312 311 312 312 312 312 311 311 312 312 312 314 314 314 313 313 312 311 312 313 315 314 314 313 313 313 313 313 314 315 319 317 319 325 327 327 325 327 329 328 328
315 313 310 309 309 312 311 312 312 312 312 311 312 311 312 313 312 314 313 313 313 312 312 311 315 314 314 312 312 313 312 312 312 312 314 315 319 321 323 323 323 323 324 325 325
314 313 313 309 312 313 313 312 312 311 311 311 311 312 312 311 310 310 309 309 310 312 312 312 314 315 314 312 311 312 312 311 312 314 314 313 319 320 321 320 319 320 320 320 321

GFSSW_850_thetae_087.txt.gz
Theta_e
314 312 311 309 308 309 312 311 308 309 309 307 306 307 307 308 308 308 313 317 318 315 329 337 340 339 345 347 351 353 360 358 357 358 359 355 353 351 352 351 351 352 344 342 343
311 311 311 310 309 309 310 311 310 309 309 308 307 307 307 307 308 317 317 314 314 314 331 337 335 339 344 347 352 354 359 354 352 353 357 355 350 351 353 352 352 349 343 342 343
305 305 306 308 309 308 309 310 311 309 309 308 307 307 307 307 321 320 318 311 314 315 334 330 333 338 342 347 353 353 355 350 351 352 353 354 351 349 352 354 352 347 343 342 344
308 306 305 305 305 306 307 308 310 310 309 309 307 307 307 310 328 330 319 312 314 317 333 328 330 336 342 344 352 355 351 349 348 350 350 352 349 348 349 354 352 348 344 342 343
309 309 308 306 306 305 306 307 309 310 309 309 307 307 308 321 322 322 319 315 314 328 329 328 329 336 340 341 351 352 350 346 346 349 350 351 352 350 352 352 351 349 343 342 342
309 310 310 309 307 306 306 306 307 309 309 308 307 308 312 322 324 323 318 314 320 329 328 327 328 333 333 338 348 349 349 345 343 345 351 352 351 351 351 351 349 348 344 342 342
312 312 312 310 307 306 306 306 307 309 309 307 308 309 322 322 326 323 321 318 324 328 327 327 326 327 332 337 345 345 347 344 344 346 352 350 352 354 351 350 348 346 344 342 341
312 313 312 310 306 305 305 306 307 308 308 307 308 313 327 323 325 324 325 323 325 326 324 324 325 326 331 336 340 346 346 350 346 351 351 351 360 352 350 349 346 345 343 342 341
311 312 311 307 305 305 306 309 308 307 307 309 314 324 326 322 324 326 325 323 323 323 323 324 325 327 332 337 341 346 350 350 352 351 352 354 359 352 351 349 346 345 344 343 343
313 312 307 306 307 310 314 313 311 309 310 310 323 323 326 323 323 324 324 322 322 323 323 322 325 330 332 339 341 343 345 349 352 352 350 352 358 353 352 350 349 346 345 344 344
312 308 308 314 314 313 315 319 324 324 318 322 319 322 323 324 323 323 322 322 322 323 324 322 326 329 330 332 338 340 342 344 351 348 350 351 353 357 350 352 350 349 347 346 345
308 309 313 314 314 314 317 320 318 318 321 319 318 321 324 325 322 324 324 322 322 325 325 324 325 327 328 330 335 340 341 342 347 347 345 347 352 355 353 352 352 350 348 347 346
306 313 314 314 314 315 318 317 316 317 321 320 317 319 321 324 323 324 323 323 323 324 326 326 326 327 327 330 336 340 341 342 342 340 338 341 352 357 353 353 352 351 350 348 345
311 311 314 314 316 317 318 316 316 316 323 320 318 320 321 321 322 323 324 326 324 325 326 326 326 327 327 334 336 338 338 337 339 341 344 344 351 353 355 354 352 350 350 350 347
316 311 313 314 313 317 318 316 316 317 325 319 318 320 320 321 323 323 324 326 327 325 326 326 326 327 329 333 333 334 338 338 336 338 341 344 353 354 355 358 355 352 351 351 348
316 316 315 317 315 317 316 317 317 320 323 319 320 320 321 321 323 324 325 327 328 329 326 327 325 328 329 331 332 334 336 338 337 337 339 337 345 356 353 352 350 350 351 352 351
316 316 316 316 320 319 318 319 322 324 322 320 319 320 321 321 323 324 326 325 329 331 329 329 327 330 331 332 332 335 336 339 339 338 337 335 342 350 344 344 346 346 347 350 352
317 317 319 318 318 318 319 323 326 323 321 320 318 319 320 321 323 324 324 325 328 330 328 329 330 331 332 334 334 334 334 336 338 337 334 334 344 342 340 343 345 347 348 347 347
318 320 320 319 317 318 320 324 325 322 319 320 318 319 319 321 323 324 324 325 325 326 327 328 327 325 327 330 329 334 333 331 332 334 334 338 339 340 342 344 344 344 348 353 347
319 321 321 319 318 319 323 320 321 318 318 320 319 319 321 321 322 323 325 323 324 323 324 328 327 324 323 324 327 329 332 333 332 335 335 340 341 342 343 344 342 342 345 349 351
319 321 320 318 319 321 325 322 320 317 318 321 320 319 320 321 322 323 323 321 321 323 323 326 327 325 323 325 328 329 331 332 332 332 335 340 341 340 343 343 343 339 339 342 348
320 322 318 317 323 321 323 321 316 319 318 319 320 321 320 320 322 321 322 322 320 321 323 325 326 326 324 324 324 326 329 331 332 333 331 335 340 339 339 341 340 337 335 339 341
319 318 317 319 323 320 318 318 318 319 320 320 320 320 321 320 320 320 320 318 319 322 324 323 325 327 325 324 324 325 327 328 330 331 333 333 341 338 337 339 339 336 335 334 336
319 321 317 318 318 320 319 318 318 316 318 319 319 320 321 322 322 321 321 319 319 318 314 319 324 326 326 326 325 325 325 326 328 331 332 334 340 340 339 340 337 336 334 332 332
317 318 319 321 318 318 318 318 317 317 317 318 319 320 322 322 322 322 321 320 319 316 320 321 322 324 323 321 323 325 324 323 326 328 330 337 339 338 336 337 335 334 334 334 333
319 318 316 318 318 318 315 317 317 316 318 317 318 318 320 323 323 322 321 321 322 321 322 321 323 323 322 320 320 320 320 320 323 325 328 332 336 333 332 332 332 332 332 331 331
317 317 318 317 319 318 317 316 315 315 314 315 316 317 319 319 318 319 320 320 321 323 322 322 322 323 322 321 319 319 320 320 321 323 326 333 334 331 331 329 329 329 328 328 328

GFSSW_850_thetae_090.txt.gz
Theta_e
310 311 312 313 312 311 309 311 312 309 309 309 307 307 307 308 307 307 310 315 318 319 318 325 327 333 341 347 351 353 360 361 358 361 361 354 353 352 350 352 352 352 343 344 343
306 306 305 306 309 311 310 309 311 311 309 309 308 307 307 308 307 312 314 315 317 318 323 331 336 340 341 347 351 354 360 356 354 356 358 353 352 354 353 353 350 344 343 343 343
309 309 306 305 305 306 309 308 310 311 309 309 308 307 308 308 318 321 319 315 314 316 332 337 339 337 343 346 351 354 357 351 352 354 356 353 351 352 353 354 345 343 343 343 342
309 310 309 308 306 306 306 307 308 310 310 309 308 307 307 308 331 330 322 318 312 316 336 336 333 338 342 346 352 356 353 350 351 353 353 353 351 351 352 352 346 343 343 342 342
310 310 310 310 308 307 306 306 307 309 310 309 308 307 307 321 318 328 322 315 312 316 337 334 330 337 341 344 351 351 352 351 351 351 352 351 350 349 353 354 348 344 343 342 342
312 312 313 312 310 307 306 306 306 308 309 309 308 307 308 322 325 326 319 317 314 322 336 331 329 334 339 345 350 346 351 348 348 351 352 353 350 351 352 352 349 345 343 342 341
311 312 313 312 309 307 306 306 306 308 309 309 307 308 322 321 326 325 322 318 319 326 331 329 328 332 334 337 344 350 354 347 345 352 353 351 353 354 352 350 350 345 343 342 341
313 312 312 310 306 305 305 306 307 308 309 308 308 311 324 321 325 324 322 320 320 327 330 328 328 328 330 335 339 349 348 349 346 352 352 351 360 352 351 349 349 345 343 341 341
313 312 309 306 306 306 308 310 309 308 308 308 310 318 323 326 324 324 325 323 324 329 328 327 326 326 328 335 341 346 352 350 349 351 353 353 356 350 351 348 347 344 343 342 342
311 307 307 312 313 315 313 312 309 308 309 310 325 324 323 326 323 326 326 325 325 327 325 325 325 327 329 336 341 344 348 349 352 353 352 355 356 352 351 347 346 345 343 342 343
307 308 314 314 314 315 315 323 323 327 320 321 322 324 326 325 324 325 325 324 324 325 327 325 325 327 329 334 339 341 343 349 347 351 354 356 355 352 350 347 346 345 344 344 343
306 312 314 314 314 315 318 323 319 320 322 321 321 320 324 324 324 323 324 323 324 326 326 325 324 327 329 331 335 339 340 349 346 343 350 356 356 353 351 349 348 347 345 345 344
309 313 314 314 314 316 318 319 317 318 320 324 321 320 325 325 324 324 323 323 324 325 326 326 325 326 328 329 331 335 339 347 348 345 346 351 358 355 352 353 350 349 347 346 345
315 309 314 314 316 319 320 318 317 318 323 325 322 320 323 325 325 324 325 323 324 325 325 326 326 326 327 328 330 333 338 343 347 339 349 349 364 357 356 355 353 351 349 348 347
316 316 311 312 311 317 318 317 317 318 327 322 321 321 322 323 324 324 324 323 327 324 325 326 327 327 327 328 330 334 339 341 342 340 339 342 356 354 339 355 354 352 351 348 346
316 316 316 320 321 320 319 318 318 321 326 321 320 322 323 322 323 324 324 325 327 326 325 326 326 327 328 329 334 335 335 340 340 339 341 343 343 359 348 345 352 351 350 350 349
317 317 317 318 320 320 319 319 322 323 325 323 322 322 322 322 324 325 325 327 330 330 327 327 327 327 327 330 332 333 335 341 340 338 338 341 343 355 345 343 341 353 351 351 351
317 317 318 320 321 320 321 323 328 325 324 324 321 321 322 322 323 326 326 328 328 329 329 326 331 327 329 330 333 332 336 339 340 338 336 336 350 348 339 347 349 350 350 343 342
317 318 322 322 321 319 321 326 326 324 324 322 320 321 321 321 324 325 326 326 326 329 331 328 329 328 331 333 334 332 335 335 336 335 336 343 344 344 347 347 347 348 351 353 350
314 321 324 320 320 321 324 323 324 321 320 320 321 320 321 322 323 325 325 326 326 327 327 329 330 330 329 329 331 332 332 335 336 338 337 345 347 351 349 348 345 345 345 348 349
315 323 323 321 319 323 326 324 320 319 319 323 321 320 321 323 324 326 326 325 324 325 325 327 329 327 326 328 330 331 332 333 334 334 336 345 346 345 348 346 344 343 344 344 344
322 325 321 317 321 322 323 321 319 319 318 319 322 321 321 323 324 325 325 323 321 322 325 327 327 328 326 325 326 330 331 332 334 338 340 348 349 342 343 342 341 340 341 342 340
323 319 318 320 324 323 319 319 319 320 321 320 320 321 321 321 323 323 323 320 320 322 324 324 327 329 327 325 325 327 328 330 331 333 339 339 344 341 342 341 340 338 337 337 338
322 322 319 318 319 320 320 319 319 317 320 321 321 319 321 323 321 322 322 320 320 319 317 322 324 328 328 327 326 326 327 329 329 331 334 341 343 343 341 340 338 337 335 335 335
321 318 320 321 319 320 320 319 319 319 318 320 321 322 322 322 321 323 321 321 320 318 320 321 323 325 327 324 324 325 325 327 327 329 340 343 342 343 340 338 337 336 336 335 335
321 320 318 319 319 319 316 318 318 318 319 318 321 320 321 325 324 323 321 321 320 321 321 321 322 324 324 323 322 324 324 324 325 326 332 338 341 338 337 335 335 334 333 333 333
320 319 321 318 321 319 317 317 316 317 315 317 318 319 322 321 320 321 322 322 324 323 322 322 322 322 325 323 322 321 322 322 323 325 336 340 336 334 336 334 334 332 331 331 329

GFSSW_850_thetae_093.txt.gz
Theta_e
307 307 306 306 307 311 313 312 309 312 312 309 308 307 307 308 308 308 309 313 315 320 320 324 316 334 336 339 347 351 356 360 360 358 360 354 350 350 351 352 346 344 345 346 347
309 309 310 307 305 305 308 311 310 310 312 309 309 308 307 308 308 309 312 312 318 319 318 326 323 328 330 338 345 353 356 359 356 354 357 353 351 350 353 353 351 344 345 343 346
309 310 310 310 308 306 306 308 309 309 312 311 309 308 307 307 311 316 321 313 314 318 317 330 327 332 334 340 351 352 357 354 356 354 352 351 351 351 353 353 346 344 343 343 345
312 311 311 311 310 308 306 306 308 308 310 312 309 308 307 307 330 330 324 316 313 315 316 333 336 339 337 340 351 344 350 353 356 354 351 351 353 353 351 348 344 343 342 344 345
312 312 312 313 312 309 307 306 307 307 309 310 309 308 307 317 311 321 322 320 316 314 317 334 337 336 336 339 352 352 353 351 354 353 353 351 351 352 350 348 345 342 343 343 345
312 311 312 312 311 308 306 306 306 307 308 310 309 307 307 318 325 327 325 318 313 315 326 337 338 332 336 338 349 346 346 351 352 352 352 350 350 350 348 346 346 343 342 342 343
313 313 312 311 308 306 305 305 306 307 309 309 309 307 312 313 328 325 323 318 313 316 333 335 335 331 331 334 346 342 346 350 352 352 350 349 353 352 350 348 343 343 342 342 341
311 312 309 306 306 306 306 306 307 308 309 309 307 308 313 322 323 324 322 320 315 318 332 331 330 329 328 332 344 347 352 355 354 352 351 352 358 352 351 351 344 343 342 341 342
308 307 307 311 312 312 312 311 309 309 309 308 310 310 326 324 322 325 323 320 319 322 329 330 329 328 327 326 328 346 352 354 357 352 351 354 357 352 350 350 348 343 343 341 341
306 308 314 314 314 314 314 312 308 308 308 309 324 322 319 326 325 323 325 321 321 324 328 329 326 323 323 324 330 338 347 349 353 352 347 352 354 352 350 349 347 344 343 342 340
306 311 314 314 314 315 317 322 323 324 315 317 321 323 323 327 323 324 326 325 325 327 326 326 322 322 323 325 328 335 342 348 348 345 348 354 353 352 350 349 345 344 342 342 340
310 311 314 314 314 314 315 319 321 319 319 321 322 321 322 323 324 326 326 324 324 324 324 324 323 323 324 326 328 333 337 351 348 347 348 355 355 352 350 347 345 344 342 342 341
315 309 312 314 316 316 317 319 318 317 318 319 322 322 321 323 324 324 324 324 323 323 324 323 324 325 323 326 328 330 330 348 349 348 349 349 352 354 350 347 347 347 344 343 343
316 316 310 311 315 317 317 320 317 317 317 322 323 323 323 324 325 324 324 323 323 323 323 323 325 325 323 324 325 325 331 340 348 348 351 347 354 345 350 350 348 346 347 345 344
316 316 316 316 319 320 318 317 317 318 323 324 323 321 321 324 326 323 324 323 323 322 322 323 324 324 324 325 325 325 340 344 345 344 351 351 353 353 348 352 349 346 349 346 345
317 317 316 316 318 321 321 319 319 318 325 322 321 320 320 322 323 324 325 324 323 324 322 323 325 324 324 325 325 327 334 339 341 341 343 349 354 354 352 352 352 350 350 349 347
314 317 317 317 319 320 321 320 320 326 325 324 322 321 321 322 322 322 324 322 323 326 326 323 323 324 325 326 326 328 332 333 342 341 341 336 351 351 348 344 346 345 344 349 349
313 315 317 319 320 321 320 322 329 325 323 322 322 322 321 321 322 324 323 322 324 326 326 323 324 324 326 326 327 327 329 330 344 338 335 337 352 347 343 342 345 343 347 345 349
310 313 318 321 322 320 322 327 329 324 323 323 321 320 320 322 321 324 324 323 325 326 328 327 325 326 326 326 326 331 330 328 332 332 333 345 344 341 340 340 345 346 339 345 345
311 313 318 323 323 322 320 323 323 322 321 321 320 320 321 322 323 327 326 324 326 325 327 329 326 327 326 329 332 333 329 329 329 336 339 349 349 350 349 349 347 346 345 344 349
318 320 323 323 321 321 324 323 324 320 320 320 322 321 321 323 325 327 327 326 322 323 322 325 324 328 328 329 330 330 328 330 328 331 338 348 349 346 346 344 344 344 341 342 344
317 324 323 319 323 323 323 323 322 319 319 318 321 321 321 323 325 325 327 325 322 321 324 324 322 326 325 325 328 327 329 328 329 332 337 344 348 342 342 341 341 341 339 340 340
319 322 317 319 324 323 322 321 319 320 319 320 321 322 321 321 325 324 324 322 320 320 322 321 325 327 327 323 323 324 325 324 324 329 337 338 347 343 341 339 338 338 338 336 338
320 324 319 319 320 321 321 319 317 316 319 320 321 320 322 321 322 323 323 321 320 319 317 323 322 327 328 327 322 325 325 325 326 328 337 338 346 343 340 337 336 336 336 335 335
322 318 318 319 318 318 319 319 320 318 319 319 321 322 323 324 324 322 323 320 320 319 320 320 323 322 324 326 321 322 323 324 327 335 335 339 346 342 340 336 336 335 334 334 335
321 320 321 319 319 319 316 317 317 317 318 319 320 320 323 324 323 323 323 322 320 320 321 320 322 320 323 323 322 321 323 324 324 337 335 338 344 338 337 336 335 335 334 333 333
321 321 324 322 321 317 316 316 316 318 316 316 317 320 321 321 319 318 319 320 321 322 321 322 322 322 320 323 323 321 321 321 321 333 338 342 338 336 335 334 333 332 330 328 327

GFSSW_850_thetae_096.txt.gz
Theta_e
308 309 310 310 307 305 306 310 313 311 312 314 309 308 308 307 308 308 310 312 314 320 319 321 321 318 337 340 345 349 356 359 357 356 355 352 349 346 349 345 345 345 346 347 348
310 310 310 310 310 308 306 306 310 311 310 313 311 309 308 307 308 310 312 311 314 319 320 322 317 318 327 331 337 349 356 357 352 352 353 351 350 347 351 348 346 346 347 348 348
312 312 312 312 311 310 308 306 306 309 309 312 311 309 308 307 308 317 322 314 313 319 318 319 321 323 325 330 349 348 355 350 353 353 352 350 351 352 351 349 345 345 347 347 347
311 311 312 312 312 311 309 307 306 307 308 310 311 309 308 307 327 330 325 317 312 318 318 318 327 327 333 337 347 346 343 349 354 353 351 349 350 351 350 350 344 345 346 347 346
313 312 311 311 312 311 308 307 306 307 307 309 311 309 307 308 310 322 323 319 313 315 317 319 328 333 337 340 344 345 345 350 352 351 351 351 351 350 348 346 344 344 346 347 346
310 312 312 311 309 307 306 306 306 306 307 309 310 309 307 310 322 325 325 322 316 315 316 320 336 337 336 342 348 348 351 349 352 351 351 351 351 347 347 346 343 343 345 344 345
308 309 307 306 306 305 305 305 306 306 307 309 309 308 308 310 326 325 324 323 315 314 316 335 337 337 334 328 335 349 349 352 353 351 349 350 352 348 346 346 342 342 344 344 343
306 307 309 312 311 310 308 308 308 307 308 309 308 307 309 313 325 322 323 319 315 313 322 335 335 334 332 330 330 347 349 354 353 350 349 350 357 348 345 349 343 343 342 343 345
307 309 313 313 313 312 312 309 308 308 308 308 309 310 312 324 320 324 323 321 313 317 326 331 328 329 327 324 323 343 352 354 357 350 349 351 354 348 347 349 342 342 342 341 345
312 310 313 313 314 315 317 320 308 310 307 308 318 320 317 324 321 325 324 320 318 320 322 324 326 321 319 320 324 329 349 351 356 352 349 350 354 350 349 350 342 343 342 344 345
314 309 313 313 313 314 314 316 323 322 312 314 319 320 321 323 324 324 323 321 320 321 324 326 320 321 321 321 323 325 328 350 349 350 349 352 353 352 350 349 347 343 342 342 344
315 311 311 313 314 315 316 317 318 320 316 318 318 319 322 321 324 323 324 322 321 323 324 320 321 321 322 323 324 326 333 352 349 347 350 348 354 350 349 348 348 343 342 340 342
316 316 312 310 312 317 318 319 319 319 317 317 318 319 321 321 321 323 325 325 322 322 322 321 322 323 324 323 323 322 325 349 351 343 342 346 351 351 350 348 345 343 343 340 342
316 316 316 316 316 318 317 319 319 318 311 316 319 321 321 322 323 325 325 324 321 321 321 321 322 324 324 323 321 320 324 343 351 349 355 345 353 345 345 349 346 346 344 340 340
314 316 316 316 317 319 320 320 319 317 320 323 321 322 320 324 325 324 325 323 321 321 320 321 322 322 323 323 320 322 325 342 347 344 349 348 346 347 342 350 348 348 346 343 340
312 314 316 317 318 320 320 321 320 314 320 324 321 319 319 320 322 323 324 323 323 321 321 320 323 321 321 323 322 323 340 340 342 339 345 346 351 354 349 349 349 347 346 346 344
310 311 314 316 319 319 320 321 317 322 322 323 321 320 318 318 320 321 323 322 321 322 322 323 322 321 322 321 322 325 324 332 344 343 341 344 351 347 347 347 347 347 345 348 347
309 310 313 319 319 319 320 318 325 325 322 321 321 318 318 319 322 323 321 320 319 321 322 324 325 321 323 321 323 325 325 328 342 338 337 344 351 345 346 349 346 348 347 347 347
310 312 315 319 320 321 322 319 322 323 321 322 318 317 320 321 323 323 323 319 321 321 323 325 323 323 325 324 322 324 328 324 330 328 336 346 344 342 343 344 348 347 345 346 347
314 318 321 322 323 322 316 320 321 321 320 320 320 317 321 322 324 323 326 325 323 322 319 324 325 322 325 325 327 324 327 328 324 333 342 347 346 346 342 347 347 344 343 345 346
316 321 323 323 323 320 318 318 322 322 322 318 319 319 320 323 323 325 326 325 324 322 319 322 321 323 324 326 327 327 327 325 324 326 343 349 349 347 347 347 346 343 342 344 345
318 318 323 322 320 318 318 321 321 318 318 317 320 319 320 322 323 324 327 325 324 323 320 319 318 322 324 321 326 325 326 323 326 330 336 339 351 343 342 341 340 340 341 342 345
318 319 320 321 319 317 319 320 320 317 318 320 320 319 318 321 323 323 325 324 323 317 316 317 318 323 324 319 318 321 324 320 320 327 332 339 348 342 340 340 339 338 338 339 341
319 320 319 318 321 317 320 319 315 316 318 319 320 318 320 320 320 322 323 323 322 318 319 322 316 323 324 321 321 319 321 323 320 331 334 339 346 343 340 339 338 336 336 336 337
321 319 318 313 312 313 312 314 316 316 316 317 319 321 320 322 322 322 321 319 319 319 319 318 318 319 320 321 321 319 319 323 330 330 331 344 345 338 337 337 336 335 334 334 333
322 320 323 319 318 313 311 313 314 314 315 315 318 321 320 322 322 322 319 316 319 319 317 314 322 318 322 320 322 319 320 326 332 335 339 341 344 336 335 334 334 334 334 333 333
319 320 323 323 312 310 311 314 315 316 314 315 318 318 317 317 317 316 317 316 316 319 318 317 316 320 322 321 319 318 318 318 329 334 340 343 340 336 336 335 334 333 330 328 327

GFSSW_850_thetae_099.txt.gz
Theta_e
312 310 310 310 310 310 308 306 307 312 311 310 313 309 308 308 307 308 310 312 312 321 319 321 321 320 336 339 344 349 355 357 355 357 353 350 349 347 347 345 344 345 344 345 344
312 312 312 312 312 311 310 307 306 308 312 310 312 311 309 308 308 309 311 311 312 320 320 321 320 320 328 333 338 345 353 356 351 351 352 351 348 348 347 345 346 344 346 345 345
312 311 311 311 312 312 311 309 306 306 310 309 311 311 309 308 308 315 319 311 313 320 320 322 318 321 326 329 342 349 355 349 349 349 351 350 349 349 346 348 345 347 348 347 346
310 312 312 312 311 311 310 308 307 306 309 309 310 311 309 307 313 328 324 318 312 319 318 319 323 323 327 330 347 348 345 350 351 350 351 350 349 352 347 347 346 346 346 347 347
308 310 311 311 310 309 308 307 306 306 308 308 310 310 308 308 310 323 323 318 313 318 318 318 325 329 332 334 342 344 347 351 352 352 350 350 350 350 346 345 347 347 347 347 347
306 307 306 306 306 306 305 305 305 306 307 308 310 309 308 308 314 322 324 316 312 316 318 318 325 329 335 338 344 347 349 347 352 351 350 349 349 349 349 346 346 346 346 347 347
306 308 312 312 311 310 307 307 306 306 307 308 309 309 308 310 321 326 323 321 315 314 317 317 334 337 335 333 342 350 351 350 353 350 350 348 350 349 347 345 346 346 346 346 346
310 310 313 313 313 312 310 309 309 308 308 309 309 308 310 311 326 324 322 320 317 315 314 316 330 335 334 332 332 350 349 354 353 350 350 349 355 346 346 346 344 345 345 345 345
313 310 313 313 314 315 316 315 308 308 309 308 307 308 311 315 323 322 323 320 318 315 313 323 327 329 328 322 322 336 348 352 355 350 350 350 352 346 346 346 342 344 344 344 343
315 309 312 313 313 314 314 314 316 314 307 307 311 319 318 322 321 320 323 321 314 314 317 320 324 321 317 319 325 328 346 352 355 352 350 351 352 345 346 346 343 342 342 343 343
315 315 309 312 313 314 315 315 319 320 316 315 316 319 318 321 323 323 324 321 318 320 321 323 321 321 321 321 323 325 327 352 351 351 349 352 352 347 347 347 342 341 341 343 345
316 316 315 311 315 315 317 317 317 319 318 318 318 317 318 319 320 323 323 320 319 320 322 319 321 319 321 322 324 325 340 352 349 346 350 352 352 349 348 347 343 342 343 343 345
315 316 316 316 316 316 317 317 319 319 316 317 317 318 320 321 321 322 323 322 320 322 322 322 322 321 323 323 323 322 325 351 352 347 345 349 351 353 349 347 347 344 341 343 344
313 315 316 316 317 317 318 319 319 320 311 316 318 320 321 321 320 323 323 324 320 321 321 321 322 323 323 323 321 321 323 338 348 344 349 343 352 346 348 347 347 346 340 343 343
311 312 315 316 317 318 319 320 320 316 322 321 321 321 321 321 323 323 325 324 320 321 319 321 322 322 322 322 320 321 325 341 345 346 342 344 346 346 341 345 347 345 344 339 342
310 310 312 315 317 319 319 320 320 314 325 323 319 320 318 320 322 323 323 324 322 321 320 319 321 320 320 321 320 323 337 339 338 340 346 343 346 350 346 346 347 346 346 341 340
309 309 312 313 318 318 319 321 317 319 320 321 321 319 318 318 320 321 321 320 319 320 319 320 322 321 321 321 319 321 335 342 344 344 343 339 347 344 345 343 347 346 346 344 340
311 310 312 316 318 318 319 316 323 325 322 319 320 316 318 318 322 321 320 320 320 320 319 322 323 321 319 319 319 319 327 333 342 340 340 343 348 346 344 344 345 345 346 345 343
312 312 314 318 320 320 321 317 319 322 320 320 317 317 319 320 322 323 322 320 320 319 321 321 323 322 321 320 321 323 323 323 329 326 337 344 342 342 346 348 346 346 347 347 346
315 320 318 319 322 322 315 317 319 320 319 319 319 317 321 322 322 323 324 323 323 321 316 319 323 322 323 323 324 321 322 326 322 330 339 345 346 344 348 350 345 343 344 344 346
317 322 321 320 318 321 316 315 320 321 321 318 318 320 320 323 323 324 325 323 323 322 319 319 319 323 322 323 326 327 325 321 321 327 335 344 346 345 341 345 344 343 343 343 345
318 316 322 320 318 315 316 319 320 321 318 317 318 318 321 321 323 324 325 324 323 322 319 318 317 323 324 321 319 324 324 322 323 331 334 339 346 344 344 341 341 340 341 343 344
319 320 322 321 317 313 316 320 320 316 316 319 319 319 318 321 322 323 324 324 323 320 316 317 318 323 323 319 318 317 319 320 319 325 336 340 347 343 341 340 341 340 340 342 343
320 312 318 319 318 314 318 319 314 317 316 316 318 317 317 318 318 321 322 323 321 320 321 318 315 321 321 320 320 319 318 320 320 323 332 338 347 345 342 341 338 338 336 337 338
321 316 319 310 312 309 311 314 315 314 315 316 320 319 318 320 321 321 319 317 319 319 318 315 318 319 320 319 320 318 318 321 323 325 331 340 345 343 339 338 336 335 335 334 334
321 319 322 320 314 310 309 312 313 312 313 315 319 320 321 322 320 321 318 316 319 319 317 312 319 319 323 321 320 318 319 321 334 338 339 341 343 339 337 335 334 334 333 331 331
319 321 322 318 308 309 309 312 315 312 313 316 318 317 317 316 315 316 315 316 315 316 316 317 314 320 322 320 319 319 317 316 332 338 339 342 338 336 335 335 334 333 333 332 331

GFSSW_850_thetae_102.txt.gz
Theta_e
311 311 311 312 312 311 311 310 306 306 311 313 312 315 309 308 308 307 309 311 312 317 320 322 318 326 327 342 344 349 354 356 348 354 351 349 349 347 346 343 345 345 343 341 339
311 312 311 311 311 312 312 311 308 306 308 312 310 314 312 309 309 309 310 311 312 318 319 321 320 323 333 336 339 346 353 352 348 349 349 349 348 346 344 344 344 344 344 343 340
308 310 311 312 311 311 311 310 308 306 306 311 310 312 313 309 308 311 315 311 312 320 318 320 320 322 329 328 338 346 354 350 350 348 347 348 349 346 346 345 344 346 345 341 337
306 307 308 309 310 310 309 308 307 306 306 309 309 311 311 309 310 326 322 311 312 319 320 322 319 324 328 330 343 350 348 347 350 347 349 348 348 346 347 345 340 341 341 341 343
307 306 307 307 306 306 305 305 305 306 306 308 308 311 310 308 309 323 320 314 313 320 321 322 319 326 329 334 344 344 347 350 351 348 349 349 347 346 345 345 343 343 344 345 345
310 309 312 312 311 310 307 306 306 306 306 307 308 310 309 307 310 320 323 318 313 319 318 320 322 332 334 337 341 343 348 347 351 351 349 348 347 345 345 347 346 345 345 346 345
312 310 312 312 312 311 310 309 308 306 306 307 308 309 309 312 318 323 320 315 312 318 318 318 328 331 335 333 340 350 351 350 350 350 349 348 350 351 345 347 346 345 346 346 346
313 309 312 313 314 315 315 311 308 308 308 308 309 308 311 311 316 324 316 312 312 315 316 319 329 335 334 332 333 351 349 352 353 350 348 348 354 349 344 346 346 346 346 347 346
315 309 311 313 313 314 313 314 312 308 309 308 308 307 311 311 323 323 321 318 316 315 317 317 324 331 327 321 322 338 350 351 353 350 349 349 351 348 346 346 346 346 345 346 346
315 315 309 311 312 313 313 315 318 316 308 308 310 318 319 320 321 321 320 320 316 315 316 319 324 320 316 318 325 332 347 350 351 349 351 350 350 346 347 345 345 345 345 344 345
314 315 315 312 313 313 314 316 317 318 318 317 317 317 317 320 321 320 318 319 314 315 317 320 321 325 320 320 322 324 342 352 348 350 348 350 350 345 346 343 344 344 343 343 344
313 314 315 316 316 315 316 316 318 318 317 317 318 318 318 317 320 322 321 318 318 319 320 318 323 321 321 320 324 328 347 352 349 347 349 349 351 346 346 343 343 341 343 344 344
311 312 313 316 316 316 317 318 317 317 315 316 316 317 319 320 321 322 323 319 317 321 322 321 323 320 321 321 322 324 333 349 351 349 348 349 352 349 347 344 342 342 341 343 344
311 311 312 314 316 317 318 318 318 319 311 318 318 319 320 321 320 323 323 322 319 320 320 322 322 320 322 322 322 322 323 347 347 346 351 345 352 351 348 348 346 343 342 342 344
311 311 311 311 314 316 318 318 319 316 321 320 320 320 320 320 321 321 322 324 319 320 319 322 320 321 322 322 319 323 324 344 346 345 342 345 345 344 348 350 347 344 344 341 344
311 309 310 311 314 317 318 318 318 315 324 321 319 319 317 318 321 321 323 323 321 319 318 320 320 320 320 320 320 324 340 337 337 339 346 341 343 343 346 348 347 343 341 341 343
310 309 309 311 316 317 317 320 316 320 319 319 319 317 317 316 319 320 320 320 318 319 319 319 320 320 319 319 319 322 330 339 344 344 345 337 345 340 343 342 346 346 344 342 342
312 310 311 313 317 317 320 315 320 323 320 318 319 315 318 318 321 320 319 318 318 317 317 320 322 320 318 319 318 321 324 335 341 341 340 341 346 343 342 344 345 346 345 340 340
314 312 314 315 318 320 320 315 317 320 319 319 316 317 319 319 321 321 320 318 319 317 318 319 323 321 318 317 319 321 326 326 329 326 341 343 341 340 345 344 346 346 346 342 340
317 318 317 317 321 322 314 315 318 318 319 318 318 317 320 321 321 322 321 322 321 320 316 318 321 321 322 322 323 321 319 325 320 331 339 343 343 342 350 349 345 345 346 346 342
318 321 321 318 320 321 316 314 318 320 321 317 317 320 320 322 322 323 323 321 322 321 316 318 319 322 321 322 324 324 324 319 320 324 334 342 341 341 343 347 346 344 344 345 346
318 315 319 318 317 312 314 316 319 318 318 317 317 318 320 321 323 323 324 322 323 321 317 316 316 322 323 321 318 323 323 320 324 330 331 333 340 341 343 343 343 342 342 342 343
319 320 319 320 314 312 314 319 319 314 314 317 318 318 318 320 320 322 323 323 323 317 315 315 316 322 323 317 318 317 318 319 319 327 335 335 338 342 341 341 341 341 342 343 344
319 311 317 319 316 313 317 317 313 315 315 314 317 316 316 317 316 320 321 321 319 320 321 317 315 320 321 319 317 321 316 319 318 323 330 332 344 346 341 338 339 339 338 339 340
320 315 317 309 310 309 310 312 314 313 313 317 319 318 318 319 319 319 317 316 318 318 317 313 318 319 319 318 319 317 317 318 322 322 333 334 342 342 339 338 337 336 335 336 338
320 319 320 317 312 310 307 311 312 312 312 315 318 316 319 319 319 319 316 314 317 317 315 311 318 318 323 320 318 318 322 319 333 331 337 338 342 336 338 335 336 335 334 334 335
319 322 321 314 307 308 308 312 314 312 313 314 316 316 315 315 315 315 315 314 313 313 316 316 315 317 322 319 320 319 318 322 322 337 338 341 336 336 335 334 334 333 331 331 331

GFSSW_850_thetae_105.txt.gz
Theta_e
309 310 311 311 311 311 312 312 310 307 306 311 314 312 315 310 308 308 309 310 312 316 321 319 319 336 344 345 345 350 354 353 350 353 351 350 347 347 344 344 343 345 341 343 343
307 307 309 311 311 311 311 311 310 308 306 308 313 311 314 313 309 309 310 310 311 317 322 321 324 324 331 338 340 346 353 352 347 349 349 350 347 344 346 345 345 344 344 344 343
307 306 306 307 308 309 309 309 308 307 306 307 311 311 314 313 309 310 315 310 310 317 321 321 320 327 330 331 339 345 353 350 349 348 347 348 347 344 346 347 345 343 344 344 344
309 307 309 309 307 306 305 306 306 306 306 307 310 309 313 311 311 324 319 311 310 316 319 321 320 326 338 332 339 350 349 348 348 348 347 348 346 347 348 344 344 343 344 344 342
310 310 312 311 311 310 307 306 305 306 306 307 308 309 312 310 309 318 318 310 311 321 319 321 321 329 339 336 343 347 347 349 349 348 348 346 347 346 347 345 345 345 343 342 342
311 310 312 312 313 312 309 309 307 306 307 308 308 309 311 311 309 317 320 316 313 321 321 321 321 332 335 338 344 344 347 348 350 348 349 346 345 344 346 345 345 344 343 344 346
313 309 312 313 314 315 315 309 308 307 307 307 308 310 311 313 316 322 318 315 315 321 322 320 324 333 336 335 341 347 350 350 350 349 348 346 346 348 347 346 346 346 346 345 346
315 310 311 312 313 313 313 315 310 308 308 309 310 310 313 311 313 321 316 312 317 317 317 319 326 335 335 332 337 350 349 354 352 349 348 348 354 347 346 348 347 347 347 347 347
315 315 309 311 312 313 313 314 318 313 308 308 308 308 312 311 318 318 312 310 314 316 317 318 327 332 329 327 345 346 350 352 355 350 349 349 354 345 344 348 346 347 347 347 347
314 315 315 312 312 312 313 315 317 317 309 312 310 318 319 320 322 320 318 316 315 315 317 318 322 332 327 328 342 348 349 351 351 350 351 352 352 347 344 344 347 346 346 347 346
312 313 315 315 315 315 315 316 317 317 318 318 317 316 317 319 321 320 319 316 316 316 321 321 330 337 336 327 328 339 340 352 354 349 350 351 353 349 343 344 347 346 346 347 346
311 311 312 314 315 315 317 316 317 318 318 317 317 317 317 317 320 318 319 317 315 319 321 323 330 331 327 324 327 346 352 352 349 346 349 349 351 350 348 347 346 346 346 345 346
311 311 310 312 314 316 317 318 317 316 317 316 316 317 318 318 321 320 320 317 316 321 324 323 327 327 325 325 328 330 339 350 351 348 348 347 351 349 347 345 345 343 345 345 345
312 311 310 310 314 316 317 318 317 318 319 322 320 319 319 320 321 322 320 319 321 322 325 329 323 327 324 326 326 331 328 348 347 347 350 345 352 351 349 347 345 344 342 344 345
312 310 309 309 311 315 317 317 318 315 324 322 321 319 319 320 321 322 322 322 323 324 324 326 325 325 325 325 324 328 328 347 347 348 349 349 350 350 349 351 347 344 344 343 344
311 310 309 310 312 315 317 316 317 319 323 322 320 320 320 318 321 321 322 322 320 322 323 323 321 324 326 324 325 337 342 345 345 347 351 349 350 350 353 352 349 345 344 343 343
312 312 309 310 314 316 316 319 321 323 320 321 321 319 319 319 322 323 324 324 324 324 325 323 323 322 321 323 323 333 339 344 345 348 342 341 350 346 347 346 348 346 345 344 343
315 311 311 312 315 316 320 319 322 322 321 320 320 318 322 321 323 322 323 324 320 322 323 324 324 323 322 323 324 330 334 337 343 344 343 344 351 347 344 343 344 346 345 344 343
315 313 314 317 318 320 318 319 320 320 320 321 319 321 322 322 323 323 322 322 321 322 323 324 324 323 321 323 323 324 325 329 336 338 343 349 346 343 346 348 345 346 347 343 342
318 317 317 319 321 321 320 318 320 318 321 319 321 320 323 324 325 324 322 323 322 321 320 323 324 324 324 321 322 325 325 327 332 341 342 349 349 349 351 348 347 347 347 344 343
319 320 320 320 320 319 321 319 320 319 320 319 320 323 323 324 325 326 323 323 323 322 319 322 324 326 324 325 325 325 326 327 331 333 339 345 348 344 348 349 350 348 347 346 344
319 323 319 318 321 315 321 319 319 318 318 319 319 321 323 323 325 325 322 322 323 322 321 320 325 328 328 323 322 326 327 328 329 335 338 342 346 345 345 346 345 346 347 348 346
320 320 319 320 320 319 319 320 318 316 317 318 320 319 320 322 323 324 324 323 323 319 319 321 324 329 328 323 322 325 322 326 330 334 340 336 342 345 346 345 345 345 345 345 345
318 320 315 318 315 319 320 318 317 314 316 317 319 319 320 322 321 323 322 322 319 322 321 319 322 328 328 326 324 324 321 324 330 331 335 336 346 347 345 345 343 344 342 342 342
319 319 316 317 314 314 315 315 316 316 315 319 321 321 320 323 322 321 320 320 319 319 317 320 325 323 322 321 321 323 331 323 327 329 334 338 346 346 343 341 340 340 339 341 342
320 321 320 317 311 313 312 315 314 314 316 317 321 319 321 323 322 320 318 318 319 319 321 319 325 323 325 323 321 322 329 330 331 331 337 337 344 343 339 340 339 338 337 337 339
319 322 319 313 311 315 314 315 314 314 313 313 316 319 319 316 315 315 314 314 315 317 322 323 326 326 326 324 325 324 323 334 336 337 339 342 342 342 339 338 337 336 336 336 334

GFSSW_850_thetae_108.txt.gz
Theta_e
307 306 308 310 311 311 311 311 312 311 307 306 312 315 314 316 309 308 309 311 310 316 321 329 329 340 344 348 348 351 356 359 356 353 354 350 351 349 348 346 345 344 342 345 346
308 306 306 306 308 310 311 311 311 310 307 306 309 314 313 316 313 310 310 309 310 316 325 327 328 339 344 348 348 349 356 353 349 349 351 350 349 347 348 347 346 342 344 345 345
309 309 311 310 307 306 307 307 307 307 307 306 308 313 312 315 313 312 314 310 310 316 326 325 325 332 337 341 344 348 354 351 348 348 349 349 347 346 348 349 346 345 345 345 344
309 311 311 311 310 309 306 305 305 306 306 306 309 311 311 314 316 323 321 311 310 318 325 323 325 327 338 342 343 352 349 348 348 348 349 349 346 349 346 346 345 344 343 343 343
310 311 312 313 313 312 309 308 306 306 306 307 309 310 311 318 314 315 314 311 310 323 325 324 324 328 343 341 343 348 349 350 347 347 348 346 348 348 347 345 344 343 343 343 342
313 310 312 314 315 314 316 308 309 307 307 308 309 309 314 319 311 312 319 316 319 321 322 322 323 328 340 342 345 344 349 351 347 347 349 348 345 344 346 344 344 343 342 341 340
315 309 311 313 314 313 313 316 309 309 308 308 308 310 317 318 312 322 322 324 321 322 322 321 322 332 341 343 345 346 351 352 351 349 349 345 346 345 345 344 344 343 343 343 344
315 314 309 311 312 313 313 314 318 309 310 310 310 310 318 314 314 322 321 324 321 321 322 322 325 336 340 334 343 349 351 357 351 349 349 347 351 347 346 344 343 343 342 345 346
314 314 314 312 312 313 314 315 317 315 311 309 311 314 316 311 320 318 317 319 319 318 319 320 325 336 337 335 344 347 350 355 355 349 349 349 351 346 348 345 345 343 343 346 346
312 313 314 315 315 315 315 316 318 318 312 315 311 320 320 318 323 318 316 317 318 318 319 320 327 338 338 338 350 350 352 352 356 353 350 351 352 346 345 347 346 345 344 346 346
311 311 312 313 315 315 316 317 321 323 321 321 320 319 320 321 322 320 318 317 316 317 322 320 327 340 342 337 335 345 348 352 353 351 352 353 352 348 344 347 345 345 345 345 345
312 311 311 311 313 315 317 319 319 318 321 320 319 319 319 320 323 321 318 319 318 318 322 323 325 332 340 335 332 341 346 354 352 349 349 348 353 345 344 345 346 345 344 344 345
312 312 311 310 313 316 317 318 317 317 322 320 319 321 321 320 323 323 320 319 319 320 324 324 324 335 336 332 333 344 347 350 353 349 346 346 349 352 344 344 345 345 345 344 345
312 311 310 310 315 315 318 318 317 318 324 323 323 321 321 322 322 321 322 319 318 321 323 324 326 331 336 333 333 337 338 347 350 351 352 345 355 351 347 345 347 346 346 345 345
312 311 310 309 311 315 317 318 317 317 325 323 323 320 322 323 323 323 321 320 321 321 325 327 327 332 335 335 330 333 331 341 345 345 347 347 350 347 350 350 348 346 345 345 345
311 312 311 310 312 314 317 316 317 323 325 323 322 322 323 323 324 324 323 323 324 323 325 327 328 330 330 330 327 331 334 339 344 344 344 347 350 350 350 353 345 344 345 344 344
315 312 310 311 317 317 315 319 326 325 323 323 323 323 324 325 325 325 325 325 324 325 325 327 327 328 327 330 330 333 340 345 345 346 346 343 348 346 346 347 349 344 344 345 343
314 311 312 314 316 316 319 325 325 323 323 322 322 323 325 325 326 326 326 326 325 324 325 326 327 327 326 328 329 332 338 341 347 346 345 344 349 348 344 346 347 347 345 345 345
313 314 316 318 318 320 322 322 323 322 322 323 322 323 324 325 325 325 326 327 325 324 324 325 326 326 326 326 326 331 334 336 338 340 343 345 345 346 345 347 346 348 348 346 345
317 320 319 320 321 321 322 320 322 322 323 322 323 324 324 325 325 326 325 325 325 324 324 325 326 325 325 325 325 327 331 335 336 339 342 347 345 343 351 350 348 347 348 347 346
319 322 319 319 320 322 322 322 322 320 322 322 323 324 325 325 326 326 325 325 324 325 325 325 326 327 326 325 325 326 328 329 330 334 338 343 344 346 349 349 349 347 347 348 347
321 324 320 319 321 321 321 322 320 320 320 322 322 323 325 325 326 326 325 325 324 325 326 326 327 329 327 326 325 327 326 328 329 333 335 337 347 347 347 348 349 350 349 348 348
324 323 321 321 322 322 322 321 320 320 320 321 322 322 323 324 326 326 326 324 323 323 325 326 327 329 329 328 327 327 327 328 328 329 333 335 337 348 348 349 349 349 350 349 348
322 323 321 322 321 322 321 320 319 318 320 320 321 321 322 324 324 325 325 324 321 324 320 321 326 328 329 329 328 328 327 328 329 331 331 333 337 350 350 350 348 348 349 350 350
322 322 319 321 321 321 320 319 318 319 319 320 322 322 322 324 324 324 324 324 322 320 322 325 327 327 327 327 327 328 327 327 329 329 331 331 333 338 349 348 347 346 345 347 347
325 324 322 321 318 319 315 319 318 318 317 318 323 322 323 324 324 324 323 324 324 323 324 324 328 328 327 326 326 327 330 329 328 329 330 332 334 344 346 345 344 344 344 344 342
322 322 324 317 319 320 319 319 317 315 316 315 318 323 323 321 320 321 319 319 320 323 324 325 327 329 328 327 327 327 329 334 334 335 336 333 342 345 346 343 342 342 343 341 341

GFSSW_850_thetae_111.txt.gz
Theta_e
308 307 306 307 308 311 311 311 311 312 311 308 307 314 316 315 314 310 314 315 315 317 325 330 336 336 342 347 351 352 359 361 357 357 356 351 352 350 350 348 347 346 344 346 345
308 310 310 309 307 306 307 309 309 309 309 307 306 311 315 315 316 319 316 312 311 316 323 330 330 336 342 347 350 350 358 356 352 351 353 351 351 351 350 348 348 345 346 345 345
308 311 311 311 310 309 306 306 306 306 307 307 306 310 314 315 322 319 318 311 310 316 326 328 329 336 341 347 350 348 355 352 351 350 351 350 351 350 349 349 346 346 346 345 343
309 311 312 313 312 310 309 308 306 306 306 306 307 311 313 315 323 323 316 312 310 316 327 327 327 334 334 346 347 352 350 351 350 350 351 349 349 350 349 347 346 347 345 344 342
311 311 313 315 316 315 315 309 309 307 307 307 309 311 312 322 321 320 321 318 310 320 327 327 327 329 336 346 345 350 351 350 348 348 349 349 350 350 348 345 345 346 344 343 341
314 309 312 314 314 313 313 315 310 309 308 309 310 310 314 324 316 323 321 314 316 325 326 326 327 328 338 346 346 349 350 350 348 347 348 349 347 347 346 345 345 344 343 341 340
315 312 310 312 314 313 314 315 315 311 310 309 309 310 321 322 317 326 323 316 317 324 325 325 325 326 340 346 347 346 352 352 348 348 348 346 347 348 344 343 344 343 342 340 339
314 315 313 311 312 313 314 315 317 311 311 312 312 316 324 318 318 327 324 323 322 321 324 323 324 325 339 343 347 349 353 358 351 349 349 346 352 346 345 343 343 342 341 340 342
312 313 314 315 314 314 315 316 318 318 313 310 318 322 322 314 322 324 324 324 322 323 324 324 325 329 341 342 347 350 353 358 355 349 349 349 352 345 347 343 343 342 341 343 345
311 311 312 314 315 315 316 317 318 318 315 317 319 322 321 319 323 320 321 323 321 321 323 322 324 333 343 344 349 351 354 353 356 352 350 351 350 346 347 345 342 342 342 344 345
312 311 311 311 314 315 316 322 325 327 324 324 322 322 322 322 322 322 318 320 320 321 324 322 326 334 342 343 339 344 348 353 351 352 349 349 350 343 347 348 344 343 343 345 345
312 312 311 311 313 315 316 322 320 320 323 322 321 321 322 323 322 322 319 319 319 322 324 324 325 330 338 341 339 338 353 353 352 350 346 348 352 346 345 348 346 344 344 345 345
312 312 311 310 314 316 319 320 320 320 324 322 321 322 322 322 324 322 321 322 321 320 323 326 326 328 336 342 338 339 351 355 356 349 347 345 351 348 344 347 347 344 343 344 345
312 312 310 310 317 319 319 320 320 320 327 325 324 323 323 321 324 323 321 321 322 322 323 326 326 327 335 340 338 339 346 349 352 352 355 347 354 347 347 347 346 347 344 344 345
311 310 311 309 317 319 320 320 320 321 331 325 325 323 324 325 324 323 322 321 322 322 324 325 326 328 335 339 337 338 337 353 349 348 349 349 352 349 344 345 345 347 345 345 344
311 314 312 310 313 318 319 320 321 326 327 325 324 325 325 325 324 323 322 322 325 323 324 327 327 329 332 336 335 335 337 343 345 345 351 348 349 352 352 348 346 345 346 344 345
317 311 310 315 321 320 320 321 329 327 324 324 325 325 326 326 326 326 325 325 326 325 326 328 329 329 331 334 332 334 340 351 354 351 351 347 349 348 348 345 345 346 346 346 346
311 313 315 317 320 319 321 327 326 324 324 324 324 324 327 326 326 326 326 326 326 326 326 327 329 330 329 332 332 336 339 349 352 351 350 345 348 351 343 344 345 344 344 345 345
314 317 320 322 320 320 323 327 326 325 324 324 323 325 327 326 327 327 328 327 326 326 327 326 327 328 328 328 331 333 338 341 344 341 347 349 347 349 347 347 347 346 345 344 347
323 323 322 320 322 322 326 321 323 323 324 324 325 326 327 326 325 326 326 328 328 326 326 328 328 328 327 327 327 329 333 337 340 343 345 350 350 345 351 350 349 349 346 344 346
319 325 322 321 322 324 325 323 322 321 323 324 324 324 325 326 326 328 328 327 325 326 325 327 327 328 326 327 328 327 329 333 335 337 341 345 351 348 350 349 349 348 348 346 346
324 327 321 322 325 323 324 323 320 321 322 323 323 324 325 325 326 326 327 327 325 326 326 326 327 327 328 327 327 327 328 329 331 336 335 335 345 341 348 348 348 347 347 348 348
327 322 320 322 327 324 322 321 320 322 321 322 324 324 324 325 326 327 327 326 325 325 328 328 327 329 328 328 327 326 327 328 328 330 332 334 347 348 348 349 349 349 349 349 349
325 325 322 322 321 324 322 321 321 319 320 320 321 323 324 324 325 327 326 325 324 326 321 324 327 329 330 332 331 329 327 329 328 329 330 331 351 351 351 352 352 351 351 350 351
323 325 322 323 322 322 321 321 320 321 320 320 323 324 324 326 325 324 325 326 324 322 324 326 328 327 328 329 331 330 328 327 329 330 331 331 332 345 350 351 350 350 352 353 353
327 324 320 322 320 321 315 320 319 319 318 320 324 323 324 326 327 327 325 325 326 326 325 326 327 327 330 328 329 329 329 329 328 328 329 330 331 339 347 349 349 350 350 351 350
325 325 324 320 321 322 322 321 319 316 317 316 320 324 324 324 323 323 322 323 324 326 325 327 327 329 330 327 327 329 328 329 329 329 328 332 342 338 351 348 347 346 346 346 347

GFSSW_850_thetae_114.txt.gz
Theta_e
309 310 311 310 308 307 307 309 310 311 311 311 308 307 313 316 315 314 310 316 316 316 321 326 329 336 339 346 350 352 359 360 356 354 353 353 352 351 348 347 345 345 342 343 344
308 310 311 310 310 309 307 306 306 307 308 308 307 307 311 316 316 317 316 317 316 314 317 331 334 337 338 344 349 352 357 357 353 352 352 353 351 350 349 347 346 345 345 343 343
309 311 312 313 313 311 310 309 307 306 306 306 307 307 312 315 320 323 321 317 312 313 322 331 331 333 339 344 350 351 357 353 353 352 351 353 350 348 347 348 346 346 344 344 342
310 311 314 316 316 315 315 310 310 308 307 307 306 308 313 314 327 325 318 318 311 314 322 329 330 333 340 343 348 353 350 352 351 351 352 353 350 349 347 347 345 346 344 343 341
314 309 312 315 314 314 314 315 310 310 308 309 309 311 313 322 323 323 318 314 311 314 323 329 329 331 338 341 346 351 351 351 350 351 350 350 350 351 348 347 346 346 344 341 341
315 311 310 313 314 314 314 315 315 311 309 309 311 311 312 325 321 322 324 316 312 314 324 329 329 330 332 339 348 350 352 351 349 350 349 350 348 349 347 344 345 345 344 341 340
314 315 312 311 313 314 314 315 317 312 312 310 310 310 321 323 320 320 325 319 315 317 326 328 328 330 331 344 348 351 353 350 348 349 349 346 346 348 344 344 345 344 342 341 340
312 314 315 315 314 314 315 316 317 317 314 312 312 312 325 321 322 325 327 318 317 321 327 327 327 327 328 341 348 351 352 357 349 348 348 347 352 348 343 344 344 343 341 340 341
311 311 313 314 315 315 316 316 317 318 313 312 322 321 326 318 318 325 326 323 322 321 324 325 325 326 328 337 348 353 357 356 353 347 349 348 352 345 347 343 343 342 341 339 342
312 311 311 312 314 315 316 317 321 318 321 317 317 323 324 321 322 324 325 325 322 323 325 325 325 328 331 342 348 351 354 354 356 351 350 351 351 342 346 347 342 342 340 341 344
312 312 311 311 313 315 316 321 327 326 326 325 325 324 323 322 323 321 323 325 322 323 326 325 326 327 332 342 342 343 349 354 351 349 348 346 346 347 346 347 345 342 342 345 344
312 312 312 310 312 315 316 322 322 321 324 326 322 322 322 324 323 323 319 322 321 323 324 325 325 327 331 340 342 343 349 353 352 348 346 345 348 346 345 347 348 343 344 344 342
312 312 311 310 314 315 318 322 321 322 325 323 322 322 322 324 324 323 320 320 321 322 324 326 325 326 330 337 343 345 346 352 353 349 345 345 347 344 341 345 346 347 344 345 344
311 311 310 310 318 322 321 321 322 323 328 326 324 324 323 322 325 323 322 322 323 321 323 325 327 327 328 337 342 344 350 349 352 350 354 346 353 347 343 345 345 347 346 346 345
310 310 310 309 314 318 321 321 322 323 334 326 325 324 324 324 325 324 321 322 323 323 322 323 326 327 327 331 342 340 343 350 349 351 349 351 352 351 343 344 346 346 346 346 347
315 315 311 310 314 318 320 321 323 330 331 325 325 325 325 326 325 324 322 323 322 324 323 325 326 327 328 334 337 337 345 343 344 349 356 350 350 350 349 345 344 345 346 346 343
313 310 311 318 324 322 322 323 329 331 324 326 326 325 326 327 326 326 324 323 326 323 324 324 328 328 329 331 337 336 341 353 355 357 356 349 351 349 347 346 342 343 345 345 345
313 315 317 318 322 322 323 327 332 325 324 323 324 327 328 327 326 326 325 324 325 325 326 325 328 329 329 332 337 335 336 346 351 354 353 348 352 351 344 343 342 342 344 344 345
317 319 320 324 322 322 324 329 329 325 324 325 324 326 328 327 328 327 327 326 326 327 327 328 325 329 330 331 332 333 336 337 346 347 350 348 348 344 345 344 342 343 344 345 347
319 326 324 321 322 324 327 323 323 322 323 324 327 327 329 328 325 327 329 329 329 327 326 328 330 328 329 328 329 331 332 336 344 350 349 352 352 355 349 346 347 346 346 346 345
318 326 324 321 323 325 329 323 322 320 322 324 325 325 327 328 327 328 329 328 328 327 326 327 328 329 329 328 328 328 329 331 333 341 349 349 350 347 348 342 351 347 346 345 341
323 328 323 323 326 327 326 323 321 322 323 323 323 324 326 327 327 328 329 329 326 326 327 326 327 329 329 328 328 328 328 328 330 336 337 340 340 340 345 347 348 348 346 347 345
323 327 321 324 328 327 323 322 321 322 322 322 325 324 325 325 326 329 329 327 325 325 328 329 328 327 329 329 329 327 327 328 328 329 334 333 346 343 344 347 347 348 348 347 346
325 327 323 322 323 325 324 324 322 320 320 320 322 324 325 325 325 326 328 327 324 325 323 324 328 329 330 332 332 333 332 326 327 328 329 330 344 341 342 351 348 349 349 348 347
323 327 325 325 323 323 324 324 321 321 321 320 325 324 325 328 327 326 327 327 325 324 324 325 327 327 327 329 330 331 332 332 327 329 330 329 343 346 347 350 351 351 351 350 349
326 329 327 323 324 322 317 321 320 321 319 321 321 324 323 326 328 327 328 327 328 327 328 326 326 326 327 327 330 330 330 331 329 327 328 329 331 340 345 344 336 352 354 354 350
326 327 326 326 322 322 323 322 321 318 319 317 319 323 326 326 324 324 324 323 326 329 327 327 329 330 330 328 329 330 330 331 331 329 330 331 348 342 337 332 330 350 353 352 351

GFSSW_850_thetae_117.txt.gz
Theta_e
308 310 311 310 310 309 307 306 306 307 308 310 310 309 307 312 317 316 313 311 314 318 317 323 320 338 338 339 349 350 353 358 354 352 353 350 351 345 345 343 342 343 346 345 343
309 311 313 314 314 313 310 309 308 306 306 307 307 307 307 311 316 318 315 312 316 316 316 327 327 331 334 340 348 352 352 355 351 346 352 352 351 348 347 346 343 343 346 342 345
310 311 315 316 315 315 315 310 310 309 308 307 306 307 308 313 316 322 321 314 315 316 315 329 330 335 337 337 348 351 355 353 353 345 348 351 350 345 347 348 343 343 344 344 344
313 309 313 315 314 314 314 316 311 310 309 309 308 307 311 313 327 325 320 317 314 312 314 328 329 331 332 337 347 352 351 352 353 352 350 351 352 347 348 346 344 342 343 340 339
315 310 310 314 314 314 314 315 315 312 310 310 310 310 312 319 319 324 320 317 317 312 314 325 328 330 330 340 349 351 353 352 351 351 348 343 350 350 349 346 344 343 342 340 339
314 314 312 311 313 314 315 316 316 314 312 311 311 312 311 320 324 322 323 317 313 312 314 326 329 330 330 337 349 351 353 351 350 350 347 347 349 349 347 346 345 344 341 340 340
312 314 315 315 313 315 315 315 316 317 313 313 310 311 313 317 321 320 324 323 313 312 317 327 329 329 330 340 349 352 354 350 348 349 349 343 349 348 345 346 345 343 341 341 340
311 311 313 314 315 314 315 316 317 317 314 312 313 313 316 324 323 322 323 322 314 315 321 327 329 329 328 344 350 353 350 355 350 348 347 348 351 348 344 346 345 343 341 341 341
312 311 311 312 314 315 315 316 317 318 317 315 321 326 325 321 320 319 326 322 317 318 322 326 327 327 327 327 347 347 353 353 350 347 347 348 350 346 346 345 344 343 342 341 341
312 312 312 311 311 315 315 316 320 323 321 320 316 322 324 323 320 323 326 324 319 319 321 324 325 322 322 326 339 350 353 352 353 349 348 348 347 343 345 346 343 342 341 341 341
312 312 312 311 310 314 315 317 325 325 323 324 325 324 323 324 324 323 324 325 323 322 321 325 323 322 323 326 330 346 352 353 350 348 347 349 346 343 342 345 346 344 339 342 342
312 312 312 311 311 314 315 319 323 322 322 324 324 323 322 323 324 322 323 325 322 322 324 324 322 324 325 337 342 344 351 351 349 346 347 346 346 343 344 344 347 347 342 343 343
311 311 311 310 313 315 319 320 322 322 323 326 325 322 322 323 323 323 320 322 321 320 322 321 323 325 324 330 343 345 348 350 352 348 345 344 347 346 344 342 343 345 346 344 343
310 310 309 309 318 322 322 321 322 322 324 326 323 323 323 322 324 323 320 321 320 319 320 321 324 325 324 325 335 349 348 349 351 349 353 345 352 347 344 343 342 344 346 344 344
314 315 312 309 313 316 320 321 322 323 334 327 325 324 324 322 325 323 322 321 322 321 319 319 322 323 325 325 341 348 345 347 346 346 349 347 351 348 345 345 343 343 345 346 344
317 312 310 311 314 321 321 322 322 325 332 326 325 324 324 324 325 324 322 321 322 321 321 320 324 324 325 329 339 345 348 345 346 349 352 348 351 351 347 344 342 342 343 346 345
313 311 312 314 323 322 322 323 327 331 326 326 326 324 325 326 325 323 322 321 320 324 323 321 322 324 326 337 339 341 343 348 351 354 356 348 351 351 344 341 341 341 342 345 345
314 316 319 320 321 321 323 324 332 328 324 323 324 326 328 327 327 325 322 321 321 322 321 322 322 327 328 327 338 343 342 346 350 354 353 345 354 349 341 341 340 341 341 346 346
317 318 320 322 323 322 323 328 331 324 323 324 326 327 327 327 327 325 324 322 322 322 326 325 325 326 327 327 330 334 333 330 344 345 348 349 346 342 340 344 339 340 342 345 346
318 319 325 325 324 324 325 327 321 321 322 323 326 328 328 327 327 328 329 328 328 327 324 325 327 326 327 328 327 329 329 337 341 349 350 352 345 347 344 344 343 340 342 345 345
318 321 327 324 322 324 326 326 322 320 321 323 323 326 327 327 326 329 329 329 327 327 325 324 326 326 327 327 326 325 324 325 332 339 347 347 351 344 344 345 345 344 341 343 346
321 326 327 321 324 325 326 322 321 321 322 323 323 324 326 326 328 329 330 329 326 325 326 324 324 323 324 327 326 325 326 324 323 325 336 341 342 343 341 345 344 344 345 343 345
320 323 327 321 326 326 323 322 321 321 320 321 322 322 324 324 330 330 329 328 326 325 325 324 326 325 326 328 329 329 327 325 322 321 323 330 343 342 344 340 337 342 346 345 344
322 328 325 322 324 324 325 324 321 320 319 320 322 322 325 326 326 329 329 327 325 325 323 323 323 326 326 330 329 331 329 329 328 321 324 324 345 341 340 342 343 346 347 346 345
323 325 327 329 326 324 323 323 322 321 321 320 324 324 324 326 328 328 328 327 326 325 325 322 323 325 324 327 328 329 329 329 330 337 331 334 340 344 344 345 343 351 348 347 347
320 327 327 328 324 324 318 322 321 319 319 318 321 324 323 326 326 325 325 327 328 327 328 324 326 327 328 328 330 329 331 331 336 337 338 338 348 343 344 346 344 347 352 349 349
328 327 328 330 327 322 322 323 320 319 320 317 318 319 325 325 325 323 322 322 326 328 327 326 327 328 328 329 329 333 331 331 333 335 336 347 342 335 336 337 336 344 346 347 350

GFSSW_850_thetae_120.txt.gz
Theta_e
309 311 314 315 315 314 311 310 308 306 306 307 308 309 309 308 311 318 315 312 313 319 317 320 317 320 332 333 338 352 352 354 350 351 352 351 347 344 342 343 344 344 347 347 347
309 311 315 315 314 314 314 311 311 309 308 306 306 307 307 308 310 315 318 314 313 316 317 323 328 332 328 334 340 350 349 352 345 346 350 352 349 344 343 341 343 345 346 347 347
312 310 314 315 314 313 314 315 312 311 309 309 307 306 307 310 314 319 322 318 312 316 316 324 326 329 331 334 342 350 352 353 345 345 348 348 348 347 345 346 346 346 345 346 346
314 309 310 314 314 314 314 315 315 312 311 310 310 308 309 312 326 323 320 317 313 315 315 318 328 326 329 332 336 353 351 353 352 350 348 350 348 348 347 345 345 344 343 345 345
314 314 312 311 314 314 314 315 315 315 312 311 311 311 311 315 318 322 320 317 314 313 314 317 325 327 328 334 347 351 351 352 351 350 348 347 348 350 349 344 345 343 345 345 344
312 314 314 314 313 314 315 315 315 316 314 312 310 311 312 316 324 323 323 323 316 314 313 319 328 328 328 329 346 352 351 350 348 347 344 345 345 346 348 346 342 343 343 344 343
311 311 312 313 314 314 315 315 315 316 317 313 313 311 311 314 323 323 323 324 316 314 314 326 327 325 327 337 351 351 352 349 348 346 344 344 347 348 345 343 343 340 339 339 344
311 311 311 311 313 314 315 315 315 317 317 315 315 322 318 321 321 322 322 323 315 312 314 323 326 323 326 348 348 350 348 352 348 348 347 347 350 347 345 343 343 340 339 340 343
312 312 312 311 311 314 314 315 317 319 319 318 315 320 324 323 321 320 321 323 315 315 316 321 321 323 326 335 341 343 347 353 351 347 347 347 349 344 346 345 341 340 340 340 345
311 312 312 312 310 314 314 316 322 324 322 322 319 320 323 323 320 323 322 323 319 317 316 317 320 321 318 320 326 347 349 350 350 348 347 349 349 343 342 346 344 341 341 342 344
311 311 312 311 310 313 314 319 322 324 321 322 323 324 324 323 323 324 325 325 322 318 317 321 319 320 321 321 330 348 349 351 348 346 345 347 348 346 341 343 345 344 340 342 342
310 311 311 310 311 313 318 318 321 321 320 323 323 324 324 323 323 322 323 324 321 319 320 320 321 320 321 323 332 346 348 350 348 345 346 347 347 344 342 343 345 346 341 341 342
310 310 309 309 313 315 319 321 321 321 320 324 326 325 323 321 323 322 321 323 321 320 321 320 322 323 324 323 339 344 346 348 350 347 344 345 346 345 343 343 342 344 345 341 342
314 315 311 309 315 320 320 320 320 321 319 324 322 323 322 322 321 323 321 320 319 318 318 319 321 322 324 324 340 348 346 347 349 349 352 344 351 346 344 344 343 343 345 343 344
316 313 311 309 315 317 320 321 322 321 328 327 323 324 324 322 322 321 322 320 318 318 317 317 319 321 322 323 340 347 345 347 347 345 347 347 349 345 344 345 344 343 344 345 343
316 312 310 312 317 322 322 322 323 321 331 327 323 323 323 322 322 322 321 321 321 320 318 317 320 319 323 333 340 343 344 344 344 345 348 348 349 348 345 344 343 343 344 345 344
316 314 313 316 323 321 322 323 321 328 325 323 323 322 322 324 324 321 321 319 319 321 320 318 319 328 343 345 343 342 342 347 349 350 351 347 350 347 344 342 342 343 343 344 345
316 318 319 319 321 320 322 320 328 326 320 322 324 325 326 326 326 322 320 319 319 318 318 320 319 324 334 340 340 340 336 341 345 351 351 346 350 344 341 338 340 341 343 343 344
317 319 321 321 322 321 322 322 326 318 318 321 324 325 326 326 325 323 319 319 320 318 320 321 324 324 325 331 335 337 339 334 339 341 346 348 346 343 340 342 340 340 342 343 345
317 319 323 324 324 322 319 322 323 319 319 320 322 325 326 325 324 326 325 326 324 323 319 323 325 324 324 327 333 329 328 335 337 345 347 350 345 346 341 343 339 340 340 341 342
318 322 326 326 325 323 320 320 322 319 321 321 320 322 322 325 327 328 328 328 324 323 322 320 321 323 322 324 323 322 322 321 328 335 344 350 348 341 340 343 341 339 340 339 340
317 318 325 326 321 319 318 321 320 318 320 317 319 320 321 326 327 327 328 328 326 324 322 322 319 322 322 321 326 321 322 317 319 322 335 337 340 338 337 343 342 341 339 339 338
317 319 325 325 318 317 320 321 319 319 317 317 319 319 319 322 326 327 327 328 325 322 322 321 320 322 322 324 324 328 327 325 317 315 321 330 326 339 338 342 343 343 342 339 341
317 321 325 325 322 322 320 320 318 320 318 318 318 320 321 322 323 326 327 326 325 324 325 321 316 322 322 324 325 326 327 327 325 332 331 323 325 343 341 341 341 340 344 344 341
317 322 324 323 325 322 317 319 319 319 318 318 319 320 320 321 323 324 323 323 325 326 324 318 320 324 324 326 329 330 332 334 335 336 340 341 342 340 340 342 344 350 348 345 343
314 325 328 327 327 318 316 319 316 316 316 315 315 318 321 322 320 321 319 323 324 323 324 318 320 324 326 327 329 330 331 335 335 336 338 342 342 336 337 338 343 347 346 348 345
325 325 327 327 324 320 317 316 316 318 318 316 316 315 319 319 320 321 321 321 319 322 321 320 320 322 325 325 326 331 329 334 334 339 340 345 342 332 330 335 340 339 345 347 348

GFSSW_850_thetae_123.txt.gz
Theta_e
309 313 315 314 314 314 314 311 310 309 308 307 307 307 308 309 308 312 316 312 313 320 320 321 321 320 326 332 345 350 352 354 350 351 350 349 347 342 342 345 344 345 345 346 346
309 311 315 314 313 313 314 314 312 311 309 309 308 307 307 308 309 310 317 313 312 319 318 320 319 319 330 330 334 348 348 352 347 347 350 350 347 342 344 344 346 346 346 346 346
313 309 312 314 314 314 314 315 315 312 312 310 310 308 307 308 312 319 320 317 312 315 317 321 326 325 327 331 340 348 351 349 344 344 348 350 346 342 344 344 345 346 345 345 345
314 313 311 312 314 314 314 314 315 316 313 312 311 311 310 311 322 320 319 319 313 315 316 320 324 329 328 331 334 352 352 348 346 345 346 348 348 346 345 345 344 346 345 346 345
313 313 314 313 313 314 314 314 314 315 315 313 311 312 312 312 319 321 321 316 313 313 316 319 324 327 328 329 340 348 352 351 350 345 347 346 348 349 346 346 344 346 346 345 346
311 311 312 313 313 313 314 315 315 316 317 314 314 311 312 314 322 322 324 320 314 314 315 315 325 327 327 327 344 350 350 348 346 346 346 346 344 347 347 346 345 346 346 345 345
311 311 311 311 312 313 313 314 315 316 317 315 314 319 313 318 324 322 322 323 319 316 313 314 325 324 326 333 350 349 350 348 348 345 345 343 343 346 344 347 345 346 345 345 346
312 312 311 311 310 312 313 314 315 318 320 317 314 319 320 321 321 321 322 322 319 314 315 313 318 324 324 346 345 348 346 352 348 347 344 347 349 345 346 346 344 345 345 344 345
311 312 312 311 310 311 314 315 319 323 323 321 319 319 322 323 322 320 322 321 317 313 312 315 320 322 324 336 337 341 346 352 350 344 344 347 351 344 344 343 343 342 340 344 345
311 311 311 311 310 312 313 318 320 322 322 321 322 321 323 323 322 321 319 321 316 315 315 315 318 318 316 318 323 343 350 351 350 344 341 345 348 344 344 345 341 339 339 342 346
310 310 310 310 310 312 316 319 320 321 320 322 322 322 323 323 321 323 325 322 320 317 315 318 318 320 321 319 329 344 348 350 348 343 343 345 347 345 342 343 345 345 342 345 345
309 310 309 309 311 314 318 320 319 318 319 323 323 322 323 323 323 322 323 323 319 316 318 316 319 319 319 321 335 345 350 350 348 344 346 346 347 345 344 342 344 345 341 344 345
314 314 311 309 312 316 320 319 319 320 319 322 324 325 322 321 322 322 321 322 319 319 319 318 320 321 322 324 342 343 347 348 349 346 344 346 345 345 343 343 343 343 343 342 344
315 313 310 310 315 320 319 321 322 321 318 322 322 323 323 321 321 322 322 322 318 319 318 319 320 322 322 323 333 343 345 346 347 349 352 344 350 345 343 344 343 342 345 340 343
315 313 310 312 319 318 321 322 322 321 324 325 323 323 322 321 321 322 323 321 318 317 316 317 319 320 320 322 333 344 343 346 346 346 347 346 350 344 343 344 344 342 344 342 343
316 314 311 312 316 321 322 323 322 321 325 326 322 322 322 321 322 322 320 319 320 318 317 317 319 317 320 329 334 342 341 342 343 343 343 348 348 348 346 343 343 342 343 344 343
316 317 316 319 321 321 320 323 322 324 322 322 322 321 321 322 322 320 320 318 317 319 319 319 319 338 340 343 341 339 339 342 345 347 344 344 349 346 343 342 341 342 342 344 344
316 318 318 319 321 320 321 320 326 325 318 319 323 324 325 325 324 321 320 318 318 318 318 320 320 341 338 340 343 340 335 340 343 347 349 345 351 342 338 341 340 340 341 343 344
317 318 321 321 321 321 322 321 324 320 317 320 322 324 323 324 325 322 319 319 320 317 318 321 323 322 336 335 338 340 337 332 340 340 343 347 345 340 339 339 338 339 341 344 344
318 320 322 322 323 322 318 321 321 319 317 319 321 323 324 322 325 325 326 325 323 322 316 321 324 323 325 335 334 334 332 335 336 344 346 347 346 343 341 340 340 340 343 344 344
317 320 324 324 324 323 318 318 322 324 319 319 319 320 321 325 326 327 328 326 324 323 320 319 319 322 321 323 332 321 322 321 328 334 341 346 343 338 338 340 340 340 343 344 344
317 314 324 324 322 314 316 318 321 318 318 318 318 319 320 325 326 326 327 327 325 322 321 320 317 323 323 320 322 323 323 317 318 321 331 337 334 337 335 340 338 339 341 344 344
314 318 319 320 317 314 317 319 321 317 317 317 317 318 319 321 324 326 325 325 323 321 321 320 320 324 326 324 323 324 324 320 313 314 322 327 325 338 339 340 339 339 340 341 343
315 315 323 322 321 318 320 319 318 318 317 317 319 319 319 321 319 326 324 324 325 326 321 319 316 322 321 322 323 332 333 331 325 330 329 326 339 339 341 341 342 343 340 339 339
313 317 321 321 322 323 319 318 318 317 315 316 316 321 319 322 319 319 319 320 323 324 322 317 321 324 323 328 330 332 333 334 333 335 339 341 339 336 336 340 343 346 347 343 341
312 322 327 325 325 321 314 318 316 315 315 314 317 322 319 321 321 321 319 319 321 321 321 315 318 323 326 328 330 331 332 334 336 339 342 339 339 332 335 341 339 345 346 345 343
322 321 324 324 323 322 322 322 315 316 317 315 315 318 317 318 320 318 320 321 321 322 318 318 317 320 325 323 326 328 328 333 335 337 339 338 338 335 340 340 338 341 342 342 344